<?xml version="1.0" encoding="UTF-8" standalone="no" ?><gpx xmlns="http://www.topografix.com/GPX/1/1" xmlns:gpxx="http://www.garmin.com/xmlschemas/GpxExtensions/v3" xmlns:wptx1="http://www.garmin.com/xmlschemas/WaypointExtension/v1" xmlns:gpxtpx="http://www.garmin.com/xmlschemas/TrackPointExtension/v1" creator="GuideVTT.com" version="1.1" xmlns:xsi="http://www.w3.org/2001/XMLSchema-instance" xsi:schemaLocation="http://www.topografix.com/GPX/1/1 http://www.topografix.com/GPX/1/1/gpx.xsd http://www.garmin.com/xmlschemas/GpxExtensions/v3 http://www8.garmin.com/xmlschemas/GpxExtensionsv3.xsd http://www.garmin.com/xmlschemas/WaypointExtension/v1 http://www8.garmin.com/xmlschemas/WaypointExtensionv1.xsd http://www.garmin.com/xmlschemas/TrackPointExtension/v1 http://www.garmin.com/xmlschemas/TrackPointExtensionv1.xsd">
<metadata><link href="http://www.garmin.com"><text>Garmin International</text></link><time>2013-06-22T15:13:50Z</time></metadata>
<trk><name>bulle-saint_saturnin_etape5.gpx</name><extensions><gpxx:TrackExtension><gpxx:DisplayColor>Cyan</gpxx:DisplayColor></gpxx:TrackExtension></extensions><trkseg>
<trkpt lat="44.21525200" lon="5.92383400"><ele></ele><time>2014-5-10T1:20:47Z</time></trkpt>
<trkpt lat="44.21526800" lon="5.92377700"><ele></ele><time>2014-5-10T1:20:50Z</time></trkpt>
<trkpt lat="44.21525900" lon="5.92372900"><ele></ele><time>2014-5-10T1:20:53Z</time></trkpt>
<trkpt lat="44.21525100" lon="5.92371700"><ele></ele><time>2014-5-10T1:20:56Z</time></trkpt>
<trkpt lat="44.21519400" lon="5.92368800"><ele></ele><time>2014-5-10T1:20:59Z</time></trkpt>
<trkpt lat="44.21505900" lon="5.92379200"><ele></ele><time>2014-5-10T1:21:2Z</time></trkpt>
<trkpt lat="44.21480300" lon="5.92407400"><ele></ele><time>2014-5-10T1:21:5Z</time></trkpt>
<trkpt lat="44.21440500" lon="5.92450900"><ele></ele><time>2014-5-10T1:21:8Z</time></trkpt>
<trkpt lat="44.21396300" lon="5.92498800"><ele></ele><time>2014-5-10T1:21:11Z</time></trkpt>
<trkpt lat="44.21338100" lon="5.92560500"><ele></ele><time>2014-5-10T1:21:14Z</time></trkpt>
<trkpt lat="44.21288600" lon="5.92613600"><ele></ele><time>2014-5-10T1:21:17Z</time></trkpt>
<trkpt lat="44.21216000" lon="5.92691100"><ele></ele><time>2014-5-10T1:21:20Z</time></trkpt>
<trkpt lat="44.21145400" lon="5.92766500"><ele></ele><time>2014-5-10T1:21:23Z</time></trkpt>
<trkpt lat="44.21091400" lon="5.92824000"><ele></ele><time>2014-5-10T1:21:26Z</time></trkpt>
<trkpt lat="44.21024700" lon="5.92895700"><ele></ele><time>2014-5-10T1:21:29Z</time></trkpt>
<trkpt lat="44.20959400" lon="5.92963300"><ele></ele><time>2014-5-10T1:21:32Z</time></trkpt>
<trkpt lat="44.20922700" lon="5.93002900"><ele></ele><time>2014-5-10T1:21:35Z</time></trkpt>
<trkpt lat="44.20856100" lon="5.93073800"><ele></ele><time>2014-5-10T1:21:38Z</time></trkpt>
<trkpt lat="44.20803600" lon="5.93127400"><ele></ele><time>2014-5-10T1:21:41Z</time></trkpt>
<trkpt lat="44.20753900" lon="5.93181400"><ele></ele><time>2014-5-10T1:21:44Z</time></trkpt>
<trkpt lat="44.20692300" lon="5.93246100"><ele></ele><time>2014-5-10T1:21:47Z</time></trkpt>
<trkpt lat="44.20621800" lon="5.93320400"><ele></ele><time>2014-5-10T1:21:50Z</time></trkpt>
<trkpt lat="44.20562700" lon="5.93386000"><ele></ele><time>2014-5-10T1:21:53Z</time></trkpt>
<trkpt lat="44.20510300" lon="5.93441600"><ele></ele><time>2014-5-10T1:21:56Z</time></trkpt>
<trkpt lat="44.20480600" lon="5.93473000"><ele></ele><time>2014-5-10T1:21:59Z</time></trkpt>
<trkpt lat="44.20423300" lon="5.93533700"><ele></ele><time>2014-5-10T1:22:2Z</time></trkpt>
<trkpt lat="44.20357800" lon="5.93603200"><ele></ele><time>2014-5-10T1:22:5Z</time></trkpt>
<trkpt lat="44.20313900" lon="5.93648900"><ele></ele><time>2014-5-10T1:22:8Z</time></trkpt>
<trkpt lat="44.20288500" lon="5.93676600"><ele></ele><time>2014-5-10T1:22:11Z</time></trkpt>
<trkpt lat="44.20270600" lon="5.93696900"><ele></ele><time>2014-5-10T1:22:14Z</time></trkpt>
<trkpt lat="44.20253600" lon="5.93720900"><ele></ele><time>2014-5-10T1:22:17Z</time></trkpt>
<trkpt lat="44.20223000" lon="5.93800000"><ele></ele><time>2014-5-10T1:22:20Z</time></trkpt>
<trkpt lat="44.20205600" lon="5.93850600"><ele></ele><time>2014-5-10T1:22:23Z</time></trkpt>
<trkpt lat="44.20200000" lon="5.93866800"><ele></ele><time>2014-5-10T1:22:26Z</time></trkpt>
<trkpt lat="44.20179500" lon="5.93924800"><ele></ele><time>2014-5-10T1:22:29Z</time></trkpt>
<trkpt lat="44.20160000" lon="5.93953800"><ele></ele><time>2014-5-10T1:22:32Z</time></trkpt>
<trkpt lat="44.20152000" lon="5.93958700"><ele></ele><time>2014-5-10T1:22:35Z</time></trkpt>
<trkpt lat="44.20144000" lon="5.93962100"><ele></ele><time>2014-5-10T1:22:38Z</time></trkpt>
<trkpt lat="44.20120900" lon="5.93971000"><ele></ele><time>2014-5-10T1:22:41Z</time></trkpt>
<trkpt lat="44.20106100" lon="5.93977100"><ele></ele><time>2014-5-10T1:22:44Z</time></trkpt>
<trkpt lat="44.20099100" lon="5.93980100"><ele></ele><time>2014-5-10T1:22:47Z</time></trkpt>
<trkpt lat="44.20078800" lon="5.94001400"><ele></ele><time>2014-5-10T1:22:50Z</time></trkpt>
<trkpt lat="44.20075800" lon="5.94016900"><ele></ele><time>2014-5-10T1:22:53Z</time></trkpt>
<trkpt lat="44.20075600" lon="5.94062500"><ele></ele><time>2014-5-10T1:22:56Z</time></trkpt>
<trkpt lat="44.20076400" lon="5.94097300"><ele></ele><time>2014-5-10T1:22:59Z</time></trkpt>
<trkpt lat="44.20076800" lon="5.94123200"><ele></ele><time>2014-5-10T1:23:2Z</time></trkpt>
<trkpt lat="44.20077500" lon="5.94154600"><ele></ele><time>2014-5-10T1:23:5Z</time></trkpt>
<trkpt lat="44.20077700" lon="5.94167600"><ele></ele><time>2014-5-10T1:23:8Z</time></trkpt>
<trkpt lat="44.20078200" lon="5.94200200"><ele></ele><time>2014-5-10T1:23:11Z</time></trkpt>
<trkpt lat="44.20075000" lon="5.94229300"><ele></ele><time>2014-5-10T1:23:14Z</time></trkpt>
<trkpt lat="44.20066300" lon="5.94239100"><ele></ele><time>2014-5-10T1:23:17Z</time></trkpt>
<trkpt lat="44.20055000" lon="5.94252200"><ele></ele><time>2014-5-10T1:23:20Z</time></trkpt>
<trkpt lat="44.20052100" lon="5.94278800"><ele></ele><time>2014-5-10T1:23:23Z</time></trkpt>
<trkpt lat="44.20048700" lon="5.94295300"><ele></ele><time>2014-5-10T1:23:26Z</time></trkpt>
<trkpt lat="44.20043500" lon="5.94335000"><ele></ele><time>2014-5-10T1:23:29Z</time></trkpt>
<trkpt lat="44.20028800" lon="5.94367900"><ele></ele><time>2014-5-10T1:23:32Z</time></trkpt>
<trkpt lat="44.20012800" lon="5.94392600"><ele></ele><time>2014-5-10T1:23:35Z</time></trkpt>
<trkpt lat="44.19985800" lon="5.94431200"><ele></ele><time>2014-5-10T1:23:38Z</time></trkpt>
<trkpt lat="44.19956400" lon="5.94467800"><ele></ele><time>2014-5-10T1:23:41Z</time></trkpt>
<trkpt lat="44.19947200" lon="5.94479000"><ele></ele><time>2014-5-10T1:23:44Z</time></trkpt>
<trkpt lat="44.19923600" lon="5.94489400"><ele></ele><time>2014-5-10T1:23:47Z</time></trkpt>
<trkpt lat="44.19898800" lon="5.94491000"><ele></ele><time>2014-5-10T1:23:50Z</time></trkpt>
<trkpt lat="44.19876600" lon="5.94494600"><ele></ele><time>2014-5-10T1:23:53Z</time></trkpt>
<trkpt lat="44.19864600" lon="5.94495800"><ele></ele><time>2014-5-10T1:23:56Z</time></trkpt>
<trkpt lat="44.19848100" lon="5.94496300"><ele></ele><time>2014-5-10T1:23:59Z</time></trkpt>
<trkpt lat="44.19834500" lon="5.94495400"><ele></ele><time>2014-5-10T1:24:2Z</time></trkpt>
<trkpt lat="44.19820800" lon="5.94493600"><ele></ele><time>2014-5-10T1:24:5Z</time></trkpt>
<trkpt lat="44.19811000" lon="5.94492500"><ele></ele><time>2014-5-10T1:24:8Z</time></trkpt>
<trkpt lat="44.19804600" lon="5.94491200"><ele></ele><time>2014-5-10T1:24:11Z</time></trkpt>
<trkpt lat="44.19800900" lon="5.94489800"><ele></ele><time>2014-5-10T1:24:14Z</time></trkpt>
<trkpt lat="44.19789700" lon="5.94487700"><ele></ele><time>2014-5-10T1:24:17Z</time></trkpt>
<trkpt lat="44.19778900" lon="5.94489700"><ele></ele><time>2014-5-10T1:24:20Z</time></trkpt>
<trkpt lat="44.19764100" lon="5.94485000"><ele></ele><time>2014-5-10T1:24:23Z</time></trkpt>
<trkpt lat="44.19751800" lon="5.94476800"><ele></ele><time>2014-5-10T1:24:26Z</time></trkpt>
<trkpt lat="44.19739600" lon="5.94472700"><ele></ele><time>2014-5-10T1:24:29Z</time></trkpt>
<trkpt lat="44.19739300" lon="5.94472600"><ele></ele><time>2014-5-10T1:24:32Z</time></trkpt>
<trkpt lat="44.19727900" lon="5.94475800"><ele></ele><time>2014-5-10T1:24:35Z</time></trkpt>
<trkpt lat="44.19707500" lon="5.94481800"><ele></ele><time>2014-5-10T1:24:38Z</time></trkpt>
<trkpt lat="44.19700600" lon="5.94486700"><ele></ele><time>2014-5-10T1:24:41Z</time></trkpt>
<trkpt lat="44.19690600" lon="5.94485200"><ele></ele><time>2014-5-10T1:24:44Z</time></trkpt>
<trkpt lat="44.19685300" lon="5.94471700"><ele></ele><time>2014-5-10T1:24:47Z</time></trkpt>
<trkpt lat="44.19685000" lon="5.94457100"><ele></ele><time>2014-5-10T1:24:50Z</time></trkpt>
<trkpt lat="44.19680500" lon="5.94448400"><ele></ele><time>2014-5-10T1:24:53Z</time></trkpt>
<trkpt lat="44.19679200" lon="5.94441900"><ele></ele><time>2014-5-10T1:24:56Z</time></trkpt>
<trkpt lat="44.19680000" lon="5.94438100"><ele></ele><time>2014-5-10T1:24:59Z</time></trkpt>
<trkpt lat="44.19681200" lon="5.94428600"><ele></ele><time>2014-5-10T1:25:2Z</time></trkpt>
<trkpt lat="44.19680900" lon="5.94402300"><ele></ele><time>2014-5-10T1:25:5Z</time></trkpt>
<trkpt lat="44.19677200" lon="5.94387400"><ele></ele><time>2014-5-10T1:25:8Z</time></trkpt>
<trkpt lat="44.19676300" lon="5.94380600"><ele></ele><time>2014-5-10T1:25:11Z</time></trkpt>
<trkpt lat="44.19668400" lon="5.94360600"><ele></ele><time>2014-5-10T1:25:14Z</time></trkpt>
<trkpt lat="44.19654700" lon="5.94328000"><ele></ele><time>2014-5-10T1:25:17Z</time></trkpt>
<trkpt lat="44.19633900" lon="5.94282500"><ele></ele><time>2014-5-10T1:25:20Z</time></trkpt>
<trkpt lat="44.19616200" lon="5.94268400"><ele></ele><time>2014-5-10T1:25:23Z</time></trkpt>
<trkpt lat="44.19590900" lon="5.94264000"><ele></ele><time>2014-5-10T1:25:26Z</time></trkpt>
<trkpt lat="44.19570400" lon="5.94268400"><ele></ele><time>2014-5-10T1:25:29Z</time></trkpt>
<trkpt lat="44.19541300" lon="5.94279800"><ele></ele><time>2014-5-10T1:25:32Z</time></trkpt>
<trkpt lat="44.19533300" lon="5.94280700"><ele></ele><time>2014-5-10T1:25:35Z</time></trkpt>
<trkpt lat="44.19514700" lon="5.94297900"><ele></ele><time>2014-5-10T1:25:38Z</time></trkpt>
<trkpt lat="44.19499200" lon="5.94309000"><ele></ele><time>2014-5-10T1:25:41Z</time></trkpt>
<trkpt lat="44.19491200" lon="5.94314000"><ele></ele><time>2014-5-10T1:25:44Z</time></trkpt>
<trkpt lat="44.19457900" lon="5.94335900"><ele></ele><time>2014-5-10T1:25:47Z</time></trkpt>
<trkpt lat="44.19407600" lon="5.94369200"><ele></ele><time>2014-5-10T1:25:50Z</time></trkpt>
<trkpt lat="44.19360300" lon="5.94398500"><ele></ele><time>2014-5-10T1:25:53Z</time></trkpt>
<trkpt lat="44.19302400" lon="5.94430600"><ele></ele><time>2014-5-10T1:25:56Z</time></trkpt>
<trkpt lat="44.19254900" lon="5.94459000"><ele></ele><time>2014-5-10T1:25:59Z</time></trkpt>
<trkpt lat="44.19223700" lon="5.94476100"><ele></ele><time>2014-5-10T1:26:2Z</time></trkpt>
<trkpt lat="44.19193100" lon="5.94493900"><ele></ele><time>2014-5-10T1:26:5Z</time></trkpt>
<trkpt lat="44.19155700" lon="5.94513400"><ele></ele><time>2014-5-10T1:26:8Z</time></trkpt>
<trkpt lat="44.19133900" lon="5.94525900"><ele></ele><time>2014-5-10T1:26:11Z</time></trkpt>
<trkpt lat="44.19109800" lon="5.94538500"><ele></ele><time>2014-5-10T1:26:14Z</time></trkpt>
<trkpt lat="44.19077500" lon="5.94556000"><ele></ele><time>2014-5-10T1:26:17Z</time></trkpt>
<trkpt lat="44.19040000" lon="5.94576200"><ele></ele><time>2014-5-10T1:26:20Z</time></trkpt>
<trkpt lat="44.19010800" lon="5.94591300"><ele></ele><time>2014-5-10T1:26:23Z</time></trkpt>
<trkpt lat="44.18992700" lon="5.94601600"><ele></ele><time>2014-5-10T1:26:26Z</time></trkpt>
<trkpt lat="44.18956400" lon="5.94621500"><ele></ele><time>2014-5-10T1:26:29Z</time></trkpt>
<trkpt lat="44.18934600" lon="5.94630200"><ele></ele><time>2014-5-10T1:26:32Z</time></trkpt>
<trkpt lat="44.18912300" lon="5.94641400"><ele></ele><time>2014-5-10T1:26:35Z</time></trkpt>
<trkpt lat="44.18902900" lon="5.94645400"><ele></ele><time>2014-5-10T1:26:38Z</time></trkpt>
<trkpt lat="44.18896300" lon="5.94645700"><ele></ele><time>2014-5-10T1:26:41Z</time></trkpt>
<trkpt lat="44.18895500" lon="5.94652500"><ele></ele><time>2014-5-10T1:26:44Z</time></trkpt>
<trkpt lat="44.18895600" lon="5.94654300"><ele></ele><time>2014-5-10T1:26:47Z</time></trkpt>
<trkpt lat="44.18901700" lon="5.94658400"><ele></ele><time>2014-5-10T1:26:50Z</time></trkpt>
<trkpt lat="44.18919700" lon="5.94648500"><ele></ele><time>2014-5-10T1:26:53Z</time></trkpt>
<trkpt lat="44.18946600" lon="5.94634600"><ele></ele><time>2014-5-10T1:26:56Z</time></trkpt>
<trkpt lat="44.18982900" lon="5.94615400"><ele></ele><time>2014-5-10T1:26:59Z</time></trkpt>
<trkpt lat="44.19004400" lon="5.94604300"><ele></ele><time>2014-5-10T1:27:2Z</time></trkpt>
<trkpt lat="44.19029700" lon="5.94590900"><ele></ele><time>2014-5-10T1:27:5Z</time></trkpt>
<trkpt lat="44.19057800" lon="5.94575900"><ele></ele><time>2014-5-10T1:27:8Z</time></trkpt>
<trkpt lat="44.19085600" lon="5.94561600"><ele></ele><time>2014-5-10T1:27:11Z</time></trkpt>
<trkpt lat="44.19100100" lon="5.94553900"><ele></ele><time>2014-5-10T1:27:14Z</time></trkpt>
<trkpt lat="44.19104300" lon="5.94554400"><ele></ele><time>2014-5-10T1:27:17Z</time></trkpt>
<trkpt lat="44.19115500" lon="5.94544600"><ele></ele><time>2014-5-10T1:27:20Z</time></trkpt>
<trkpt lat="44.19128200" lon="5.94536200"><ele></ele><time>2014-5-10T1:27:23Z</time></trkpt>
<trkpt lat="44.19154200" lon="5.94522800"><ele></ele><time>2014-5-10T1:27:26Z</time></trkpt>
<trkpt lat="44.19174000" lon="5.94506000"><ele></ele><time>2014-5-10T1:27:29Z</time></trkpt>
<trkpt lat="44.19183700" lon="5.94497500"><ele></ele><time>2014-5-10T1:27:32Z</time></trkpt>
<trkpt lat="44.19185500" lon="5.94489600"><ele></ele><time>2014-5-10T1:27:35Z</time></trkpt>
<trkpt lat="44.19184700" lon="5.94490100"><ele></ele><time>2014-5-10T1:27:38Z</time></trkpt>
<trkpt lat="44.19185300" lon="5.94501600"><ele></ele><time>2014-5-10T1:27:41Z</time></trkpt>
<trkpt lat="44.19181500" lon="5.94502900"><ele></ele><time>2014-5-10T1:27:44Z</time></trkpt>
<trkpt lat="44.19193200" lon="5.94503400"><ele></ele><time>2014-5-10T1:27:47Z</time></trkpt>
<trkpt lat="44.19216600" lon="5.94490100"><ele></ele><time>2014-5-10T1:27:50Z</time></trkpt>
<trkpt lat="44.19251500" lon="5.94471700"><ele></ele><time>2014-5-10T1:27:53Z</time></trkpt>
<trkpt lat="44.19286800" lon="5.94453000"><ele></ele><time>2014-5-10T1:27:56Z</time></trkpt>
<trkpt lat="44.19322300" lon="5.94433500"><ele></ele><time>2014-5-10T1:27:59Z</time></trkpt>
<trkpt lat="44.19354600" lon="5.94415900"><ele></ele><time>2014-5-10T1:28:2Z</time></trkpt>
<trkpt lat="44.19376900" lon="5.94403700"><ele></ele><time>2014-5-10T1:28:5Z</time></trkpt>
<trkpt lat="44.19424900" lon="5.94373500"><ele></ele><time>2014-5-10T1:28:8Z</time></trkpt>
<trkpt lat="44.19446800" lon="5.94353800"><ele></ele><time>2014-5-10T1:28:11Z</time></trkpt>
<trkpt lat="44.19471700" lon="5.94338600"><ele></ele><time>2014-5-10T1:28:14Z</time></trkpt>
<trkpt lat="44.19493200" lon="5.94324200"><ele></ele><time>2014-5-10T1:28:17Z</time></trkpt>
<trkpt lat="44.19522000" lon="5.94306700"><ele></ele><time>2014-5-10T1:28:20Z</time></trkpt>
<trkpt lat="44.19535200" lon="5.94302500"><ele></ele><time>2014-5-10T1:28:23Z</time></trkpt>
<trkpt lat="44.19538500" lon="5.94301100"><ele></ele><time>2014-5-10T1:28:26Z</time></trkpt>
<trkpt lat="44.19542400" lon="5.94285700"><ele></ele><time>2014-5-10T1:28:29Z</time></trkpt>
<trkpt lat="44.19541000" lon="5.94281300"><ele></ele><time>2014-5-10T1:28:32Z</time></trkpt>
<trkpt lat="44.19536800" lon="5.94254900"><ele></ele><time>2014-5-10T1:28:35Z</time></trkpt>
<trkpt lat="44.19540600" lon="5.94236000"><ele></ele><time>2014-5-10T1:28:38Z</time></trkpt>
<trkpt lat="44.19543800" lon="5.94225800"><ele></ele><time>2014-5-10T1:28:41Z</time></trkpt>
<trkpt lat="44.19545200" lon="5.94224900"><ele></ele><time>2014-5-10T1:28:44Z</time></trkpt>
<trkpt lat="44.19545200" lon="5.94225500"><ele></ele><time>2014-5-10T1:28:47Z</time></trkpt>
<trkpt lat="44.19544800" lon="5.94225400"><ele></ele><time>2014-5-10T1:28:50Z</time></trkpt>
<trkpt lat="44.19535800" lon="5.94242700"><ele></ele><time>2014-5-10T1:28:53Z</time></trkpt>
<trkpt lat="44.19530000" lon="5.94275800"><ele></ele><time>2014-5-10T1:28:56Z</time></trkpt>
<trkpt lat="44.19517900" lon="5.94301500"><ele></ele><time>2014-5-10T1:28:59Z</time></trkpt>
<trkpt lat="44.19513400" lon="5.94304700"><ele></ele><time>2014-5-10T1:29:2Z</time></trkpt>
<trkpt lat="44.19466200" lon="5.94332800"><ele></ele><time>2014-5-10T1:29:5Z</time></trkpt>
<trkpt lat="44.19407700" lon="5.94371300"><ele></ele><time>2014-5-10T1:29:8Z</time></trkpt>
<trkpt lat="44.19351000" lon="5.94405900"><ele></ele><time>2014-5-10T1:29:11Z</time></trkpt>
<trkpt lat="44.19304600" lon="5.94429100"><ele></ele><time>2014-5-10T1:29:14Z</time></trkpt>
<trkpt lat="44.19282800" lon="5.94438400"><ele></ele><time>2014-5-10T1:29:17Z</time></trkpt>
<trkpt lat="44.19272600" lon="5.94436700"><ele></ele><time>2014-5-10T1:29:20Z</time></trkpt>
<trkpt lat="44.19254900" lon="5.94443800"><ele></ele><time>2014-5-10T1:29:23Z</time></trkpt>
<trkpt lat="44.19236400" lon="5.94452000"><ele></ele><time>2014-5-10T1:29:26Z</time></trkpt>
<trkpt lat="44.19230500" lon="5.94453100"><ele></ele><time>2014-5-10T1:29:29Z</time></trkpt>
<trkpt lat="44.19225000" lon="5.94457900"><ele></ele><time>2014-5-10T1:29:32Z</time></trkpt>
<trkpt lat="44.19224900" lon="5.94458000"><ele></ele><time>2014-5-10T1:29:35Z</time></trkpt>
<trkpt lat="44.19216800" lon="5.94468900"><ele></ele><time>2014-5-10T1:29:38Z</time></trkpt>
<trkpt lat="44.19216500" lon="5.94469200"><ele></ele><time>2014-5-10T1:29:41Z</time></trkpt>
<trkpt lat="44.19217400" lon="5.94471500"><ele></ele><time>2014-5-10T1:29:44Z</time></trkpt>
<trkpt lat="44.19217600" lon="5.94471100"><ele></ele><time>2014-5-10T1:29:47Z</time></trkpt>
<trkpt lat="44.19219900" lon="5.94470700"><ele></ele><time>2014-5-10T1:29:50Z</time></trkpt>
<trkpt lat="44.19222500" lon="5.94471500"><ele></ele><time>2014-5-10T1:29:53Z</time></trkpt>
<trkpt lat="44.19223200" lon="5.94471200"><ele></ele><time>2014-5-10T1:29:56Z</time></trkpt>
<trkpt lat="44.19221400" lon="5.94468300"><ele></ele><time>2014-5-10T1:29:59Z</time></trkpt>
<trkpt lat="44.19221300" lon="5.94472800"><ele></ele><time>2014-5-10T1:30:2Z</time></trkpt>
<trkpt lat="44.19221100" lon="5.94475200"><ele></ele><time>2014-5-10T1:30:5Z</time></trkpt>
<trkpt lat="44.19220800" lon="5.94475100"><ele></ele><time>2014-5-10T1:30:8Z</time></trkpt>
<trkpt lat="44.19231700" lon="5.94472800"><ele></ele><time>2014-5-10T1:30:11Z</time></trkpt>
<trkpt lat="44.19244000" lon="5.94465800"><ele></ele><time>2014-5-10T1:30:14Z</time></trkpt>
<trkpt lat="44.19259700" lon="5.94455700"><ele></ele><time>2014-5-10T1:30:17Z</time></trkpt>
<trkpt lat="44.19266000" lon="5.94451300"><ele></ele><time>2014-5-10T1:30:20Z</time></trkpt>
<trkpt lat="44.19274300" lon="5.94452400"><ele></ele><time>2014-5-10T1:30:23Z</time></trkpt>
<trkpt lat="44.19285500" lon="5.94454700"><ele></ele><time>2014-5-10T1:30:26Z</time></trkpt>
<trkpt lat="44.19305300" lon="5.94443000"><ele></ele><time>2014-5-10T1:30:29Z</time></trkpt>
<trkpt lat="44.19349700" lon="5.94418100"><ele></ele><time>2014-5-10T1:30:32Z</time></trkpt>
<trkpt lat="44.19380000" lon="5.94401200"><ele></ele><time>2014-5-10T1:30:35Z</time></trkpt>
<trkpt lat="44.19413300" lon="5.94379800"><ele></ele><time>2014-5-10T1:30:38Z</time></trkpt>
<trkpt lat="44.19442100" lon="5.94357800"><ele></ele><time>2014-5-10T1:30:41Z</time></trkpt>
<trkpt lat="44.19465000" lon="5.94343800"><ele></ele><time>2014-5-10T1:30:44Z</time></trkpt>
<trkpt lat="44.19488400" lon="5.94327400"><ele></ele><time>2014-5-10T1:30:47Z</time></trkpt>
<trkpt lat="44.19513500" lon="5.94311400"><ele></ele><time>2014-5-10T1:30:50Z</time></trkpt>
<trkpt lat="44.19529800" lon="5.94302800"><ele></ele><time>2014-5-10T1:30:53Z</time></trkpt>
<trkpt lat="44.19541900" lon="5.94294200"><ele></ele><time>2014-5-10T1:30:56Z</time></trkpt>
<trkpt lat="44.19538400" lon="5.94272800"><ele></ele><time>2014-5-10T1:30:59Z</time></trkpt>
<trkpt lat="44.19535900" lon="5.94253500"><ele></ele><time>2014-5-10T1:31:2Z</time></trkpt>
<trkpt lat="44.19536400" lon="5.94249000"><ele></ele><time>2014-5-10T1:31:5Z</time></trkpt>
<trkpt lat="44.19538500" lon="5.94234300"><ele></ele><time>2014-5-10T1:31:8Z</time></trkpt>
<trkpt lat="44.19530100" lon="5.94218200"><ele></ele><time>2014-5-10T1:31:11Z</time></trkpt>
<trkpt lat="44.19528700" lon="5.94200500"><ele></ele><time>2014-5-10T1:31:14Z</time></trkpt>
<trkpt lat="44.19529700" lon="5.94182100"><ele></ele><time>2014-5-10T1:31:17Z</time></trkpt>
<trkpt lat="44.19518900" lon="5.94169300"><ele></ele><time>2014-5-10T1:31:20Z</time></trkpt>
<trkpt lat="44.19499300" lon="5.94167500"><ele></ele><time>2014-5-10T1:31:23Z</time></trkpt>
<trkpt lat="44.19479700" lon="5.94169400"><ele></ele><time>2014-5-10T1:31:26Z</time></trkpt>
<trkpt lat="44.19457100" lon="5.94167900"><ele></ele><time>2014-5-10T1:31:29Z</time></trkpt>
<trkpt lat="44.19439500" lon="5.94174500"><ele></ele><time>2014-5-10T1:31:32Z</time></trkpt>
<trkpt lat="44.19416700" lon="5.94183100"><ele></ele><time>2014-5-10T1:31:35Z</time></trkpt>
<trkpt lat="44.19402100" lon="5.94188800"><ele></ele><time>2014-5-10T1:31:38Z</time></trkpt>
<trkpt lat="44.19379700" lon="5.94193900"><ele></ele><time>2014-5-10T1:31:41Z</time></trkpt>
<trkpt lat="44.19357700" lon="5.94203800"><ele></ele><time>2014-5-10T1:31:44Z</time></trkpt>
<trkpt lat="44.19336600" lon="5.94214500"><ele></ele><time>2014-5-10T1:31:47Z</time></trkpt>
<trkpt lat="44.19311400" lon="5.94231400"><ele></ele><time>2014-5-10T1:31:50Z</time></trkpt>
<trkpt lat="44.19287400" lon="5.94243700"><ele></ele><time>2014-5-10T1:31:53Z</time></trkpt>
<trkpt lat="44.19262500" lon="5.94256400"><ele></ele><time>2014-5-10T1:31:56Z</time></trkpt>
<trkpt lat="44.19251500" lon="5.94261400"><ele></ele><time>2014-5-10T1:31:59Z</time></trkpt>
<trkpt lat="44.19232700" lon="5.94271100"><ele></ele><time>2014-5-10T1:32:2Z</time></trkpt>
<trkpt lat="44.19207800" lon="5.94285800"><ele></ele><time>2014-5-10T1:32:5Z</time></trkpt>
<trkpt lat="44.19193700" lon="5.94297700"><ele></ele><time>2014-5-10T1:32:8Z</time></trkpt>
<trkpt lat="44.19184400" lon="5.94314700"><ele></ele><time>2014-5-10T1:32:11Z</time></trkpt>
<trkpt lat="44.19168600" lon="5.94337300"><ele></ele><time>2014-5-10T1:32:14Z</time></trkpt>
<trkpt lat="44.19150000" lon="5.94350700"><ele></ele><time>2014-5-10T1:32:17Z</time></trkpt>
<trkpt lat="44.19131400" lon="5.94351000"><ele></ele><time>2014-5-10T1:32:20Z</time></trkpt>
<trkpt lat="44.19101000" lon="5.94340600"><ele></ele><time>2014-5-10T1:32:23Z</time></trkpt>
<trkpt lat="44.19082200" lon="5.94340000"><ele></ele><time>2014-5-10T1:32:26Z</time></trkpt>
<trkpt lat="44.19058700" lon="5.94343600"><ele></ele><time>2014-5-10T1:32:29Z</time></trkpt>
<trkpt lat="44.19040200" lon="5.94345600"><ele></ele><time>2014-5-10T1:32:32Z</time></trkpt>
<trkpt lat="44.19032000" lon="5.94346200"><ele></ele><time>2014-5-10T1:32:35Z</time></trkpt>
<trkpt lat="44.19023900" lon="5.94344700"><ele></ele><time>2014-5-10T1:32:38Z</time></trkpt>
<trkpt lat="44.19009700" lon="5.94333800"><ele></ele><time>2014-5-10T1:32:41Z</time></trkpt>
<trkpt lat="44.19000400" lon="5.94312700"><ele></ele><time>2014-5-10T1:32:44Z</time></trkpt>
<trkpt lat="44.18991800" lon="5.94294700"><ele></ele><time>2014-5-10T1:32:47Z</time></trkpt>
<trkpt lat="44.18981300" lon="5.94275100"><ele></ele><time>2014-5-10T1:32:50Z</time></trkpt>
<trkpt lat="44.18968000" lon="5.94263700"><ele></ele><time>2014-5-10T1:32:53Z</time></trkpt>
<trkpt lat="44.18955600" lon="5.94253900"><ele></ele><time>2014-5-10T1:32:56Z</time></trkpt>
<trkpt lat="44.18944600" lon="5.94237500"><ele></ele><time>2014-5-10T1:32:59Z</time></trkpt>
<trkpt lat="44.18934900" lon="5.94214400"><ele></ele><time>2014-5-10T1:33:2Z</time></trkpt>
<trkpt lat="44.18923200" lon="5.94196200"><ele></ele><time>2014-5-10T1:33:5Z</time></trkpt>
<trkpt lat="44.18906600" lon="5.94186400"><ele></ele><time>2014-5-10T1:33:8Z</time></trkpt>
<trkpt lat="44.18891800" lon="5.94184600"><ele></ele><time>2014-5-10T1:33:11Z</time></trkpt>
<trkpt lat="44.18876800" lon="5.94185200"><ele></ele><time>2014-5-10T1:33:14Z</time></trkpt>
<trkpt lat="44.18858200" lon="5.94180500"><ele></ele><time>2014-5-10T1:33:17Z</time></trkpt>
<trkpt lat="44.18833800" lon="5.94171800"><ele></ele><time>2014-5-10T1:33:20Z</time></trkpt>
<trkpt lat="44.18814800" lon="5.94161200"><ele></ele><time>2014-5-10T1:33:23Z</time></trkpt>
<trkpt lat="44.18793300" lon="5.94146700"><ele></ele><time>2014-5-10T1:33:26Z</time></trkpt>
<trkpt lat="44.18773200" lon="5.94129500"><ele></ele><time>2014-5-10T1:33:29Z</time></trkpt>
<trkpt lat="44.18756300" lon="5.94112000"><ele></ele><time>2014-5-10T1:33:32Z</time></trkpt>
<trkpt lat="44.18730500" lon="5.94086100"><ele></ele><time>2014-5-10T1:33:35Z</time></trkpt>
<trkpt lat="44.18697800" lon="5.94052600"><ele></ele><time>2014-5-10T1:33:38Z</time></trkpt>
<trkpt lat="44.18661900" lon="5.94014300"><ele></ele><time>2014-5-10T1:33:41Z</time></trkpt>
<trkpt lat="44.18639600" lon="5.93991100"><ele></ele><time>2014-5-10T1:33:44Z</time></trkpt>
<trkpt lat="44.18617800" lon="5.93969600"><ele></ele><time>2014-5-10T1:33:47Z</time></trkpt>
<trkpt lat="44.18604300" lon="5.93957700"><ele></ele><time>2014-5-10T1:33:50Z</time></trkpt>
<trkpt lat="44.18579300" lon="5.93922900"><ele></ele><time>2014-5-10T1:33:53Z</time></trkpt>
<trkpt lat="44.18551600" lon="5.93884900"><ele></ele><time>2014-5-10T1:33:56Z</time></trkpt>
<trkpt lat="44.18521200" lon="5.93840400"><ele></ele><time>2014-5-10T1:33:59Z</time></trkpt>
<trkpt lat="44.18501600" lon="5.93807600"><ele></ele><time>2014-5-10T1:34:2Z</time></trkpt>
<trkpt lat="44.18496600" lon="5.93797900"><ele></ele><time>2014-5-10T1:34:5Z</time></trkpt>
<trkpt lat="44.18465700" lon="5.93747000"><ele></ele><time>2014-5-10T1:34:8Z</time></trkpt>
<trkpt lat="44.18438900" lon="5.93701400"><ele></ele><time>2014-5-10T1:34:11Z</time></trkpt>
<trkpt lat="44.18411700" lon="5.93659000"><ele></ele><time>2014-5-10T1:34:14Z</time></trkpt>
<trkpt lat="44.18400000" lon="5.93639600"><ele></ele><time>2014-5-10T1:34:17Z</time></trkpt>
<trkpt lat="44.18374400" lon="5.93600300"><ele></ele><time>2014-5-10T1:34:20Z</time></trkpt>
<trkpt lat="44.18344800" lon="5.93551300"><ele></ele><time>2014-5-10T1:34:23Z</time></trkpt>
<trkpt lat="44.18322500" lon="5.93508200"><ele></ele><time>2014-5-10T1:34:26Z</time></trkpt>
<trkpt lat="44.18305100" lon="5.93465500"><ele></ele><time>2014-5-10T1:34:29Z</time></trkpt>
<trkpt lat="44.18288300" lon="5.93417900"><ele></ele><time>2014-5-10T1:34:32Z</time></trkpt>
<trkpt lat="44.18274200" lon="5.93372400"><ele></ele><time>2014-5-10T1:34:35Z</time></trkpt>
<trkpt lat="44.18263000" lon="5.93329400"><ele></ele><time>2014-5-10T1:34:38Z</time></trkpt>
<trkpt lat="44.18244700" lon="5.93270800"><ele></ele><time>2014-5-10T1:34:41Z</time></trkpt>
<trkpt lat="44.18231000" lon="5.93243600"><ele></ele><time>2014-5-10T1:34:44Z</time></trkpt>
<trkpt lat="44.18208400" lon="5.93222900"><ele></ele><time>2014-5-10T1:34:47Z</time></trkpt>
<trkpt lat="44.18204500" lon="5.93220800"><ele></ele><time>2014-5-10T1:34:50Z</time></trkpt>
<trkpt lat="44.18196400" lon="5.93217500"><ele></ele><time>2014-5-10T1:34:53Z</time></trkpt>
<trkpt lat="44.18159100" lon="5.93210800"><ele></ele><time>2014-5-10T1:34:56Z</time></trkpt>
<trkpt lat="44.18128000" lon="5.93203300"><ele></ele><time>2014-5-10T1:34:59Z</time></trkpt>
<trkpt lat="44.18088400" lon="5.93193600"><ele></ele><time>2014-5-10T1:35:2Z</time></trkpt>
<trkpt lat="44.18037200" lon="5.93184200"><ele></ele><time>2014-5-10T1:35:5Z</time></trkpt>
<trkpt lat="44.18007300" lon="5.93182100"><ele></ele><time>2014-5-10T1:35:8Z</time></trkpt>
<trkpt lat="44.17989000" lon="5.93179300"><ele></ele><time>2014-5-10T1:35:11Z</time></trkpt>
<trkpt lat="44.17971000" lon="5.93172200"><ele></ele><time>2014-5-10T1:35:14Z</time></trkpt>
<trkpt lat="44.17928700" lon="5.93141600"><ele></ele><time>2014-5-10T1:35:17Z</time></trkpt>
<trkpt lat="44.17891700" lon="5.93107800"><ele></ele><time>2014-5-10T1:35:20Z</time></trkpt>
<trkpt lat="44.17871800" lon="5.93068300"><ele></ele><time>2014-5-10T1:35:23Z</time></trkpt>
<trkpt lat="44.17867300" lon="5.93029400"><ele></ele><time>2014-5-10T1:35:26Z</time></trkpt>
<trkpt lat="44.17866600" lon="5.93002600"><ele></ele><time>2014-5-10T1:35:29Z</time></trkpt>
<trkpt lat="44.17865500" lon="5.92989300"><ele></ele><time>2014-5-10T1:35:32Z</time></trkpt>
<trkpt lat="44.17856900" lon="5.92949300"><ele></ele><time>2014-5-10T1:35:35Z</time></trkpt>
<trkpt lat="44.17848700" lon="5.92875500"><ele></ele><time>2014-5-10T1:35:38Z</time></trkpt>
<trkpt lat="44.17848100" lon="5.92843200"><ele></ele><time>2014-5-10T1:35:41Z</time></trkpt>
<trkpt lat="44.17859400" lon="5.92761200"><ele></ele><time>2014-5-10T1:35:44Z</time></trkpt>
<trkpt lat="44.17856800" lon="5.92694700"><ele></ele><time>2014-5-10T1:35:47Z</time></trkpt>
<trkpt lat="44.17843700" lon="5.92612300"><ele></ele><time>2014-5-10T1:35:50Z</time></trkpt>
<trkpt lat="44.17841000" lon="5.92596900"><ele></ele><time>2014-5-10T1:35:53Z</time></trkpt>
<trkpt lat="44.17821800" lon="5.92548800"><ele></ele><time>2014-5-10T1:35:56Z</time></trkpt>
<trkpt lat="44.17803300" lon="5.92524500"><ele></ele><time>2014-5-10T1:35:59Z</time></trkpt>
<trkpt lat="44.17776300" lon="5.92512100"><ele></ele><time>2014-5-10T1:36:2Z</time></trkpt>
<trkpt lat="44.17750500" lon="5.92519100"><ele></ele><time>2014-5-10T1:36:5Z</time></trkpt>
<trkpt lat="44.17744900" lon="5.92523000"><ele></ele><time>2014-5-10T1:36:8Z</time></trkpt>
<trkpt lat="44.17697200" lon="5.92552800"><ele></ele><time>2014-5-10T1:36:11Z</time></trkpt>
<trkpt lat="44.17659000" lon="5.92562100"><ele></ele><time>2014-5-10T1:36:14Z</time></trkpt>
<trkpt lat="44.17622400" lon="5.92555300"><ele></ele><time>2014-5-10T1:36:17Z</time></trkpt>
<trkpt lat="44.17580600" lon="5.92543800"><ele></ele><time>2014-5-10T1:36:20Z</time></trkpt>
<trkpt lat="44.17559400" lon="5.92538800"><ele></ele><time>2014-5-10T1:36:23Z</time></trkpt>
<trkpt lat="44.17500000" lon="5.92521500"><ele></ele><time>2014-5-10T1:36:26Z</time></trkpt>
<trkpt lat="44.17451900" lon="5.92497300"><ele></ele><time>2014-5-10T1:36:29Z</time></trkpt>
<trkpt lat="44.17423100" lon="5.92467000"><ele></ele><time>2014-5-10T1:36:32Z</time></trkpt>
<trkpt lat="44.17398500" lon="5.92426800"><ele></ele><time>2014-5-10T1:36:35Z</time></trkpt>
<trkpt lat="44.17363700" lon="5.92354200"><ele></ele><time>2014-5-10T1:36:38Z</time></trkpt>
<trkpt lat="44.17347900" lon="5.92316300"><ele></ele><time>2014-5-10T1:36:41Z</time></trkpt>
<trkpt lat="44.17326400" lon="5.92261300"><ele></ele><time>2014-5-10T1:36:44Z</time></trkpt>
<trkpt lat="44.17322900" lon="5.92252800"><ele></ele><time>2014-5-10T1:36:47Z</time></trkpt>
<trkpt lat="44.17304300" lon="5.92194500"><ele></ele><time>2014-5-10T1:36:50Z</time></trkpt>
<trkpt lat="44.17283100" lon="5.92137700"><ele></ele><time>2014-5-10T1:36:53Z</time></trkpt>
<trkpt lat="44.17247700" lon="5.92044500"><ele></ele><time>2014-5-10T1:36:56Z</time></trkpt>
<trkpt lat="44.17227100" lon="5.91994500"><ele></ele><time>2014-5-10T1:36:59Z</time></trkpt>
<trkpt lat="44.17208700" lon="5.91940700"><ele></ele><time>2014-5-10T1:37:2Z</time></trkpt>
<trkpt lat="44.17204700" lon="5.91905300"><ele></ele><time>2014-5-10T1:37:5Z</time></trkpt>
<trkpt lat="44.17199100" lon="5.91871000"><ele></ele><time>2014-5-10T1:37:8Z</time></trkpt>
<trkpt lat="44.17195600" lon="5.91863600"><ele></ele><time>2014-5-10T1:37:11Z</time></trkpt>
<trkpt lat="44.17184900" lon="5.91844500"><ele></ele><time>2014-5-10T1:37:14Z</time></trkpt>
<trkpt lat="44.17179500" lon="5.91833700"><ele></ele><time>2014-5-10T1:37:17Z</time></trkpt>
<trkpt lat="44.17177300" lon="5.91804500"><ele></ele><time>2014-5-10T1:37:20Z</time></trkpt>
<trkpt lat="44.17184100" lon="5.91764200"><ele></ele><time>2014-5-10T1:37:23Z</time></trkpt>
<trkpt lat="44.17195300" lon="5.91693100"><ele></ele><time>2014-5-10T1:37:26Z</time></trkpt>
<trkpt lat="44.17207700" lon="5.91630100"><ele></ele><time>2014-5-10T1:37:29Z</time></trkpt>
<trkpt lat="44.17221700" lon="5.91559000"><ele></ele><time>2014-5-10T1:37:32Z</time></trkpt>
<trkpt lat="44.17234100" lon="5.91492600"><ele></ele><time>2014-5-10T1:37:35Z</time></trkpt>
<trkpt lat="44.17246900" lon="5.91414800"><ele></ele><time>2014-5-10T1:37:38Z</time></trkpt>
<trkpt lat="44.17263600" lon="5.91343200"><ele></ele><time>2014-5-10T1:37:41Z</time></trkpt>
<trkpt lat="44.17280500" lon="5.91291000"><ele></ele><time>2014-5-10T1:37:44Z</time></trkpt>
<trkpt lat="44.17302500" lon="5.91243400"><ele></ele><time>2014-5-10T1:37:47Z</time></trkpt>
<trkpt lat="44.17332700" lon="5.91184400"><ele></ele><time>2014-5-10T1:37:50Z</time></trkpt>
<trkpt lat="44.17346100" lon="5.91143600"><ele></ele><time>2014-5-10T1:37:53Z</time></trkpt>
<trkpt lat="44.17352700" lon="5.91095600"><ele></ele><time>2014-5-10T1:37:56Z</time></trkpt>
<trkpt lat="44.17356100" lon="5.91051000"><ele></ele><time>2014-5-10T1:37:59Z</time></trkpt>
<trkpt lat="44.17359300" lon="5.91001300"><ele></ele><time>2014-5-10T1:38:2Z</time></trkpt>
<trkpt lat="44.17366300" lon="5.90951900"><ele></ele><time>2014-5-10T1:38:5Z</time></trkpt>
<trkpt lat="44.17372700" lon="5.90888500"><ele></ele><time>2014-5-10T1:38:8Z</time></trkpt>
<trkpt lat="44.17378300" lon="5.90837100"><ele></ele><time>2014-5-10T1:38:11Z</time></trkpt>
<trkpt lat="44.17382500" lon="5.90775700"><ele></ele><time>2014-5-10T1:38:14Z</time></trkpt>
<trkpt lat="44.17383200" lon="5.90709500"><ele></ele><time>2014-5-10T1:38:17Z</time></trkpt>
<trkpt lat="44.17384300" lon="5.90635200"><ele></ele><time>2014-5-10T1:38:20Z</time></trkpt>
<trkpt lat="44.17385000" lon="5.90558700"><ele></ele><time>2014-5-10T1:38:23Z</time></trkpt>
<trkpt lat="44.17384900" lon="5.90467400"><ele></ele><time>2014-5-10T1:38:26Z</time></trkpt>
<trkpt lat="44.17386300" lon="5.90398500"><ele></ele><time>2014-5-10T1:38:29Z</time></trkpt>
<trkpt lat="44.17391400" lon="5.90346700"><ele></ele><time>2014-5-10T1:38:32Z</time></trkpt>
<trkpt lat="44.17398200" lon="5.90297200"><ele></ele><time>2014-5-10T1:38:35Z</time></trkpt>
<trkpt lat="44.17400500" lon="5.90249500"><ele></ele><time>2014-5-10T1:38:38Z</time></trkpt>
<trkpt lat="44.17402300" lon="5.90192700"><ele></ele><time>2014-5-10T1:38:41Z</time></trkpt>
<trkpt lat="44.17403600" lon="5.90143500"><ele></ele><time>2014-5-10T1:38:44Z</time></trkpt>
<trkpt lat="44.17398400" lon="5.90094200"><ele></ele><time>2014-5-10T1:38:47Z</time></trkpt>
<trkpt lat="44.17388000" lon="5.90041100"><ele></ele><time>2014-5-10T1:38:50Z</time></trkpt>
<trkpt lat="44.17371700" lon="5.89985200"><ele></ele><time>2014-5-10T1:38:53Z</time></trkpt>
<trkpt lat="44.17350300" lon="5.89921200"><ele></ele><time>2014-5-10T1:38:56Z</time></trkpt>
<trkpt lat="44.17338600" lon="5.89866500"><ele></ele><time>2014-5-10T1:38:59Z</time></trkpt>
<trkpt lat="44.17323500" lon="5.89783400"><ele></ele><time>2014-5-10T1:39:2Z</time></trkpt>
<trkpt lat="44.17313100" lon="5.89721600"><ele></ele><time>2014-5-10T1:39:5Z</time></trkpt>
<trkpt lat="44.17301800" lon="5.89654300"><ele></ele><time>2014-5-10T1:39:8Z</time></trkpt>
<trkpt lat="44.17292400" lon="5.89574600"><ele></ele><time>2014-5-10T1:39:11Z</time></trkpt>
<trkpt lat="44.17286000" lon="5.89521800"><ele></ele><time>2014-5-10T1:39:14Z</time></trkpt>
<trkpt lat="44.17277600" lon="5.89457400"><ele></ele><time>2014-5-10T1:39:17Z</time></trkpt>
<trkpt lat="44.17270300" lon="5.89389900"><ele></ele><time>2014-5-10T1:39:20Z</time></trkpt>
<trkpt lat="44.17265100" lon="5.89336300"><ele></ele><time>2014-5-10T1:39:23Z</time></trkpt>
<trkpt lat="44.17256400" lon="5.89274900"><ele></ele><time>2014-5-10T1:39:26Z</time></trkpt>
<trkpt lat="44.17241400" lon="5.89214400"><ele></ele><time>2014-5-10T1:39:29Z</time></trkpt>
<trkpt lat="44.17219000" lon="5.89157900"><ele></ele><time>2014-5-10T1:39:32Z</time></trkpt>
<trkpt lat="44.17201000" lon="5.89109000"><ele></ele><time>2014-5-10T1:39:35Z</time></trkpt>
<trkpt lat="44.17182300" lon="5.89052600"><ele></ele><time>2014-5-10T1:39:38Z</time></trkpt>
<trkpt lat="44.17177200" lon="5.89021900"><ele></ele><time>2014-5-10T1:39:41Z</time></trkpt>
<trkpt lat="44.17161600" lon="5.88941200"><ele></ele><time>2014-5-10T1:39:44Z</time></trkpt>
<trkpt lat="44.17144700" lon="5.88895000"><ele></ele><time>2014-5-10T1:39:47Z</time></trkpt>
<trkpt lat="44.17121000" lon="5.88832600"><ele></ele><time>2014-5-10T1:39:50Z</time></trkpt>
<trkpt lat="44.17100000" lon="5.88776300"><ele></ele><time>2014-5-10T1:39:53Z</time></trkpt>
<trkpt lat="44.17077700" lon="5.88714600"><ele></ele><time>2014-5-10T1:39:56Z</time></trkpt>
<trkpt lat="44.17058900" lon="5.88648000"><ele></ele><time>2014-5-10T1:39:59Z</time></trkpt>
<trkpt lat="44.17033200" lon="5.88569500"><ele></ele><time>2014-5-10T1:40:2Z</time></trkpt>
<trkpt lat="44.17012400" lon="5.88516200"><ele></ele><time>2014-5-10T1:40:5Z</time></trkpt>
<trkpt lat="44.17002400" lon="5.88491200"><ele></ele><time>2014-5-10T1:40:8Z</time></trkpt>
<trkpt lat="44.17001600" lon="5.88488300"><ele></ele><time>2014-5-10T1:40:11Z</time></trkpt>
<trkpt lat="44.16997500" lon="5.88487800"><ele></ele><time>2014-5-10T1:40:14Z</time></trkpt>
<trkpt lat="44.16993900" lon="5.88481000"><ele></ele><time>2014-5-10T1:40:17Z</time></trkpt>
<trkpt lat="44.16978900" lon="5.88446400"><ele></ele><time>2014-5-10T1:40:20Z</time></trkpt>
<trkpt lat="44.16972000" lon="5.88424500"><ele></ele><time>2014-5-10T1:40:23Z</time></trkpt>
<trkpt lat="44.16964300" lon="5.88377500"><ele></ele><time>2014-5-10T1:40:26Z</time></trkpt>
<trkpt lat="44.16957400" lon="5.88328000"><ele></ele><time>2014-5-10T1:40:29Z</time></trkpt>
<trkpt lat="44.16950800" lon="5.88269800"><ele></ele><time>2014-5-10T1:40:32Z</time></trkpt>
<trkpt lat="44.16939700" lon="5.88221500"><ele></ele><time>2014-5-10T1:40:35Z</time></trkpt>
<trkpt lat="44.16918700" lon="5.88168500"><ele></ele><time>2014-5-10T1:40:38Z</time></trkpt>
<trkpt lat="44.16903200" lon="5.88115400"><ele></ele><time>2014-5-10T1:40:41Z</time></trkpt>
<trkpt lat="44.16886300" lon="5.88008500"><ele></ele><time>2014-5-10T1:40:44Z</time></trkpt>
<trkpt lat="44.16871400" lon="5.87918800"><ele></ele><time>2014-5-10T1:40:47Z</time></trkpt>
<trkpt lat="44.16853900" lon="5.87815400"><ele></ele><time>2014-5-10T1:40:50Z</time></trkpt>
<trkpt lat="44.16839100" lon="5.87727300"><ele></ele><time>2014-5-10T1:40:53Z</time></trkpt>
<trkpt lat="44.16824100" lon="5.87634300"><ele></ele><time>2014-5-10T1:40:56Z</time></trkpt>
<trkpt lat="44.16810200" lon="5.87553100"><ele></ele><time>2014-5-10T1:40:59Z</time></trkpt>
<trkpt lat="44.16798000" lon="5.87497100"><ele></ele><time>2014-5-10T1:41:2Z</time></trkpt>
<trkpt lat="44.16787000" lon="5.87434800"><ele></ele><time>2014-5-10T1:41:5Z</time></trkpt>
<trkpt lat="44.16782900" lon="5.87391100"><ele></ele><time>2014-5-10T1:41:8Z</time></trkpt>
<trkpt lat="44.16775900" lon="5.87338300"><ele></ele><time>2014-5-10T1:41:11Z</time></trkpt>
<trkpt lat="44.16766300" lon="5.87270400"><ele></ele><time>2014-5-10T1:41:14Z</time></trkpt>
<trkpt lat="44.16756600" lon="5.87194500"><ele></ele><time>2014-5-10T1:41:17Z</time></trkpt>
<trkpt lat="44.16746500" lon="5.87143000"><ele></ele><time>2014-5-10T1:41:20Z</time></trkpt>
<trkpt lat="44.16745800" lon="5.87136400"><ele></ele><time>2014-5-10T1:41:23Z</time></trkpt>
<trkpt lat="44.16746100" lon="5.87116700"><ele></ele><time>2014-5-10T1:41:26Z</time></trkpt>
<trkpt lat="44.16744600" lon="5.87098100"><ele></ele><time>2014-5-10T1:41:29Z</time></trkpt>
<trkpt lat="44.16732700" lon="5.87050700"><ele></ele><time>2014-5-10T1:41:32Z</time></trkpt>
<trkpt lat="44.16729300" lon="5.87016600"><ele></ele><time>2014-5-10T1:41:35Z</time></trkpt>
<trkpt lat="44.16727000" lon="5.86985000"><ele></ele><time>2014-5-10T1:41:38Z</time></trkpt>
<trkpt lat="44.16726600" lon="5.86954800"><ele></ele><time>2014-5-10T1:41:41Z</time></trkpt>
<trkpt lat="44.16727200" lon="5.86923000"><ele></ele><time>2014-5-10T1:41:44Z</time></trkpt>
<trkpt lat="44.16725400" lon="5.86876100"><ele></ele><time>2014-5-10T1:41:47Z</time></trkpt>
<trkpt lat="44.16723400" lon="5.86830600"><ele></ele><time>2014-5-10T1:41:50Z</time></trkpt>
<trkpt lat="44.16716000" lon="5.86770900"><ele></ele><time>2014-5-10T1:41:53Z</time></trkpt>
<trkpt lat="44.16714500" lon="5.86715800"><ele></ele><time>2014-5-10T1:41:56Z</time></trkpt>
<trkpt lat="44.16713800" lon="5.86653600"><ele></ele><time>2014-5-10T1:41:59Z</time></trkpt>
<trkpt lat="44.16712800" lon="5.86583400"><ele></ele><time>2014-5-10T1:42:2Z</time></trkpt>
<trkpt lat="44.16711700" lon="5.86507100"><ele></ele><time>2014-5-10T1:42:5Z</time></trkpt>
<trkpt lat="44.16711000" lon="5.86452200"><ele></ele><time>2014-5-10T1:42:8Z</time></trkpt>
<trkpt lat="44.16712800" lon="5.86392900"><ele></ele><time>2014-5-10T1:42:11Z</time></trkpt>
<trkpt lat="44.16714600" lon="5.86367100"><ele></ele><time>2014-5-10T1:42:14Z</time></trkpt>
<trkpt lat="44.16712300" lon="5.86333400"><ele></ele><time>2014-5-10T1:42:17Z</time></trkpt>
<trkpt lat="44.16706300" lon="5.86275000"><ele></ele><time>2014-5-10T1:42:20Z</time></trkpt>
<trkpt lat="44.16698200" lon="5.86198100"><ele></ele><time>2014-5-10T1:42:23Z</time></trkpt>
<trkpt lat="44.16693700" lon="5.86144100"><ele></ele><time>2014-5-10T1:42:26Z</time></trkpt>
<trkpt lat="44.16688100" lon="5.86070400"><ele></ele><time>2014-5-10T1:42:29Z</time></trkpt>
<trkpt lat="44.16683600" lon="5.86003700"><ele></ele><time>2014-5-10T1:42:32Z</time></trkpt>
<trkpt lat="44.16684400" lon="5.85953100"><ele></ele><time>2014-5-10T1:42:35Z</time></trkpt>
<trkpt lat="44.16685700" lon="5.85885700"><ele></ele><time>2014-5-10T1:42:38Z</time></trkpt>
<trkpt lat="44.16685600" lon="5.85877700"><ele></ele><time>2014-5-10T1:42:41Z</time></trkpt>
<trkpt lat="44.16687400" lon="5.85809200"><ele></ele><time>2014-5-10T1:42:44Z</time></trkpt>
<trkpt lat="44.16691400" lon="5.85716400"><ele></ele><time>2014-5-10T1:42:47Z</time></trkpt>
<trkpt lat="44.16701000" lon="5.85660800"><ele></ele><time>2014-5-10T1:42:50Z</time></trkpt>
<trkpt lat="44.16712500" lon="5.85592500"><ele></ele><time>2014-5-10T1:42:53Z</time></trkpt>
<trkpt lat="44.16710600" lon="5.85535400"><ele></ele><time>2014-5-10T1:42:56Z</time></trkpt>
<trkpt lat="44.16710700" lon="5.85527300"><ele></ele><time>2014-5-10T1:42:59Z</time></trkpt>
<trkpt lat="44.16717100" lon="5.85474000"><ele></ele><time>2014-5-10T1:43:2Z</time></trkpt>
<trkpt lat="44.16724000" lon="5.85414000"><ele></ele><time>2014-5-10T1:43:5Z</time></trkpt>
<trkpt lat="44.16729000" lon="5.85372700"><ele></ele><time>2014-5-10T1:43:8Z</time></trkpt>
<trkpt lat="44.16737000" lon="5.85311000"><ele></ele><time>2014-5-10T1:43:11Z</time></trkpt>
<trkpt lat="44.16748800" lon="5.85273200"><ele></ele><time>2014-5-10T1:43:14Z</time></trkpt>
<trkpt lat="44.16772900" lon="5.85231700"><ele></ele><time>2014-5-10T1:43:17Z</time></trkpt>
<trkpt lat="44.16777500" lon="5.85221200"><ele></ele><time>2014-5-10T1:43:20Z</time></trkpt>
<trkpt lat="44.16792300" lon="5.85164200"><ele></ele><time>2014-5-10T1:43:23Z</time></trkpt>
<trkpt lat="44.16804300" lon="5.85102400"><ele></ele><time>2014-5-10T1:43:26Z</time></trkpt>
<trkpt lat="44.16809500" lon="5.85052300"><ele></ele><time>2014-5-10T1:43:29Z</time></trkpt>
<trkpt lat="44.16810100" lon="5.84999600"><ele></ele><time>2014-5-10T1:43:32Z</time></trkpt>
<trkpt lat="44.16805000" lon="5.84943100"><ele></ele><time>2014-5-10T1:43:35Z</time></trkpt>
<trkpt lat="44.16799000" lon="5.84883400"><ele></ele><time>2014-5-10T1:43:38Z</time></trkpt>
<trkpt lat="44.16801100" lon="5.84823300"><ele></ele><time>2014-5-10T1:43:41Z</time></trkpt>
<trkpt lat="44.16813400" lon="5.84774700"><ele></ele><time>2014-5-10T1:43:44Z</time></trkpt>
<trkpt lat="44.16839600" lon="5.84699700"><ele></ele><time>2014-5-10T1:43:47Z</time></trkpt>
<trkpt lat="44.16856300" lon="5.84639900"><ele></ele><time>2014-5-10T1:43:50Z</time></trkpt>
<trkpt lat="44.16865500" lon="5.84595700"><ele></ele><time>2014-5-10T1:43:53Z</time></trkpt>
<trkpt lat="44.16867200" lon="5.84588600"><ele></ele><time>2014-5-10T1:43:56Z</time></trkpt>
<trkpt lat="44.16878000" lon="5.84526200"><ele></ele><time>2014-5-10T1:43:59Z</time></trkpt>
<trkpt lat="44.16886200" lon="5.84478500"><ele></ele><time>2014-5-10T1:44:2Z</time></trkpt>
<trkpt lat="44.16887800" lon="5.84467200"><ele></ele><time>2014-5-10T1:44:5Z</time></trkpt>
<trkpt lat="44.16895600" lon="5.84409300"><ele></ele><time>2014-5-10T1:44:8Z</time></trkpt>
<trkpt lat="44.16899600" lon="5.84361700"><ele></ele><time>2014-5-10T1:44:11Z</time></trkpt>
<trkpt lat="44.16904300" lon="5.84307100"><ele></ele><time>2014-5-10T1:44:14Z</time></trkpt>
<trkpt lat="44.16911600" lon="5.84242400"><ele></ele><time>2014-5-10T1:44:17Z</time></trkpt>
<trkpt lat="44.16915500" lon="5.84187000"><ele></ele><time>2014-5-10T1:44:20Z</time></trkpt>
<trkpt lat="44.16918900" lon="5.84144100"><ele></ele><time>2014-5-10T1:44:23Z</time></trkpt>
<trkpt lat="44.16921000" lon="5.84101900"><ele></ele><time>2014-5-10T1:44:26Z</time></trkpt>
<trkpt lat="44.16921300" lon="5.84072900"><ele></ele><time>2014-5-10T1:44:29Z</time></trkpt>
<trkpt lat="44.16921800" lon="5.84036500"><ele></ele><time>2014-5-10T1:44:32Z</time></trkpt>
<trkpt lat="44.16921700" lon="5.84003800"><ele></ele><time>2014-5-10T1:44:35Z</time></trkpt>
<trkpt lat="44.16922700" lon="5.83966200"><ele></ele><time>2014-5-10T1:44:38Z</time></trkpt>
<trkpt lat="44.16922300" lon="5.83934200"><ele></ele><time>2014-5-10T1:44:41Z</time></trkpt>
<trkpt lat="44.16922400" lon="5.83897500"><ele></ele><time>2014-5-10T1:44:44Z</time></trkpt>
<trkpt lat="44.16922100" lon="5.83847300"><ele></ele><time>2014-5-10T1:44:47Z</time></trkpt>
<trkpt lat="44.16921400" lon="5.83780100"><ele></ele><time>2014-5-10T1:44:50Z</time></trkpt>
<trkpt lat="44.16917800" lon="5.83708200"><ele></ele><time>2014-5-10T1:44:53Z</time></trkpt>
<trkpt lat="44.16916100" lon="5.83679100"><ele></ele><time>2014-5-10T1:44:56Z</time></trkpt>
<trkpt lat="44.16913500" lon="5.83633700"><ele></ele><time>2014-5-10T1:44:59Z</time></trkpt>
<trkpt lat="44.16909900" lon="5.83577100"><ele></ele><time>2014-5-10T1:45:2Z</time></trkpt>
<trkpt lat="44.16906900" lon="5.83521400"><ele></ele><time>2014-5-10T1:45:5Z</time></trkpt>
<trkpt lat="44.16903900" lon="5.83463400"><ele></ele><time>2014-5-10T1:45:8Z</time></trkpt>
<trkpt lat="44.16899700" lon="5.83384400"><ele></ele><time>2014-5-10T1:45:11Z</time></trkpt>
<trkpt lat="44.16896000" lon="5.83312500"><ele></ele><time>2014-5-10T1:45:14Z</time></trkpt>
<trkpt lat="44.16894300" lon="5.83252600"><ele></ele><time>2014-5-10T1:45:17Z</time></trkpt>
<trkpt lat="44.16887600" lon="5.83201400"><ele></ele><time>2014-5-10T1:45:20Z</time></trkpt>
<trkpt lat="44.16875100" lon="5.83162800"><ele></ele><time>2014-5-10T1:45:23Z</time></trkpt>
<trkpt lat="44.16858200" lon="5.83121600"><ele></ele><time>2014-5-10T1:45:26Z</time></trkpt>
<trkpt lat="44.16850300" lon="5.83097100"><ele></ele><time>2014-5-10T1:45:29Z</time></trkpt>
<trkpt lat="44.16844600" lon="5.83073000"><ele></ele><time>2014-5-10T1:45:32Z</time></trkpt>
<trkpt lat="44.16843400" lon="5.83043500"><ele></ele><time>2014-5-10T1:45:35Z</time></trkpt>
<trkpt lat="44.16844100" lon="5.83010200"><ele></ele><time>2014-5-10T1:45:38Z</time></trkpt>
<trkpt lat="44.16847400" lon="5.82965800"><ele></ele><time>2014-5-10T1:45:41Z</time></trkpt>
<trkpt lat="44.16847300" lon="5.82929400"><ele></ele><time>2014-5-10T1:45:44Z</time></trkpt>
<trkpt lat="44.16843800" lon="5.82897900"><ele></ele><time>2014-5-10T1:45:47Z</time></trkpt>
<trkpt lat="44.16840500" lon="5.82881100"><ele></ele><time>2014-5-10T1:45:50Z</time></trkpt>
<trkpt lat="44.16836500" lon="5.82865600"><ele></ele><time>2014-5-10T1:45:53Z</time></trkpt>
<trkpt lat="44.16839500" lon="5.82864300"><ele></ele><time>2014-5-10T1:45:56Z</time></trkpt>
<trkpt lat="44.16835300" lon="5.82871300"><ele></ele><time>2014-5-10T1:45:59Z</time></trkpt>
<trkpt lat="44.16832800" lon="5.82868700"><ele></ele><time>2014-5-10T1:46:2Z</time></trkpt>
<trkpt lat="44.16832800" lon="5.82868400"><ele></ele><time>2014-5-10T1:46:5Z</time></trkpt>
<trkpt lat="44.16832600" lon="5.82866700"><ele></ele><time>2014-5-10T1:46:8Z</time></trkpt>
<trkpt lat="44.16841100" lon="5.82862900"><ele></ele><time>2014-5-10T1:46:11Z</time></trkpt>
<trkpt lat="44.16841700" lon="5.82861300"><ele></ele><time>2014-5-10T1:46:14Z</time></trkpt>
<trkpt lat="44.16840700" lon="5.82859300"><ele></ele><time>2014-5-10T1:46:17Z</time></trkpt>
<trkpt lat="44.16841300" lon="5.82851800"><ele></ele><time>2014-5-10T1:46:20Z</time></trkpt>
<trkpt lat="44.16845200" lon="5.82829400"><ele></ele><time>2014-5-10T1:46:23Z</time></trkpt>
<trkpt lat="44.16853100" lon="5.82806900"><ele></ele><time>2014-5-10T1:46:26Z</time></trkpt>
<trkpt lat="44.16864900" lon="5.82770800"><ele></ele><time>2014-5-10T1:46:29Z</time></trkpt>
<trkpt lat="44.16878500" lon="5.82726900"><ele></ele><time>2014-5-10T1:46:32Z</time></trkpt>
<trkpt lat="44.16888000" lon="5.82694900"><ele></ele><time>2014-5-10T1:46:35Z</time></trkpt>
<trkpt lat="44.16904700" lon="5.82642800"><ele></ele><time>2014-5-10T1:46:38Z</time></trkpt>
<trkpt lat="44.16916500" lon="5.82599100"><ele></ele><time>2014-5-10T1:46:41Z</time></trkpt>
<trkpt lat="44.16919600" lon="5.82557100"><ele></ele><time>2014-5-10T1:46:44Z</time></trkpt>
<trkpt lat="44.16923200" lon="5.82503200"><ele></ele><time>2014-5-10T1:46:47Z</time></trkpt>
<trkpt lat="44.16927400" lon="5.82435600"><ele></ele><time>2014-5-10T1:46:50Z</time></trkpt>
<trkpt lat="44.16928400" lon="5.82424200"><ele></ele><time>2014-5-10T1:46:53Z</time></trkpt>
<trkpt lat="44.16932800" lon="5.82373000"><ele></ele><time>2014-5-10T1:46:56Z</time></trkpt>
<trkpt lat="44.16935500" lon="5.82337700"><ele></ele><time>2014-5-10T1:46:59Z</time></trkpt>
<trkpt lat="44.16939400" lon="5.82291100"><ele></ele><time>2014-5-10T1:47:2Z</time></trkpt>
<trkpt lat="44.16944000" lon="5.82234400"><ele></ele><time>2014-5-10T1:47:5Z</time></trkpt>
<trkpt lat="44.16944400" lon="5.82222800"><ele></ele><time>2014-5-10T1:47:8Z</time></trkpt>
<trkpt lat="44.16945900" lon="5.82170600"><ele></ele><time>2014-5-10T1:47:11Z</time></trkpt>
<trkpt lat="44.16943100" lon="5.82118800"><ele></ele><time>2014-5-10T1:47:14Z</time></trkpt>
<trkpt lat="44.16938900" lon="5.82048900"><ele></ele><time>2014-5-10T1:47:17Z</time></trkpt>
<trkpt lat="44.16936700" lon="5.82006000"><ele></ele><time>2014-5-10T1:47:20Z</time></trkpt>
<trkpt lat="44.16934000" lon="5.81965500"><ele></ele><time>2014-5-10T1:47:23Z</time></trkpt>
<trkpt lat="44.16923300" lon="5.81933200"><ele></ele><time>2014-5-10T1:47:26Z</time></trkpt>
<trkpt lat="44.16906600" lon="5.81910100"><ele></ele><time>2014-5-10T1:47:29Z</time></trkpt>
<trkpt lat="44.16891200" lon="5.81891100"><ele></ele><time>2014-5-10T1:47:32Z</time></trkpt>
<trkpt lat="44.16876800" lon="5.81865900"><ele></ele><time>2014-5-10T1:47:35Z</time></trkpt>
<trkpt lat="44.16862900" lon="5.81835200"><ele></ele><time>2014-5-10T1:47:38Z</time></trkpt>
<trkpt lat="44.16851200" lon="5.81806600"><ele></ele><time>2014-5-10T1:47:41Z</time></trkpt>
<trkpt lat="44.16832300" lon="5.81764500"><ele></ele><time>2014-5-10T1:47:44Z</time></trkpt>
<trkpt lat="44.16815400" lon="5.81728100"><ele></ele><time>2014-5-10T1:47:47Z</time></trkpt>
<trkpt lat="44.16794000" lon="5.81676100"><ele></ele><time>2014-5-10T1:47:50Z</time></trkpt>
<trkpt lat="44.16787500" lon="5.81650600"><ele></ele><time>2014-5-10T1:47:53Z</time></trkpt>
<trkpt lat="44.16781000" lon="5.81595000"><ele></ele><time>2014-5-10T1:47:56Z</time></trkpt>
<trkpt lat="44.16782500" lon="5.81548400"><ele></ele><time>2014-5-10T1:47:59Z</time></trkpt>
<trkpt lat="44.16783700" lon="5.81501000"><ele></ele><time>2014-5-10T1:48:2Z</time></trkpt>
<trkpt lat="44.16783300" lon="5.81452700"><ele></ele><time>2014-5-10T1:48:5Z</time></trkpt>
<trkpt lat="44.16783000" lon="5.81445900"><ele></ele><time>2014-5-10T1:48:8Z</time></trkpt>
<trkpt lat="44.16771800" lon="5.81408400"><ele></ele><time>2014-5-10T1:48:11Z</time></trkpt>
<trkpt lat="44.16755900" lon="5.81393100"><ele></ele><time>2014-5-10T1:48:14Z</time></trkpt>
<trkpt lat="44.16751400" lon="5.81390700"><ele></ele><time>2014-5-10T1:48:17Z</time></trkpt>
<trkpt lat="44.16729100" lon="5.81379000"><ele></ele><time>2014-5-10T1:48:20Z</time></trkpt>
<trkpt lat="44.16710200" lon="5.81352800"><ele></ele><time>2014-5-10T1:48:23Z</time></trkpt>
<trkpt lat="44.16706200" lon="5.81329400"><ele></ele><time>2014-5-10T1:48:26Z</time></trkpt>
<trkpt lat="44.16710700" lon="5.81281400"><ele></ele><time>2014-5-10T1:48:29Z</time></trkpt>
<trkpt lat="44.16717100" lon="5.81235400"><ele></ele><time>2014-5-10T1:48:32Z</time></trkpt>
<trkpt lat="44.16720500" lon="5.81192800"><ele></ele><time>2014-5-10T1:48:35Z</time></trkpt>
<trkpt lat="44.16718800" lon="5.81168000"><ele></ele><time>2014-5-10T1:48:38Z</time></trkpt>
<trkpt lat="44.16715200" lon="5.81138000"><ele></ele><time>2014-5-10T1:48:41Z</time></trkpt>
<trkpt lat="44.16711200" lon="5.81099700"><ele></ele><time>2014-5-10T1:48:44Z</time></trkpt>
<trkpt lat="44.16710900" lon="5.81092700"><ele></ele><time>2014-5-10T1:48:47Z</time></trkpt>
<trkpt lat="44.16714500" lon="5.81063600"><ele></ele><time>2014-5-10T1:48:50Z</time></trkpt>
<trkpt lat="44.16722800" lon="5.81035500"><ele></ele><time>2014-5-10T1:48:53Z</time></trkpt>
<trkpt lat="44.16726100" lon="5.81005300"><ele></ele><time>2014-5-10T1:48:56Z</time></trkpt>
<trkpt lat="44.16725800" lon="5.80989800"><ele></ele><time>2014-5-10T1:48:59Z</time></trkpt>
<trkpt lat="44.16719800" lon="5.80939200"><ele></ele><time>2014-5-10T1:49:2Z</time></trkpt>
<trkpt lat="44.16719600" lon="5.80932400"><ele></ele><time>2014-5-10T1:49:5Z</time></trkpt>
<trkpt lat="44.16722700" lon="5.80905400"><ele></ele><time>2014-5-10T1:49:8Z</time></trkpt>
<trkpt lat="44.16729100" lon="5.80877500"><ele></ele><time>2014-5-10T1:49:11Z</time></trkpt>
<trkpt lat="44.16731000" lon="5.80870600"><ele></ele><time>2014-5-10T1:49:14Z</time></trkpt>
<trkpt lat="44.16741100" lon="5.80826800"><ele></ele><time>2014-5-10T1:49:17Z</time></trkpt>
<trkpt lat="44.16748700" lon="5.80796500"><ele></ele><time>2014-5-10T1:49:20Z</time></trkpt>
<trkpt lat="44.16765400" lon="5.80711500"><ele></ele><time>2014-5-10T1:49:23Z</time></trkpt>
<trkpt lat="44.16770500" lon="5.80640100"><ele></ele><time>2014-5-10T1:49:26Z</time></trkpt>
<trkpt lat="44.16772100" lon="5.80569200"><ele></ele><time>2014-5-10T1:49:29Z</time></trkpt>
<trkpt lat="44.16773300" lon="5.80507900"><ele></ele><time>2014-5-10T1:49:32Z</time></trkpt>
<trkpt lat="44.16768700" lon="5.80449000"><ele></ele><time>2014-5-10T1:49:35Z</time></trkpt>
<trkpt lat="44.16766200" lon="5.80398400"><ele></ele><time>2014-5-10T1:49:38Z</time></trkpt>
<trkpt lat="44.16777100" lon="5.80327200"><ele></ele><time>2014-5-10T1:49:41Z</time></trkpt>
<trkpt lat="44.16777700" lon="5.80260500"><ele></ele><time>2014-5-10T1:49:44Z</time></trkpt>
<trkpt lat="44.16775200" lon="5.80192700"><ele></ele><time>2014-5-10T1:49:47Z</time></trkpt>
<trkpt lat="44.16770900" lon="5.80097500"><ele></ele><time>2014-5-10T1:49:50Z</time></trkpt>
<trkpt lat="44.16760300" lon="5.80020700"><ele></ele><time>2014-5-10T1:49:53Z</time></trkpt>
<trkpt lat="44.16754500" lon="5.79951200"><ele></ele><time>2014-5-10T1:49:56Z</time></trkpt>
<trkpt lat="44.16758100" lon="5.79888000"><ele></ele><time>2014-5-10T1:49:59Z</time></trkpt>
<trkpt lat="44.16758100" lon="5.79878600"><ele></ele><time>2014-5-10T1:50:2Z</time></trkpt>
<trkpt lat="44.16747700" lon="5.79823400"><ele></ele><time>2014-5-10T1:50:5Z</time></trkpt>
<trkpt lat="44.16739400" lon="5.79779700"><ele></ele><time>2014-5-10T1:50:8Z</time></trkpt>
<trkpt lat="44.16734500" lon="5.79696800"><ele></ele><time>2014-5-10T1:50:11Z</time></trkpt>
<trkpt lat="44.16734400" lon="5.79630300"><ele></ele><time>2014-5-10T1:50:14Z</time></trkpt>
<trkpt lat="44.16744300" lon="5.79573700"><ele></ele><time>2014-5-10T1:50:17Z</time></trkpt>
<trkpt lat="44.16750000" lon="5.79546800"><ele></ele><time>2014-5-10T1:50:20Z</time></trkpt>
<trkpt lat="44.16754300" lon="5.79505500"><ele></ele><time>2014-5-10T1:50:23Z</time></trkpt>
<trkpt lat="44.16748000" lon="5.79467700"><ele></ele><time>2014-5-10T1:50:26Z</time></trkpt>
<trkpt lat="44.16740200" lon="5.79426000"><ele></ele><time>2014-5-10T1:50:29Z</time></trkpt>
<trkpt lat="44.16733800" lon="5.79377100"><ele></ele><time>2014-5-10T1:50:32Z</time></trkpt>
<trkpt lat="44.16727900" lon="5.79350000"><ele></ele><time>2014-5-10T1:50:35Z</time></trkpt>
<trkpt lat="44.16717400" lon="5.79296000"><ele></ele><time>2014-5-10T1:50:38Z</time></trkpt>
<trkpt lat="44.16714800" lon="5.79270300"><ele></ele><time>2014-5-10T1:50:41Z</time></trkpt>
<trkpt lat="44.16710900" lon="5.79220600"><ele></ele><time>2014-5-10T1:50:44Z</time></trkpt>
<trkpt lat="44.16705800" lon="5.79181200"><ele></ele><time>2014-5-10T1:50:47Z</time></trkpt>
<trkpt lat="44.16698000" lon="5.79147400"><ele></ele><time>2014-5-10T1:50:50Z</time></trkpt>
<trkpt lat="44.16681700" lon="5.79116400"><ele></ele><time>2014-5-10T1:50:53Z</time></trkpt>
<trkpt lat="44.16669200" lon="5.79095200"><ele></ele><time>2014-5-10T1:50:56Z</time></trkpt>
<trkpt lat="44.16652600" lon="5.79058900"><ele></ele><time>2014-5-10T1:50:59Z</time></trkpt>
<trkpt lat="44.16645300" lon="5.79023700"><ele></ele><time>2014-5-10T1:51:2Z</time></trkpt>
<trkpt lat="44.16643000" lon="5.78998000"><ele></ele><time>2014-5-10T1:51:5Z</time></trkpt>
<trkpt lat="44.16639500" lon="5.78969500"><ele></ele><time>2014-5-10T1:51:8Z</time></trkpt>
<trkpt lat="44.16635700" lon="5.78933000"><ele></ele><time>2014-5-10T1:51:11Z</time></trkpt>
<trkpt lat="44.16627600" lon="5.78907600"><ele></ele><time>2014-5-10T1:51:14Z</time></trkpt>
<trkpt lat="44.16611500" lon="5.78886000"><ele></ele><time>2014-5-10T1:51:17Z</time></trkpt>
<trkpt lat="44.16580200" lon="5.78852800"><ele></ele><time>2014-5-10T1:51:20Z</time></trkpt>
<trkpt lat="44.16559400" lon="5.78820300"><ele></ele><time>2014-5-10T1:51:23Z</time></trkpt>
<trkpt lat="44.16549000" lon="5.78792400"><ele></ele><time>2014-5-10T1:51:26Z</time></trkpt>
<trkpt lat="44.16537000" lon="5.78758900"><ele></ele><time>2014-5-10T1:51:29Z</time></trkpt>
<trkpt lat="44.16527200" lon="5.78731400"><ele></ele><time>2014-5-10T1:51:32Z</time></trkpt>
<trkpt lat="44.16521600" lon="5.78687900"><ele></ele><time>2014-5-10T1:51:35Z</time></trkpt>
<trkpt lat="44.16522100" lon="5.78668500"><ele></ele><time>2014-5-10T1:51:38Z</time></trkpt>
<trkpt lat="44.16521100" lon="5.78649700"><ele></ele><time>2014-5-10T1:51:41Z</time></trkpt>
<trkpt lat="44.16517000" lon="5.78632000"><ele></ele><time>2014-5-10T1:51:44Z</time></trkpt>
<trkpt lat="44.16506300" lon="5.78585900"><ele></ele><time>2014-5-10T1:51:47Z</time></trkpt>
<trkpt lat="44.16507300" lon="5.78547800"><ele></ele><time>2014-5-10T1:51:50Z</time></trkpt>
<trkpt lat="44.16519600" lon="5.78466300"><ele></ele><time>2014-5-10T1:51:53Z</time></trkpt>
<trkpt lat="44.16517600" lon="5.78395200"><ele></ele><time>2014-5-10T1:51:56Z</time></trkpt>
<trkpt lat="44.16522600" lon="5.78338200"><ele></ele><time>2014-5-10T1:51:59Z</time></trkpt>
<trkpt lat="44.16535200" lon="5.78261400"><ele></ele><time>2014-5-10T1:52:2Z</time></trkpt>
<trkpt lat="44.16546200" lon="5.78202400"><ele></ele><time>2014-5-10T1:52:5Z</time></trkpt>
<trkpt lat="44.16556400" lon="5.78148600"><ele></ele><time>2014-5-10T1:52:8Z</time></trkpt>
<trkpt lat="44.16565300" lon="5.78103200"><ele></ele><time>2014-5-10T1:52:11Z</time></trkpt>
<trkpt lat="44.16564200" lon="5.78050700"><ele></ele><time>2014-5-10T1:52:14Z</time></trkpt>
<trkpt lat="44.16551500" lon="5.77977600"><ele></ele><time>2014-5-10T1:52:17Z</time></trkpt>
<trkpt lat="44.16535200" lon="5.77887000"><ele></ele><time>2014-5-10T1:52:20Z</time></trkpt>
<trkpt lat="44.16524200" lon="5.77828300"><ele></ele><time>2014-5-10T1:52:23Z</time></trkpt>
<trkpt lat="44.16509600" lon="5.77744000"><ele></ele><time>2014-5-10T1:52:26Z</time></trkpt>
<trkpt lat="44.16507500" lon="5.77701600"><ele></ele><time>2014-5-10T1:52:29Z</time></trkpt>
<trkpt lat="44.16519200" lon="5.77639000"><ele></ele><time>2014-5-10T1:52:32Z</time></trkpt>
<trkpt lat="44.16523800" lon="5.77584300"><ele></ele><time>2014-5-10T1:52:35Z</time></trkpt>
<trkpt lat="44.16525000" lon="5.77529900"><ele></ele><time>2014-5-10T1:52:38Z</time></trkpt>
<trkpt lat="44.16520200" lon="5.77469300"><ele></ele><time>2014-5-10T1:52:41Z</time></trkpt>
<trkpt lat="44.16510200" lon="5.77415100"><ele></ele><time>2014-5-10T1:52:44Z</time></trkpt>
<trkpt lat="44.16496300" lon="5.77371200"><ele></ele><time>2014-5-10T1:52:47Z</time></trkpt>
<trkpt lat="44.16487600" lon="5.77335500"><ele></ele><time>2014-5-10T1:52:50Z</time></trkpt>
<trkpt lat="44.16482000" lon="5.77305000"><ele></ele><time>2014-5-10T1:52:53Z</time></trkpt>
<trkpt lat="44.16477500" lon="5.77275400"><ele></ele><time>2014-5-10T1:52:56Z</time></trkpt>
<trkpt lat="44.16474500" lon="5.77251200"><ele></ele><time>2014-5-10T1:52:59Z</time></trkpt>
<trkpt lat="44.16471100" lon="5.77224500"><ele></ele><time>2014-5-10T1:53:2Z</time></trkpt>
<trkpt lat="44.16468600" lon="5.77198500"><ele></ele><time>2014-5-10T1:53:5Z</time></trkpt>
<trkpt lat="44.16469400" lon="5.77168000"><ele></ele><time>2014-5-10T1:53:8Z</time></trkpt>
<trkpt lat="44.16471800" lon="5.77127900"><ele></ele><time>2014-5-10T1:53:11Z</time></trkpt>
<trkpt lat="44.16473500" lon="5.77087100"><ele></ele><time>2014-5-10T1:53:14Z</time></trkpt>
<trkpt lat="44.16474700" lon="5.77041200"><ele></ele><time>2014-5-10T1:53:17Z</time></trkpt>
<trkpt lat="44.16480000" lon="5.76994200"><ele></ele><time>2014-5-10T1:53:20Z</time></trkpt>
<trkpt lat="44.16481500" lon="5.76982000"><ele></ele><time>2014-5-10T1:53:23Z</time></trkpt>
<trkpt lat="44.16492100" lon="5.76925900"><ele></ele><time>2014-5-10T1:53:26Z</time></trkpt>
<trkpt lat="44.16504300" lon="5.76882200"><ele></ele><time>2014-5-10T1:53:29Z</time></trkpt>
<trkpt lat="44.16521800" lon="5.76843500"><ele></ele><time>2014-5-10T1:53:32Z</time></trkpt>
<trkpt lat="44.16540300" lon="5.76810300"><ele></ele><time>2014-5-10T1:53:35Z</time></trkpt>
<trkpt lat="44.16558700" lon="5.76785400"><ele></ele><time>2014-5-10T1:53:38Z</time></trkpt>
<trkpt lat="44.16585000" lon="5.76756600"><ele></ele><time>2014-5-10T1:53:41Z</time></trkpt>
<trkpt lat="44.16600700" lon="5.76723800"><ele></ele><time>2014-5-10T1:53:44Z</time></trkpt>
<trkpt lat="44.16611400" lon="5.76686300"><ele></ele><time>2014-5-10T1:53:47Z</time></trkpt>
<trkpt lat="44.16628900" lon="5.76623000"><ele></ele><time>2014-5-10T1:53:50Z</time></trkpt>
<trkpt lat="44.16644300" lon="5.76576200"><ele></ele><time>2014-5-10T1:53:53Z</time></trkpt>
<trkpt lat="44.16652800" lon="5.76548800"><ele></ele><time>2014-5-10T1:53:56Z</time></trkpt>
<trkpt lat="44.16668900" lon="5.76519900"><ele></ele><time>2014-5-10T1:53:59Z</time></trkpt>
<trkpt lat="44.16676800" lon="5.76514200"><ele></ele><time>2014-5-10T1:54:2Z</time></trkpt>
<trkpt lat="44.16712200" lon="5.76493800"><ele></ele><time>2014-5-10T1:54:5Z</time></trkpt>
<trkpt lat="44.16716500" lon="5.76489800"><ele></ele><time>2014-5-10T1:54:8Z</time></trkpt>
<trkpt lat="44.16735700" lon="5.76452400"><ele></ele><time>2014-5-10T1:54:11Z</time></trkpt>
<trkpt lat="44.16737400" lon="5.76444400"><ele></ele><time>2014-5-10T1:54:14Z</time></trkpt>
<trkpt lat="44.16740700" lon="5.76425900"><ele></ele><time>2014-5-10T1:54:17Z</time></trkpt>
<trkpt lat="44.16752000" lon="5.76372600"><ele></ele><time>2014-5-10T1:54:20Z</time></trkpt>
<trkpt lat="44.16768300" lon="5.76326800"><ele></ele><time>2014-5-10T1:54:23Z</time></trkpt>
<trkpt lat="44.16770500" lon="5.76322200"><ele></ele><time>2014-5-10T1:54:26Z</time></trkpt>
<trkpt lat="44.16777300" lon="5.76301400"><ele></ele><time>2014-5-10T1:54:29Z</time></trkpt>
<trkpt lat="44.16784300" lon="5.76267400"><ele></ele><time>2014-5-10T1:54:32Z</time></trkpt>
<trkpt lat="44.16790600" lon="5.76224500"><ele></ele><time>2014-5-10T1:54:35Z</time></trkpt>
<trkpt lat="44.16798400" lon="5.76174000"><ele></ele><time>2014-5-10T1:54:38Z</time></trkpt>
<trkpt lat="44.16819800" lon="5.76129200"><ele></ele><time>2014-5-10T1:54:41Z</time></trkpt>
<trkpt lat="44.16862100" lon="5.76066900"><ele></ele><time>2014-5-10T1:54:44Z</time></trkpt>
<trkpt lat="44.16877400" lon="5.76044100"><ele></ele><time>2014-5-10T1:54:47Z</time></trkpt>
<trkpt lat="44.16895200" lon="5.75995800"><ele></ele><time>2014-5-10T1:54:50Z</time></trkpt>
<trkpt lat="44.16911300" lon="5.75942900"><ele></ele><time>2014-5-10T1:54:53Z</time></trkpt>
<trkpt lat="44.16921200" lon="5.75913000"><ele></ele><time>2014-5-10T1:54:56Z</time></trkpt>
<trkpt lat="44.16938600" lon="5.75865700"><ele></ele><time>2014-5-10T1:54:59Z</time></trkpt>
<trkpt lat="44.16956700" lon="5.75808600"><ele></ele><time>2014-5-10T1:55:2Z</time></trkpt>
<trkpt lat="44.16959300" lon="5.75794200"><ele></ele><time>2014-5-10T1:55:5Z</time></trkpt>
<trkpt lat="44.16961700" lon="5.75736300"><ele></ele><time>2014-5-10T1:55:8Z</time></trkpt>
<trkpt lat="44.16955900" lon="5.75683600"><ele></ele><time>2014-5-10T1:55:11Z</time></trkpt>
<trkpt lat="44.16948400" lon="5.75630200"><ele></ele><time>2014-5-10T1:55:14Z</time></trkpt>
<trkpt lat="44.16932800" lon="5.75578900"><ele></ele><time>2014-5-10T1:55:17Z</time></trkpt>
<trkpt lat="44.16912900" lon="5.75526700"><ele></ele><time>2014-5-10T1:55:20Z</time></trkpt>
<trkpt lat="44.16906800" lon="5.75503200"><ele></ele><time>2014-5-10T1:55:23Z</time></trkpt>
<trkpt lat="44.16897400" lon="5.75419400"><ele></ele><time>2014-5-10T1:55:26Z</time></trkpt>
<trkpt lat="44.16896300" lon="5.75351700"><ele></ele><time>2014-5-10T1:55:29Z</time></trkpt>
<trkpt lat="44.16894800" lon="5.75311500"><ele></ele><time>2014-5-10T1:55:32Z</time></trkpt>
<trkpt lat="44.16888500" lon="5.75263100"><ele></ele><time>2014-5-10T1:55:35Z</time></trkpt>
<trkpt lat="44.16879700" lon="5.75214700"><ele></ele><time>2014-5-10T1:55:38Z</time></trkpt>
<trkpt lat="44.16877400" lon="5.75202200"><ele></ele><time>2014-5-10T1:55:41Z</time></trkpt>
<trkpt lat="44.16862000" lon="5.75149900"><ele></ele><time>2014-5-10T1:55:44Z</time></trkpt>
<trkpt lat="44.16838300" lon="5.75099800"><ele></ele><time>2014-5-10T1:55:47Z</time></trkpt>
<trkpt lat="44.16833400" lon="5.75089900"><ele></ele><time>2014-5-10T1:55:50Z</time></trkpt>
<trkpt lat="44.16806000" lon="5.75052300"><ele></ele><time>2014-5-10T1:55:53Z</time></trkpt>
<trkpt lat="44.16779700" lon="5.75025200"><ele></ele><time>2014-5-10T1:55:56Z</time></trkpt>
<trkpt lat="44.16763000" lon="5.74991800"><ele></ele><time>2014-5-10T1:55:59Z</time></trkpt>
<trkpt lat="44.16751400" lon="5.74944600"><ele></ele><time>2014-5-10T1:56:2Z</time></trkpt>
<trkpt lat="44.16750700" lon="5.74897700"><ele></ele><time>2014-5-10T1:56:5Z</time></trkpt>
<trkpt lat="44.16752400" lon="5.74890500"><ele></ele><time>2014-5-10T1:56:8Z</time></trkpt>
<trkpt lat="44.16770500" lon="5.74830000"><ele></ele><time>2014-5-10T1:56:11Z</time></trkpt>
<trkpt lat="44.16784500" lon="5.74780900"><ele></ele><time>2014-5-10T1:56:14Z</time></trkpt>
<trkpt lat="44.16791600" lon="5.74752500"><ele></ele><time>2014-5-10T1:56:17Z</time></trkpt>
<trkpt lat="44.16799700" lon="5.74722100"><ele></ele><time>2014-5-10T1:56:20Z</time></trkpt>
<trkpt lat="44.16802400" lon="5.74686200"><ele></ele><time>2014-5-10T1:56:23Z</time></trkpt>
<trkpt lat="44.16803000" lon="5.74649000"><ele></ele><time>2014-5-10T1:56:26Z</time></trkpt>
<trkpt lat="44.16806500" lon="5.74617500"><ele></ele><time>2014-5-10T1:56:29Z</time></trkpt>
<trkpt lat="44.16810600" lon="5.74581000"><ele></ele><time>2014-5-10T1:56:32Z</time></trkpt>
<trkpt lat="44.16820500" lon="5.74545700"><ele></ele><time>2014-5-10T1:56:35Z</time></trkpt>
<trkpt lat="44.16834600" lon="5.74509100"><ele></ele><time>2014-5-10T1:56:38Z</time></trkpt>
<trkpt lat="44.16847200" lon="5.74481400"><ele></ele><time>2014-5-10T1:56:41Z</time></trkpt>
<trkpt lat="44.16866500" lon="5.74438300"><ele></ele><time>2014-5-10T1:56:44Z</time></trkpt>
<trkpt lat="44.16881400" lon="5.74406600"><ele></ele><time>2014-5-10T1:56:47Z</time></trkpt>
<trkpt lat="44.16913500" lon="5.74365400"><ele></ele><time>2014-5-10T1:56:50Z</time></trkpt>
<trkpt lat="44.16928100" lon="5.74349900"><ele></ele><time>2014-5-10T1:56:53Z</time></trkpt>
<trkpt lat="44.16935100" lon="5.74343400"><ele></ele><time>2014-5-10T1:56:56Z</time></trkpt>
<trkpt lat="44.16968300" lon="5.74304800"><ele></ele><time>2014-5-10T1:56:59Z</time></trkpt>
<trkpt lat="44.16975700" lon="5.74297200"><ele></ele><time>2014-5-10T1:57:2Z</time></trkpt>
<trkpt lat="44.17005900" lon="5.74265900"><ele></ele><time>2014-5-10T1:57:5Z</time></trkpt>
<trkpt lat="44.17028000" lon="5.74246100"><ele></ele><time>2014-5-10T1:57:8Z</time></trkpt>
<trkpt lat="44.17058000" lon="5.74221300"><ele></ele><time>2014-5-10T1:57:11Z</time></trkpt>
<trkpt lat="44.17079700" lon="5.74197600"><ele></ele><time>2014-5-10T1:57:14Z</time></trkpt>
<trkpt lat="44.17104800" lon="5.74160100"><ele></ele><time>2014-5-10T1:57:17Z</time></trkpt>
<trkpt lat="44.17116400" lon="5.74145700"><ele></ele><time>2014-5-10T1:57:20Z</time></trkpt>
<trkpt lat="44.17130900" lon="5.74125400"><ele></ele><time>2014-5-10T1:57:23Z</time></trkpt>
<trkpt lat="44.17141700" lon="5.74100800"><ele></ele><time>2014-5-10T1:57:26Z</time></trkpt>
<trkpt lat="44.17152400" lon="5.74058500"><ele></ele><time>2014-5-10T1:57:29Z</time></trkpt>
<trkpt lat="44.17153000" lon="5.74053000"><ele></ele><time>2014-5-10T1:57:32Z</time></trkpt>
<trkpt lat="44.17154900" lon="5.74013400"><ele></ele><time>2014-5-10T1:57:35Z</time></trkpt>
<trkpt lat="44.17155600" lon="5.73971300"><ele></ele><time>2014-5-10T1:57:38Z</time></trkpt>
<trkpt lat="44.17155600" lon="5.73965400"><ele></ele><time>2014-5-10T1:57:41Z</time></trkpt>
<trkpt lat="44.17158900" lon="5.73925900"><ele></ele><time>2014-5-10T1:57:44Z</time></trkpt>
<trkpt lat="44.17170200" lon="5.73871900"><ele></ele><time>2014-5-10T1:57:47Z</time></trkpt>
<trkpt lat="44.17171800" lon="5.73859700"><ele></ele><time>2014-5-10T1:57:50Z</time></trkpt>
<trkpt lat="44.17180400" lon="5.73823100"><ele></ele><time>2014-5-10T1:57:53Z</time></trkpt>
<trkpt lat="44.17190700" lon="5.73792400"><ele></ele><time>2014-5-10T1:57:56Z</time></trkpt>
<trkpt lat="44.17208300" lon="5.73744300"><ele></ele><time>2014-5-10T1:57:59Z</time></trkpt>
<trkpt lat="44.17222600" lon="5.73705300"><ele></ele><time>2014-5-10T1:58:2Z</time></trkpt>
<trkpt lat="44.17240700" lon="5.73647600"><ele></ele><time>2014-5-10T1:58:5Z</time></trkpt>
<trkpt lat="44.17248700" lon="5.73588500"><ele></ele><time>2014-5-10T1:58:8Z</time></trkpt>
<trkpt lat="44.17263400" lon="5.73526000"><ele></ele><time>2014-5-10T1:58:11Z</time></trkpt>
<trkpt lat="44.17282600" lon="5.73466800"><ele></ele><time>2014-5-10T1:58:14Z</time></trkpt>
<trkpt lat="44.17293300" lon="5.73397500"><ele></ele><time>2014-5-10T1:58:17Z</time></trkpt>
<trkpt lat="44.17299300" lon="5.73321300"><ele></ele><time>2014-5-10T1:58:20Z</time></trkpt>
<trkpt lat="44.17302200" lon="5.73269900"><ele></ele><time>2014-5-10T1:58:23Z</time></trkpt>
<trkpt lat="44.17308900" lon="5.73210300"><ele></ele><time>2014-5-10T1:58:26Z</time></trkpt>
<trkpt lat="44.17319700" lon="5.73142500"><ele></ele><time>2014-5-10T1:58:29Z</time></trkpt>
<trkpt lat="44.17330100" lon="5.73083900"><ele></ele><time>2014-5-10T1:58:32Z</time></trkpt>
<trkpt lat="44.17342800" lon="5.73040000"><ele></ele><time>2014-5-10T1:58:35Z</time></trkpt>
<trkpt lat="44.17356300" lon="5.73002000"><ele></ele><time>2014-5-10T1:58:38Z</time></trkpt>
<trkpt lat="44.17359100" lon="5.72991400"><ele></ele><time>2014-5-10T1:58:41Z</time></trkpt>
<trkpt lat="44.17359900" lon="5.72948400"><ele></ele><time>2014-5-10T1:58:44Z</time></trkpt>
<trkpt lat="44.17355900" lon="5.72899300"><ele></ele><time>2014-5-10T1:58:47Z</time></trkpt>
<trkpt lat="44.17355000" lon="5.72864900"><ele></ele><time>2014-5-10T1:58:50Z</time></trkpt>
<trkpt lat="44.17353200" lon="5.72819500"><ele></ele><time>2014-5-10T1:58:53Z</time></trkpt>
<trkpt lat="44.17347900" lon="5.72788900"><ele></ele><time>2014-5-10T1:58:56Z</time></trkpt>
<trkpt lat="44.17335500" lon="5.72742800"><ele></ele><time>2014-5-10T1:58:59Z</time></trkpt>
<trkpt lat="44.17328000" lon="5.72711100"><ele></ele><time>2014-5-10T1:59:2Z</time></trkpt>
<trkpt lat="44.17321700" lon="5.72683500"><ele></ele><time>2014-5-10T1:59:5Z</time></trkpt>
<trkpt lat="44.17313200" lon="5.72636800"><ele></ele><time>2014-5-10T1:59:8Z</time></trkpt>
<trkpt lat="44.17305200" lon="5.72588000"><ele></ele><time>2014-5-10T1:59:11Z</time></trkpt>
<trkpt lat="44.17306500" lon="5.72551100"><ele></ele><time>2014-5-10T1:59:14Z</time></trkpt>
<trkpt lat="44.17311000" lon="5.72536400"><ele></ele><time>2014-5-10T1:59:17Z</time></trkpt>
<trkpt lat="44.17323900" lon="5.72488400"><ele></ele><time>2014-5-10T1:59:20Z</time></trkpt>
<trkpt lat="44.17326600" lon="5.72461800"><ele></ele><time>2014-5-10T1:59:23Z</time></trkpt>
<trkpt lat="44.17326700" lon="5.72409900"><ele></ele><time>2014-5-10T1:59:26Z</time></trkpt>
<trkpt lat="44.17328500" lon="5.72353200"><ele></ele><time>2014-5-10T1:59:29Z</time></trkpt>
<trkpt lat="44.17328700" lon="5.72346700"><ele></ele><time>2014-5-10T1:59:32Z</time></trkpt>
<trkpt lat="44.17322700" lon="5.72289300"><ele></ele><time>2014-5-10T1:59:35Z</time></trkpt>
<trkpt lat="44.17319100" lon="5.72219000"><ele></ele><time>2014-5-10T1:59:38Z</time></trkpt>
<trkpt lat="44.17328700" lon="5.72164100"><ele></ele><time>2014-5-10T1:59:41Z</time></trkpt>
<trkpt lat="44.17340700" lon="5.72090900"><ele></ele><time>2014-5-10T1:59:44Z</time></trkpt>
<trkpt lat="44.17352900" lon="5.72018600"><ele></ele><time>2014-5-10T1:59:47Z</time></trkpt>
<trkpt lat="44.17367000" lon="5.71943500"><ele></ele><time>2014-5-10T1:59:50Z</time></trkpt>
<trkpt lat="44.17379500" lon="5.71876400"><ele></ele><time>2014-5-10T1:59:53Z</time></trkpt>
<trkpt lat="44.17391700" lon="5.71838500"><ele></ele><time>2014-5-10T1:59:56Z</time></trkpt>
<trkpt lat="44.17401600" lon="5.71803500"><ele></ele><time>2014-5-10T1:59:59Z</time></trkpt>
<trkpt lat="44.17408700" lon="5.71750600"><ele></ele><time>2014-5-10T2:0:2Z</time></trkpt>
<trkpt lat="44.17413700" lon="5.71707200"><ele></ele><time>2014-5-10T2:0:5Z</time></trkpt>
<trkpt lat="44.17426700" lon="5.71659600"><ele></ele><time>2014-5-10T2:0:8Z</time></trkpt>
<trkpt lat="44.17444500" lon="5.71617100"><ele></ele><time>2014-5-10T2:0:11Z</time></trkpt>
<trkpt lat="44.17467800" lon="5.71565600"><ele></ele><time>2014-5-10T2:0:14Z</time></trkpt>
<trkpt lat="44.17470500" lon="5.71558600"><ele></ele><time>2014-5-10T2:0:17Z</time></trkpt>
<trkpt lat="44.17483400" lon="5.71505200"><ele></ele><time>2014-5-10T2:0:20Z</time></trkpt>
<trkpt lat="44.17500200" lon="5.71404500"><ele></ele><time>2014-5-10T2:0:23Z</time></trkpt>
<trkpt lat="44.17512000" lon="5.71329700"><ele></ele><time>2014-5-10T2:0:26Z</time></trkpt>
<trkpt lat="44.17529100" lon="5.71254000"><ele></ele><time>2014-5-10T2:0:29Z</time></trkpt>
<trkpt lat="44.17543900" lon="5.71198400"><ele></ele><time>2014-5-10T2:0:32Z</time></trkpt>
<trkpt lat="44.17556000" lon="5.71152900"><ele></ele><time>2014-5-10T2:0:35Z</time></trkpt>
<trkpt lat="44.17569600" lon="5.71115400"><ele></ele><time>2014-5-10T2:0:38Z</time></trkpt>
<trkpt lat="44.17582900" lon="5.71081000"><ele></ele><time>2014-5-10T2:0:41Z</time></trkpt>
<trkpt lat="44.17598600" lon="5.71032800"><ele></ele><time>2014-5-10T2:0:44Z</time></trkpt>
<trkpt lat="44.17609100" lon="5.70992600"><ele></ele><time>2014-5-10T2:0:47Z</time></trkpt>
<trkpt lat="44.17611900" lon="5.70948200"><ele></ele><time>2014-5-10T2:0:50Z</time></trkpt>
<trkpt lat="44.17615300" lon="5.70904600"><ele></ele><time>2014-5-10T2:0:53Z</time></trkpt>
<trkpt lat="44.17622500" lon="5.70871200"><ele></ele><time>2014-5-10T2:0:56Z</time></trkpt>
<trkpt lat="44.17630600" lon="5.70830700"><ele></ele><time>2014-5-10T2:0:59Z</time></trkpt>
<trkpt lat="44.17629600" lon="5.70808400"><ele></ele><time>2014-5-10T2:1:2Z</time></trkpt>
<trkpt lat="44.17614400" lon="5.70767500"><ele></ele><time>2014-5-10T2:1:5Z</time></trkpt>
<trkpt lat="44.17592200" lon="5.70731000"><ele></ele><time>2014-5-10T2:1:8Z</time></trkpt>
<trkpt lat="44.17575900" lon="5.70714600"><ele></ele><time>2014-5-10T2:1:11Z</time></trkpt>
<trkpt lat="44.17564500" lon="5.70707900"><ele></ele><time>2014-5-10T2:1:14Z</time></trkpt>
<trkpt lat="44.17538100" lon="5.70689900"><ele></ele><time>2014-5-10T2:1:17Z</time></trkpt>
<trkpt lat="44.17520500" lon="5.70669600"><ele></ele><time>2014-5-10T2:1:20Z</time></trkpt>
<trkpt lat="44.17508200" lon="5.70647400"><ele></ele><time>2014-5-10T2:1:23Z</time></trkpt>
<trkpt lat="44.17493500" lon="5.70615000"><ele></ele><time>2014-5-10T2:1:26Z</time></trkpt>
<trkpt lat="44.17476000" lon="5.70572400"><ele></ele><time>2014-5-10T2:1:29Z</time></trkpt>
<trkpt lat="44.17468500" lon="5.70544500"><ele></ele><time>2014-5-10T2:1:32Z</time></trkpt>
<trkpt lat="44.17469300" lon="5.70512200"><ele></ele><time>2014-5-10T2:1:35Z</time></trkpt>
<trkpt lat="44.17472200" lon="5.70467200"><ele></ele><time>2014-5-10T2:1:38Z</time></trkpt>
<trkpt lat="44.17476600" lon="5.70425300"><ele></ele><time>2014-5-10T2:1:41Z</time></trkpt>
<trkpt lat="44.17486100" lon="5.70378900"><ele></ele><time>2014-5-10T2:1:44Z</time></trkpt>
<trkpt lat="44.17488400" lon="5.70339700"><ele></ele><time>2014-5-10T2:1:47Z</time></trkpt>
<trkpt lat="44.17489500" lon="5.70300100"><ele></ele><time>2014-5-10T2:1:50Z</time></trkpt>
<trkpt lat="44.17496000" lon="5.70254200"><ele></ele><time>2014-5-10T2:1:53Z</time></trkpt>
<trkpt lat="44.17504600" lon="5.70208500"><ele></ele><time>2014-5-10T2:1:56Z</time></trkpt>
<trkpt lat="44.17509600" lon="5.70176300"><ele></ele><time>2014-5-10T2:1:59Z</time></trkpt>
<trkpt lat="44.17512300" lon="5.70143900"><ele></ele><time>2014-5-10T2:2:2Z</time></trkpt>
<trkpt lat="44.17511900" lon="5.70109600"><ele></ele><time>2014-5-10T2:2:5Z</time></trkpt>
<trkpt lat="44.17508500" lon="5.70079200"><ele></ele><time>2014-5-10T2:2:8Z</time></trkpt>
<trkpt lat="44.17496100" lon="5.70038300"><ele></ele><time>2014-5-10T2:2:11Z</time></trkpt>
<trkpt lat="44.17489700" lon="5.70024700"><ele></ele><time>2014-5-10T2:2:14Z</time></trkpt>
<trkpt lat="44.17472300" lon="5.69998900"><ele></ele><time>2014-5-10T2:2:17Z</time></trkpt>
<trkpt lat="44.17431400" lon="5.69956500"><ele></ele><time>2014-5-10T2:2:20Z</time></trkpt>
<trkpt lat="44.17403100" lon="5.69919900"><ele></ele><time>2014-5-10T2:2:23Z</time></trkpt>
<trkpt lat="44.17397800" lon="5.69907100"><ele></ele><time>2014-5-10T2:2:26Z</time></trkpt>
<trkpt lat="44.17390900" lon="5.69873800"><ele></ele><time>2014-5-10T2:2:29Z</time></trkpt>
<trkpt lat="44.17388700" lon="5.69838200"><ele></ele><time>2014-5-10T2:2:32Z</time></trkpt>
<trkpt lat="44.17390300" lon="5.69793800"><ele></ele><time>2014-5-10T2:2:35Z</time></trkpt>
<trkpt lat="44.17393300" lon="5.69760900"><ele></ele><time>2014-5-10T2:2:38Z</time></trkpt>
<trkpt lat="44.17398800" lon="5.69723200"><ele></ele><time>2014-5-10T2:2:41Z</time></trkpt>
<trkpt lat="44.17399200" lon="5.69679400"><ele></ele><time>2014-5-10T2:2:44Z</time></trkpt>
<trkpt lat="44.17395300" lon="5.69631700"><ele></ele><time>2014-5-10T2:2:47Z</time></trkpt>
<trkpt lat="44.17389100" lon="5.69566700"><ele></ele><time>2014-5-10T2:2:50Z</time></trkpt>
<trkpt lat="44.17394900" lon="5.69515000"><ele></ele><time>2014-5-10T2:2:53Z</time></trkpt>
<trkpt lat="44.17407400" lon="5.69475000"><ele></ele><time>2014-5-10T2:2:56Z</time></trkpt>
<trkpt lat="44.17423700" lon="5.69419000"><ele></ele><time>2014-5-10T2:2:59Z</time></trkpt>
<trkpt lat="44.17439600" lon="5.69348900"><ele></ele><time>2014-5-10T2:3:2Z</time></trkpt>
<trkpt lat="44.17446800" lon="5.69291200"><ele></ele><time>2014-5-10T2:3:5Z</time></trkpt>
<trkpt lat="44.17451700" lon="5.69217400"><ele></ele><time>2014-5-10T2:3:8Z</time></trkpt>
<trkpt lat="44.17454300" lon="5.69149000"><ele></ele><time>2014-5-10T2:3:11Z</time></trkpt>
<trkpt lat="44.17460300" lon="5.69070600"><ele></ele><time>2014-5-10T2:3:14Z</time></trkpt>
<trkpt lat="44.17466300" lon="5.68993100"><ele></ele><time>2014-5-10T2:3:17Z</time></trkpt>
<trkpt lat="44.17471400" lon="5.68944200"><ele></ele><time>2014-5-10T2:3:20Z</time></trkpt>
<trkpt lat="44.17476000" lon="5.68883800"><ele></ele><time>2014-5-10T2:3:23Z</time></trkpt>
<trkpt lat="44.17480000" lon="5.68808700"><ele></ele><time>2014-5-10T2:3:26Z</time></trkpt>
<trkpt lat="44.17487800" lon="5.68710500"><ele></ele><time>2014-5-10T2:3:29Z</time></trkpt>
<trkpt lat="44.17492300" lon="5.68644300"><ele></ele><time>2014-5-10T2:3:32Z</time></trkpt>
<trkpt lat="44.17493900" lon="5.68607300"><ele></ele><time>2014-5-10T2:3:35Z</time></trkpt>
<trkpt lat="44.17497300" lon="5.68555900"><ele></ele><time>2014-5-10T2:3:38Z</time></trkpt>
<trkpt lat="44.17500500" lon="5.68507100"><ele></ele><time>2014-5-10T2:3:41Z</time></trkpt>
<trkpt lat="44.17502900" lon="5.68465300"><ele></ele><time>2014-5-10T2:3:44Z</time></trkpt>
<trkpt lat="44.17502300" lon="5.68442100"><ele></ele><time>2014-5-10T2:3:47Z</time></trkpt>
<trkpt lat="44.17496600" lon="5.68429200"><ele></ele><time>2014-5-10T2:3:50Z</time></trkpt>
<trkpt lat="44.17488800" lon="5.68415700"><ele></ele><time>2014-5-10T2:3:53Z</time></trkpt>
<trkpt lat="44.17481300" lon="5.68384500"><ele></ele><time>2014-5-10T2:3:56Z</time></trkpt>
<trkpt lat="44.17479300" lon="5.68346000"><ele></ele><time>2014-5-10T2:3:59Z</time></trkpt>
<trkpt lat="44.17477300" lon="5.68293000"><ele></ele><time>2014-5-10T2:4:2Z</time></trkpt>
<trkpt lat="44.17476400" lon="5.68236500"><ele></ele><time>2014-5-10T2:4:5Z</time></trkpt>
<trkpt lat="44.17475100" lon="5.68205200"><ele></ele><time>2014-5-10T2:4:8Z</time></trkpt>
<trkpt lat="44.17473500" lon="5.68173200"><ele></ele><time>2014-5-10T2:4:11Z</time></trkpt>
<trkpt lat="44.17473400" lon="5.68155700"><ele></ele><time>2014-5-10T2:4:14Z</time></trkpt>
<trkpt lat="44.17472500" lon="5.68120800"><ele></ele><time>2014-5-10T2:4:17Z</time></trkpt>
<trkpt lat="44.17471400" lon="5.68093600"><ele></ele><time>2014-5-10T2:4:20Z</time></trkpt>
<trkpt lat="44.17470700" lon="5.68030600"><ele></ele><time>2014-5-10T2:4:23Z</time></trkpt>
<trkpt lat="44.17474900" lon="5.67980100"><ele></ele><time>2014-5-10T2:4:26Z</time></trkpt>
<trkpt lat="44.17473800" lon="5.67957100"><ele></ele><time>2014-5-10T2:4:29Z</time></trkpt>
<trkpt lat="44.17458700" lon="5.67901200"><ele></ele><time>2014-5-10T2:4:32Z</time></trkpt>
<trkpt lat="44.17448600" lon="5.67868800"><ele></ele><time>2014-5-10T2:4:35Z</time></trkpt>
<trkpt lat="44.17434500" lon="5.67833000"><ele></ele><time>2014-5-10T2:4:38Z</time></trkpt>
<trkpt lat="44.17415400" lon="5.67800000"><ele></ele><time>2014-5-10T2:4:41Z</time></trkpt>
<trkpt lat="44.17402500" lon="5.67774200"><ele></ele><time>2014-5-10T2:4:44Z</time></trkpt>
<trkpt lat="44.17392700" lon="5.67728200"><ele></ele><time>2014-5-10T2:4:47Z</time></trkpt>
<trkpt lat="44.17392000" lon="5.67701600"><ele></ele><time>2014-5-10T2:4:50Z</time></trkpt>
<trkpt lat="44.17399600" lon="5.67676000"><ele></ele><time>2014-5-10T2:4:53Z</time></trkpt>
<trkpt lat="44.17431300" lon="5.67628200"><ele></ele><time>2014-5-10T2:4:56Z</time></trkpt>
<trkpt lat="44.17446500" lon="5.67606300"><ele></ele><time>2014-5-10T2:4:59Z</time></trkpt>
<trkpt lat="44.17471800" lon="5.67566500"><ele></ele><time>2014-5-10T2:5:2Z</time></trkpt>
<trkpt lat="44.17508500" lon="5.67527600"><ele></ele><time>2014-5-10T2:5:5Z</time></trkpt>
<trkpt lat="44.17534800" lon="5.67496500"><ele></ele><time>2014-5-10T2:5:8Z</time></trkpt>
<trkpt lat="44.17555100" lon="5.67457600"><ele></ele><time>2014-5-10T2:5:11Z</time></trkpt>
<trkpt lat="44.17563100" lon="5.67419500"><ele></ele><time>2014-5-10T2:5:14Z</time></trkpt>
<trkpt lat="44.17571500" lon="5.67370900"><ele></ele><time>2014-5-10T2:5:17Z</time></trkpt>
<trkpt lat="44.17584000" lon="5.67331700"><ele></ele><time>2014-5-10T2:5:20Z</time></trkpt>
<trkpt lat="44.17604200" lon="5.67281900"><ele></ele><time>2014-5-10T2:5:23Z</time></trkpt>
<trkpt lat="44.17612800" lon="5.67241500"><ele></ele><time>2014-5-10T2:5:26Z</time></trkpt>
<trkpt lat="44.17622400" lon="5.67196400"><ele></ele><time>2014-5-10T2:5:29Z</time></trkpt>
<trkpt lat="44.17638200" lon="5.67159600"><ele></ele><time>2014-5-10T2:5:32Z</time></trkpt>
<trkpt lat="44.17658800" lon="5.67131800"><ele></ele><time>2014-5-10T2:5:35Z</time></trkpt>
<trkpt lat="44.17681900" lon="5.67111500"><ele></ele><time>2014-5-10T2:5:38Z</time></trkpt>
<trkpt lat="44.17703400" lon="5.67087500"><ele></ele><time>2014-5-10T2:5:41Z</time></trkpt>
<trkpt lat="44.17717300" lon="5.67053100"><ele></ele><time>2014-5-10T2:5:44Z</time></trkpt>
<trkpt lat="44.17722400" lon="5.67019900"><ele></ele><time>2014-5-10T2:5:47Z</time></trkpt>
<trkpt lat="44.17722500" lon="5.66968500"><ele></ele><time>2014-5-10T2:5:50Z</time></trkpt>
<trkpt lat="44.17730900" lon="5.66944600"><ele></ele><time>2014-5-10T2:5:53Z</time></trkpt>
<trkpt lat="44.17746600" lon="5.66912800"><ele></ele><time>2014-5-10T2:5:56Z</time></trkpt>
<trkpt lat="44.17753400" lon="5.66873300"><ele></ele><time>2014-5-10T2:5:59Z</time></trkpt>
<trkpt lat="44.17758300" lon="5.66846500"><ele></ele><time>2014-5-10T2:6:2Z</time></trkpt>
<trkpt lat="44.17763200" lon="5.66784100"><ele></ele><time>2014-5-10T2:6:5Z</time></trkpt>
<trkpt lat="44.17765000" lon="5.66715800"><ele></ele><time>2014-5-10T2:6:8Z</time></trkpt>
<trkpt lat="44.17768800" lon="5.66672000"><ele></ele><time>2014-5-10T2:6:11Z</time></trkpt>
<trkpt lat="44.17764800" lon="5.66641500"><ele></ele><time>2014-5-10T2:6:14Z</time></trkpt>
<trkpt lat="44.17762000" lon="5.66599800"><ele></ele><time>2014-5-10T2:6:17Z</time></trkpt>
<trkpt lat="44.17763300" lon="5.66553700"><ele></ele><time>2014-5-10T2:6:20Z</time></trkpt>
<trkpt lat="44.17766600" lon="5.66508100"><ele></ele><time>2014-5-10T2:6:23Z</time></trkpt>
<trkpt lat="44.17775700" lon="5.66472700"><ele></ele><time>2014-5-10T2:6:26Z</time></trkpt>
<trkpt lat="44.17790600" lon="5.66438000"><ele></ele><time>2014-5-10T2:6:29Z</time></trkpt>
<trkpt lat="44.17791100" lon="5.66422600"><ele></ele><time>2014-5-10T2:6:32Z</time></trkpt>
<trkpt lat="44.17777100" lon="5.66402200"><ele></ele><time>2014-5-10T2:6:35Z</time></trkpt>
<trkpt lat="44.17768700" lon="5.66400100"><ele></ele><time>2014-5-10T2:6:38Z</time></trkpt>
<trkpt lat="44.17760100" lon="5.66399200"><ele></ele><time>2014-5-10T2:6:41Z</time></trkpt>
<trkpt lat="44.17746300" lon="5.66384900"><ele></ele><time>2014-5-10T2:6:44Z</time></trkpt>
<trkpt lat="44.17745000" lon="5.66366900"><ele></ele><time>2014-5-10T2:6:47Z</time></trkpt>
<trkpt lat="44.17755000" lon="5.66322500"><ele></ele><time>2014-5-10T2:6:50Z</time></trkpt>
<trkpt lat="44.17768900" lon="5.66282200"><ele></ele><time>2014-5-10T2:6:53Z</time></trkpt>
<trkpt lat="44.17770000" lon="5.66256200"><ele></ele><time>2014-5-10T2:6:56Z</time></trkpt>
<trkpt lat="44.17768300" lon="5.66250900"><ele></ele><time>2014-5-10T2:6:59Z</time></trkpt>
<trkpt lat="44.17752300" lon="5.66233900"><ele></ele><time>2014-5-10T2:7:2Z</time></trkpt>
<trkpt lat="44.17748400" lon="5.66233300"><ele></ele><time>2014-5-10T2:7:5Z</time></trkpt>
<trkpt lat="44.17721900" lon="5.66225300"><ele></ele><time>2014-5-10T2:7:8Z</time></trkpt>
<trkpt lat="44.17708100" lon="5.66202900"><ele></ele><time>2014-5-10T2:7:11Z</time></trkpt>
<trkpt lat="44.17704100" lon="5.66175600"><ele></ele><time>2014-5-10T2:7:14Z</time></trkpt>
<trkpt lat="44.17709000" lon="5.66143800"><ele></ele><time>2014-5-10T2:7:17Z</time></trkpt>
<trkpt lat="44.17704500" lon="5.66124400"><ele></ele><time>2014-5-10T2:7:20Z</time></trkpt>
<trkpt lat="44.17687100" lon="5.66090400"><ele></ele><time>2014-5-10T2:7:23Z</time></trkpt>
<trkpt lat="44.17676400" lon="5.66061900"><ele></ele><time>2014-5-10T2:7:26Z</time></trkpt>
<trkpt lat="44.17666200" lon="5.66016200"><ele></ele><time>2014-5-10T2:7:29Z</time></trkpt>
<trkpt lat="44.17665900" lon="5.66010600"><ele></ele><time>2014-5-10T2:7:32Z</time></trkpt>
<trkpt lat="44.17670000" lon="5.65967100"><ele></ele><time>2014-5-10T2:7:35Z</time></trkpt>
<trkpt lat="44.17667200" lon="5.65939100"><ele></ele><time>2014-5-10T2:7:38Z</time></trkpt>
<trkpt lat="44.17658700" lon="5.65911900"><ele></ele><time>2014-5-10T2:7:41Z</time></trkpt>
<trkpt lat="44.17634100" lon="5.65878400"><ele></ele><time>2014-5-10T2:7:44Z</time></trkpt>
<trkpt lat="44.17627300" lon="5.65870700"><ele></ele><time>2014-5-10T2:7:47Z</time></trkpt>
<trkpt lat="44.17613700" lon="5.65838000"><ele></ele><time>2014-5-10T2:7:50Z</time></trkpt>
<trkpt lat="44.17612700" lon="5.65826000"><ele></ele><time>2014-5-10T2:7:53Z</time></trkpt>
<trkpt lat="44.17612600" lon="5.65786700"><ele></ele><time>2014-5-10T2:7:56Z</time></trkpt>
<trkpt lat="44.17613000" lon="5.65769600"><ele></ele><time>2014-5-10T2:7:59Z</time></trkpt>
<trkpt lat="44.17613100" lon="5.65762900"><ele></ele><time>2014-5-10T2:8:2Z</time></trkpt>
<trkpt lat="44.17614300" lon="5.65761600"><ele></ele><time>2014-5-10T2:8:5Z</time></trkpt>
<trkpt lat="44.17614100" lon="5.65763100"><ele></ele><time>2014-5-10T2:8:8Z</time></trkpt>
<trkpt lat="44.17614000" lon="5.65762100"><ele></ele><time>2014-5-10T2:8:11Z</time></trkpt>
<trkpt lat="44.17612600" lon="5.65755500"><ele></ele><time>2014-5-10T2:8:14Z</time></trkpt>
<trkpt lat="44.17612800" lon="5.65742700"><ele></ele><time>2014-5-10T2:8:17Z</time></trkpt>
<trkpt lat="44.17613300" lon="5.65723200"><ele></ele><time>2014-5-10T2:8:20Z</time></trkpt>
<trkpt lat="44.17613700" lon="5.65683600"><ele></ele><time>2014-5-10T2:8:23Z</time></trkpt>
<trkpt lat="44.17612300" lon="5.65645700"><ele></ele><time>2014-5-10T2:8:26Z</time></trkpt>
<trkpt lat="44.17605400" lon="5.65607100"><ele></ele><time>2014-5-10T2:8:29Z</time></trkpt>
<trkpt lat="44.17596300" lon="5.65554200"><ele></ele><time>2014-5-10T2:8:32Z</time></trkpt>
<trkpt lat="44.17589700" lon="5.65506700"><ele></ele><time>2014-5-10T2:8:35Z</time></trkpt>
<trkpt lat="44.17585200" lon="5.65443700"><ele></ele><time>2014-5-10T2:8:38Z</time></trkpt>
<trkpt lat="44.17578600" lon="5.65396300"><ele></ele><time>2014-5-10T2:8:41Z</time></trkpt>
<trkpt lat="44.17577500" lon="5.65388500"><ele></ele><time>2014-5-10T2:8:44Z</time></trkpt>
<trkpt lat="44.17580400" lon="5.65338000"><ele></ele><time>2014-5-10T2:8:47Z</time></trkpt>
<trkpt lat="44.17583500" lon="5.65273500"><ele></ele><time>2014-5-10T2:8:50Z</time></trkpt>
<trkpt lat="44.17587000" lon="5.65226600"><ele></ele><time>2014-5-10T2:8:53Z</time></trkpt>
<trkpt lat="44.17599200" lon="5.65193300"><ele></ele><time>2014-5-10T2:8:56Z</time></trkpt>
<trkpt lat="44.17612300" lon="5.65150400"><ele></ele><time>2014-5-10T2:8:59Z</time></trkpt>
<trkpt lat="44.17607000" lon="5.65112700"><ele></ele><time>2014-5-10T2:9:2Z</time></trkpt>
<trkpt lat="44.17604400" lon="5.65103700"><ele></ele><time>2014-5-10T2:9:5Z</time></trkpt>
<trkpt lat="44.17591300" lon="5.65068200"><ele></ele><time>2014-5-10T2:9:8Z</time></trkpt>
<trkpt lat="44.17585200" lon="5.65018000"><ele></ele><time>2014-5-10T2:9:11Z</time></trkpt>
<trkpt lat="44.17595300" lon="5.64978400"><ele></ele><time>2014-5-10T2:9:14Z</time></trkpt>
<trkpt lat="44.17599700" lon="5.64969700"><ele></ele><time>2014-5-10T2:9:17Z</time></trkpt>
<trkpt lat="44.17625100" lon="5.64919900"><ele></ele><time>2014-5-10T2:9:20Z</time></trkpt>
<trkpt lat="44.17631000" lon="5.64880900"><ele></ele><time>2014-5-10T2:9:23Z</time></trkpt>
<trkpt lat="44.17627800" lon="5.64860700"><ele></ele><time>2014-5-10T2:9:26Z</time></trkpt>
<trkpt lat="44.17620900" lon="5.64809400"><ele></ele><time>2014-5-10T2:9:29Z</time></trkpt>
<trkpt lat="44.17622400" lon="5.64737500"><ele></ele><time>2014-5-10T2:9:32Z</time></trkpt>
<trkpt lat="44.17616900" lon="5.64688800"><ele></ele><time>2014-5-10T2:9:35Z</time></trkpt>
<trkpt lat="44.17597700" lon="5.64593400"><ele></ele><time>2014-5-10T2:9:38Z</time></trkpt>
<trkpt lat="44.17574200" lon="5.64529900"><ele></ele><time>2014-5-10T2:9:41Z</time></trkpt>
<trkpt lat="44.17563700" lon="5.64491100"><ele></ele><time>2014-5-10T2:9:44Z</time></trkpt>
<trkpt lat="44.17557800" lon="5.64421400"><ele></ele><time>2014-5-10T2:9:47Z</time></trkpt>
<trkpt lat="44.17551300" lon="5.64332300"><ele></ele><time>2014-5-10T2:9:50Z</time></trkpt>
<trkpt lat="44.17546100" lon="5.64275800"><ele></ele><time>2014-5-10T2:9:53Z</time></trkpt>
<trkpt lat="44.17542900" lon="5.64232500"><ele></ele><time>2014-5-10T2:9:56Z</time></trkpt>
<trkpt lat="44.17540000" lon="5.64189000"><ele></ele><time>2014-5-10T2:9:59Z</time></trkpt>
<trkpt lat="44.17537200" lon="5.64152600"><ele></ele><time>2014-5-10T2:10:2Z</time></trkpt>
<trkpt lat="44.17534200" lon="5.64120200"><ele></ele><time>2014-5-10T2:10:5Z</time></trkpt>
<trkpt lat="44.17533500" lon="5.64074200"><ele></ele><time>2014-5-10T2:10:8Z</time></trkpt>
<trkpt lat="44.17538300" lon="5.64029100"><ele></ele><time>2014-5-10T2:10:11Z</time></trkpt>
<trkpt lat="44.17545000" lon="5.63983400"><ele></ele><time>2014-5-10T2:10:14Z</time></trkpt>
<trkpt lat="44.17549500" lon="5.63948500"><ele></ele><time>2014-5-10T2:10:17Z</time></trkpt>
<trkpt lat="44.17553600" lon="5.63920900"><ele></ele><time>2014-5-10T2:10:20Z</time></trkpt>
<trkpt lat="44.17560500" lon="5.63869100"><ele></ele><time>2014-5-10T2:10:23Z</time></trkpt>
<trkpt lat="44.17565500" lon="5.63831000"><ele></ele><time>2014-5-10T2:10:26Z</time></trkpt>
<trkpt lat="44.17569300" lon="5.63797700"><ele></ele><time>2014-5-10T2:10:29Z</time></trkpt>
<trkpt lat="44.17562600" lon="5.63785000"><ele></ele><time>2014-5-10T2:10:32Z</time></trkpt>
<trkpt lat="44.17551200" lon="5.63785600"><ele></ele><time>2014-5-10T2:10:35Z</time></trkpt>
<trkpt lat="44.17536200" lon="5.63798900"><ele></ele><time>2014-5-10T2:10:38Z</time></trkpt>
<trkpt lat="44.17513200" lon="5.63818800"><ele></ele><time>2014-5-10T2:10:41Z</time></trkpt>
<trkpt lat="44.17492600" lon="5.63833900"><ele></ele><time>2014-5-10T2:10:44Z</time></trkpt>
<trkpt lat="44.17474800" lon="5.63835500"><ele></ele><time>2014-5-10T2:10:47Z</time></trkpt>
<trkpt lat="44.17449500" lon="5.63827400"><ele></ele><time>2014-5-10T2:10:50Z</time></trkpt>
<trkpt lat="44.17424400" lon="5.63817800"><ele></ele><time>2014-5-10T2:10:53Z</time></trkpt>
<trkpt lat="44.17403100" lon="5.63804200"><ele></ele><time>2014-5-10T2:10:56Z</time></trkpt>
<trkpt lat="44.17371400" lon="5.63782300"><ele></ele><time>2014-5-10T2:10:59Z</time></trkpt>
<trkpt lat="44.17346800" lon="5.63764300"><ele></ele><time>2014-5-10T2:11:2Z</time></trkpt>
<trkpt lat="44.17327900" lon="5.63749700"><ele></ele><time>2014-5-10T2:11:5Z</time></trkpt>
<trkpt lat="44.17302500" lon="5.63730800"><ele></ele><time>2014-5-10T2:11:8Z</time></trkpt>
<trkpt lat="44.17281400" lon="5.63713900"><ele></ele><time>2014-5-10T2:11:11Z</time></trkpt>
<trkpt lat="44.17258900" lon="5.63692000"><ele></ele><time>2014-5-10T2:11:14Z</time></trkpt>
<trkpt lat="44.17241800" lon="5.63660800"><ele></ele><time>2014-5-10T2:11:17Z</time></trkpt>
<trkpt lat="44.17227100" lon="5.63631300"><ele></ele><time>2014-5-10T2:11:20Z</time></trkpt>
<trkpt lat="44.17214900" lon="5.63599400"><ele></ele><time>2014-5-10T2:11:23Z</time></trkpt>
<trkpt lat="44.17202900" lon="5.63568300"><ele></ele><time>2014-5-10T2:11:26Z</time></trkpt>
<trkpt lat="44.17191100" lon="5.63543100"><ele></ele><time>2014-5-10T2:11:29Z</time></trkpt>
<trkpt lat="44.17173800" lon="5.63517100"><ele></ele><time>2014-5-10T2:11:32Z</time></trkpt>
<trkpt lat="44.17159300" lon="5.63495400"><ele></ele><time>2014-5-10T2:11:35Z</time></trkpt>
<trkpt lat="44.17151300" lon="5.63470200"><ele></ele><time>2014-5-10T2:11:38Z</time></trkpt>
<trkpt lat="44.17143700" lon="5.63438400"><ele></ele><time>2014-5-10T2:11:41Z</time></trkpt>
<trkpt lat="44.17134700" lon="5.63417500"><ele></ele><time>2014-5-10T2:11:44Z</time></trkpt>
<trkpt lat="44.17123000" lon="5.63389100"><ele></ele><time>2014-5-10T2:11:47Z</time></trkpt>
<trkpt lat="44.17121400" lon="5.63364900"><ele></ele><time>2014-5-10T2:11:50Z</time></trkpt>
<trkpt lat="44.17131100" lon="5.63352900"><ele></ele><time>2014-5-10T2:11:53Z</time></trkpt>
<trkpt lat="44.17141500" lon="5.63354200"><ele></ele><time>2014-5-10T2:11:56Z</time></trkpt>
<trkpt lat="44.17162000" lon="5.63363700"><ele></ele><time>2014-5-10T2:11:59Z</time></trkpt>
<trkpt lat="44.17181300" lon="5.63363500"><ele></ele><time>2014-5-10T2:12:2Z</time></trkpt>
<trkpt lat="44.17195500" lon="5.63354500"><ele></ele><time>2014-5-10T2:12:5Z</time></trkpt>
<trkpt lat="44.17205200" lon="5.63329100"><ele></ele><time>2014-5-10T2:12:8Z</time></trkpt>
<trkpt lat="44.17211000" lon="5.63307900"><ele></ele><time>2014-5-10T2:12:11Z</time></trkpt>
<trkpt lat="44.17215500" lon="5.63279100"><ele></ele><time>2014-5-10T2:12:14Z</time></trkpt>
<trkpt lat="44.17216400" lon="5.63249300"><ele></ele><time>2014-5-10T2:12:17Z</time></trkpt>
<trkpt lat="44.17215400" lon="5.63216900"><ele></ele><time>2014-5-10T2:12:20Z</time></trkpt>
<trkpt lat="44.17207400" lon="5.63186300"><ele></ele><time>2014-5-10T2:12:23Z</time></trkpt>
<trkpt lat="44.17193600" lon="5.63162500"><ele></ele><time>2014-5-10T2:12:26Z</time></trkpt>
<trkpt lat="44.17188000" lon="5.63135900"><ele></ele><time>2014-5-10T2:12:29Z</time></trkpt>
<trkpt lat="44.17188400" lon="5.63129700"><ele></ele><time>2014-5-10T2:12:32Z</time></trkpt>
<trkpt lat="44.17200700" lon="5.63082700"><ele></ele><time>2014-5-10T2:12:35Z</time></trkpt>
<trkpt lat="44.17230500" lon="5.63006500"><ele></ele><time>2014-5-10T2:12:38Z</time></trkpt>
<trkpt lat="44.17241000" lon="5.62976800"><ele></ele><time>2014-5-10T2:12:41Z</time></trkpt>
<trkpt lat="44.17245900" lon="5.62937600"><ele></ele><time>2014-5-10T2:12:44Z</time></trkpt>
<trkpt lat="44.17245800" lon="5.62872400"><ele></ele><time>2014-5-10T2:12:47Z</time></trkpt>
<trkpt lat="44.17261900" lon="5.62819900"><ele></ele><time>2014-5-10T2:12:50Z</time></trkpt>
<trkpt lat="44.17267000" lon="5.62805600"><ele></ele><time>2014-5-10T2:12:53Z</time></trkpt>
<trkpt lat="44.17271700" lon="5.62765300"><ele></ele><time>2014-5-10T2:12:56Z</time></trkpt>
<trkpt lat="44.17271000" lon="5.62756900"><ele></ele><time>2014-5-10T2:12:59Z</time></trkpt>
<trkpt lat="44.17260700" lon="5.62688000"><ele></ele><time>2014-5-10T2:13:2Z</time></trkpt>
<trkpt lat="44.17259500" lon="5.62679400"><ele></ele><time>2014-5-10T2:13:5Z</time></trkpt>
<trkpt lat="44.17261100" lon="5.62621200"><ele></ele><time>2014-5-10T2:13:8Z</time></trkpt>
<trkpt lat="44.17264300" lon="5.62596600"><ele></ele><time>2014-5-10T2:13:11Z</time></trkpt>
<trkpt lat="44.17279200" lon="5.62559000"><ele></ele><time>2014-5-10T2:13:14Z</time></trkpt>
<trkpt lat="44.17309000" lon="5.62526900"><ele></ele><time>2014-5-10T2:13:17Z</time></trkpt>
<trkpt lat="44.17323900" lon="5.62491200"><ele></ele><time>2014-5-10T2:13:20Z</time></trkpt>
<trkpt lat="44.17324600" lon="5.62457400"><ele></ele><time>2014-5-10T2:13:23Z</time></trkpt>
<trkpt lat="44.17314100" lon="5.62363000"><ele></ele><time>2014-5-10T2:13:26Z</time></trkpt>
<trkpt lat="44.17306900" lon="5.62301800"><ele></ele><time>2014-5-10T2:13:29Z</time></trkpt>
<trkpt lat="44.17301300" lon="5.62244300"><ele></ele><time>2014-5-10T2:13:32Z</time></trkpt>
<trkpt lat="44.17295200" lon="5.62162200"><ele></ele><time>2014-5-10T2:13:35Z</time></trkpt>
<trkpt lat="44.17293200" lon="5.62097100"><ele></ele><time>2014-5-10T2:13:38Z</time></trkpt>
<trkpt lat="44.17291500" lon="5.62039700"><ele></ele><time>2014-5-10T2:13:41Z</time></trkpt>
<trkpt lat="44.17293100" lon="5.61989500"><ele></ele><time>2014-5-10T2:13:44Z</time></trkpt>
<trkpt lat="44.17297300" lon="5.61933200"><ele></ele><time>2014-5-10T2:13:47Z</time></trkpt>
<trkpt lat="44.17300800" lon="5.61889500"><ele></ele><time>2014-5-10T2:13:50Z</time></trkpt>
<trkpt lat="44.17302300" lon="5.61858900"><ele></ele><time>2014-5-10T2:13:53Z</time></trkpt>
<trkpt lat="44.17303600" lon="5.61847100"><ele></ele><time>2014-5-10T2:13:56Z</time></trkpt>
<trkpt lat="44.17305300" lon="5.61817700"><ele></ele><time>2014-5-10T2:13:59Z</time></trkpt>
<trkpt lat="44.17299800" lon="5.61771100"><ele></ele><time>2014-5-10T2:14:2Z</time></trkpt>
<trkpt lat="44.17292300" lon="5.61735800"><ele></ele><time>2014-5-10T2:14:5Z</time></trkpt>
<trkpt lat="44.17290600" lon="5.61704200"><ele></ele><time>2014-5-10T2:14:8Z</time></trkpt>
<trkpt lat="44.17285900" lon="5.61662400"><ele></ele><time>2014-5-10T2:14:11Z</time></trkpt>
<trkpt lat="44.17278300" lon="5.61621200"><ele></ele><time>2014-5-10T2:14:14Z</time></trkpt>
<trkpt lat="44.17270100" lon="5.61580800"><ele></ele><time>2014-5-10T2:14:17Z</time></trkpt>
<trkpt lat="44.17261100" lon="5.61537900"><ele></ele><time>2014-5-10T2:14:20Z</time></trkpt>
<trkpt lat="44.17251200" lon="5.61489500"><ele></ele><time>2014-5-10T2:14:23Z</time></trkpt>
<trkpt lat="44.17250300" lon="5.61458200"><ele></ele><time>2014-5-10T2:14:26Z</time></trkpt>
<trkpt lat="44.17260300" lon="5.61423000"><ele></ele><time>2014-5-10T2:14:29Z</time></trkpt>
<trkpt lat="44.17269800" lon="5.61388200"><ele></ele><time>2014-5-10T2:14:32Z</time></trkpt>
<trkpt lat="44.17275000" lon="5.61345300"><ele></ele><time>2014-5-10T2:14:35Z</time></trkpt>
<trkpt lat="44.17270700" lon="5.61297800"><ele></ele><time>2014-5-10T2:14:38Z</time></trkpt>
<trkpt lat="44.17264100" lon="5.61252700"><ele></ele><time>2014-5-10T2:14:41Z</time></trkpt>
<trkpt lat="44.17257000" lon="5.61201000"><ele></ele><time>2014-5-10T2:14:44Z</time></trkpt>
<trkpt lat="44.17251200" lon="5.61156800"><ele></ele><time>2014-5-10T2:14:47Z</time></trkpt>
<trkpt lat="44.17250200" lon="5.61151100"><ele></ele><time>2014-5-10T2:14:50Z</time></trkpt>
<trkpt lat="44.17242000" lon="5.61098500"><ele></ele><time>2014-5-10T2:14:53Z</time></trkpt>
<trkpt lat="44.17234100" lon="5.61038900"><ele></ele><time>2014-5-10T2:14:56Z</time></trkpt>
<trkpt lat="44.17226400" lon="5.60983000"><ele></ele><time>2014-5-10T2:14:59Z</time></trkpt>
<trkpt lat="44.17217700" lon="5.60923700"><ele></ele><time>2014-5-10T2:15:2Z</time></trkpt>
<trkpt lat="44.17209600" lon="5.60873100"><ele></ele><time>2014-5-10T2:15:5Z</time></trkpt>
<trkpt lat="44.17208900" lon="5.60867300"><ele></ele><time>2014-5-10T2:15:8Z</time></trkpt>
<trkpt lat="44.17201800" lon="5.60820100"><ele></ele><time>2014-5-10T2:15:11Z</time></trkpt>
<trkpt lat="44.17200000" lon="5.60803000"><ele></ele><time>2014-5-10T2:15:14Z</time></trkpt>
<trkpt lat="44.17200700" lon="5.60785400"><ele></ele><time>2014-5-10T2:15:17Z</time></trkpt>
<trkpt lat="44.17213700" lon="5.60743300"><ele></ele><time>2014-5-10T2:15:20Z</time></trkpt>
<trkpt lat="44.17230400" lon="5.60692000"><ele></ele><time>2014-5-10T2:15:23Z</time></trkpt>
<trkpt lat="44.17251500" lon="5.60628500"><ele></ele><time>2014-5-10T2:15:26Z</time></trkpt>
<trkpt lat="44.17272500" lon="5.60566800"><ele></ele><time>2014-5-10T2:15:29Z</time></trkpt>
<trkpt lat="44.17288200" lon="5.60521600"><ele></ele><time>2014-5-10T2:15:32Z</time></trkpt>
<trkpt lat="44.17302200" lon="5.60478600"><ele></ele><time>2014-5-10T2:15:35Z</time></trkpt>
<trkpt lat="44.17305900" lon="5.60467100"><ele></ele><time>2014-5-10T2:15:38Z</time></trkpt>
<trkpt lat="44.17311000" lon="5.60414700"><ele></ele><time>2014-5-10T2:15:41Z</time></trkpt>
<trkpt lat="44.17310000" lon="5.60354500"><ele></ele><time>2014-5-10T2:15:44Z</time></trkpt>
<trkpt lat="44.17309400" lon="5.60298000"><ele></ele><time>2014-5-10T2:15:47Z</time></trkpt>
<trkpt lat="44.17309000" lon="5.60245700"><ele></ele><time>2014-5-10T2:15:50Z</time></trkpt>
<trkpt lat="44.17307900" lon="5.60202100"><ele></ele><time>2014-5-10T2:15:53Z</time></trkpt>
<trkpt lat="44.17304800" lon="5.60164200"><ele></ele><time>2014-5-10T2:15:56Z</time></trkpt>
<trkpt lat="44.17301300" lon="5.60115000"><ele></ele><time>2014-5-10T2:15:59Z</time></trkpt>
<trkpt lat="44.17304400" lon="5.60068800"><ele></ele><time>2014-5-10T2:16:2Z</time></trkpt>
<trkpt lat="44.17311000" lon="5.60029800"><ele></ele><time>2014-5-10T2:16:5Z</time></trkpt>
<trkpt lat="44.17315900" lon="5.59984800"><ele></ele><time>2014-5-10T2:16:8Z</time></trkpt>
<trkpt lat="44.17313600" lon="5.59946800"><ele></ele><time>2014-5-10T2:16:11Z</time></trkpt>
<trkpt lat="44.17312700" lon="5.59909600"><ele></ele><time>2014-5-10T2:16:14Z</time></trkpt>
<trkpt lat="44.17312700" lon="5.59881700"><ele></ele><time>2014-5-10T2:16:17Z</time></trkpt>
<trkpt lat="44.17311100" lon="5.59859000"><ele></ele><time>2014-5-10T2:16:20Z</time></trkpt>
<trkpt lat="44.17305300" lon="5.59824900"><ele></ele><time>2014-5-10T2:16:23Z</time></trkpt>
<trkpt lat="44.17296400" lon="5.59802900"><ele></ele><time>2014-5-10T2:16:26Z</time></trkpt>
<trkpt lat="44.17282100" lon="5.59777400"><ele></ele><time>2014-5-10T2:16:29Z</time></trkpt>
<trkpt lat="44.17265800" lon="5.59750700"><ele></ele><time>2014-5-10T2:16:32Z</time></trkpt>
<trkpt lat="44.17249500" lon="5.59723500"><ele></ele><time>2014-5-10T2:16:35Z</time></trkpt>
<trkpt lat="44.17238400" lon="5.59705300"><ele></ele><time>2014-5-10T2:16:38Z</time></trkpt>
<trkpt lat="44.17224700" lon="5.59689300"><ele></ele><time>2014-5-10T2:16:41Z</time></trkpt>
<trkpt lat="44.17205800" lon="5.59672600"><ele></ele><time>2014-5-10T2:16:44Z</time></trkpt>
<trkpt lat="44.17198900" lon="5.59647100"><ele></ele><time>2014-5-10T2:16:47Z</time></trkpt>
<trkpt lat="44.17201600" lon="5.59624900"><ele></ele><time>2014-5-10T2:16:50Z</time></trkpt>
<trkpt lat="44.17213900" lon="5.59598300"><ele></ele><time>2014-5-10T2:16:53Z</time></trkpt>
<trkpt lat="44.17230900" lon="5.59572000"><ele></ele><time>2014-5-10T2:16:56Z</time></trkpt>
<trkpt lat="44.17252200" lon="5.59536700"><ele></ele><time>2014-5-10T2:16:59Z</time></trkpt>
<trkpt lat="44.17265900" lon="5.59509700"><ele></ele><time>2014-5-10T2:17:2Z</time></trkpt>
<trkpt lat="44.17280400" lon="5.59470400"><ele></ele><time>2014-5-10T2:17:5Z</time></trkpt>
<trkpt lat="44.17298700" lon="5.59427800"><ele></ele><time>2014-5-10T2:17:8Z</time></trkpt>
<trkpt lat="44.17315600" lon="5.59397300"><ele></ele><time>2014-5-10T2:17:11Z</time></trkpt>
<trkpt lat="44.17330500" lon="5.59370900"><ele></ele><time>2014-5-10T2:17:14Z</time></trkpt>
<trkpt lat="44.17354300" lon="5.59337700"><ele></ele><time>2014-5-10T2:17:17Z</time></trkpt>
<trkpt lat="44.17381700" lon="5.59303600"><ele></ele><time>2014-5-10T2:17:20Z</time></trkpt>
<trkpt lat="44.17405100" lon="5.59273200"><ele></ele><time>2014-5-10T2:17:23Z</time></trkpt>
<trkpt lat="44.17415200" lon="5.59246900"><ele></ele><time>2014-5-10T2:17:26Z</time></trkpt>
<trkpt lat="44.17424100" lon="5.59217700"><ele></ele><time>2014-5-10T2:17:29Z</time></trkpt>
<trkpt lat="44.17437200" lon="5.59194400"><ele></ele><time>2014-5-10T2:17:32Z</time></trkpt>
<trkpt lat="44.17455200" lon="5.59174700"><ele></ele><time>2014-5-10T2:17:35Z</time></trkpt>
<trkpt lat="44.17467600" lon="5.59159800"><ele></ele><time>2014-5-10T2:17:38Z</time></trkpt>
<trkpt lat="44.17468300" lon="5.59158800"><ele></ele><time>2014-5-10T2:17:41Z</time></trkpt>
<trkpt lat="44.17475700" lon="5.59146200"><ele></ele><time>2014-5-10T2:17:44Z</time></trkpt>
<trkpt lat="44.17486400" lon="5.59128500"><ele></ele><time>2014-5-10T2:17:47Z</time></trkpt>
<trkpt lat="44.17498100" lon="5.59105100"><ele></ele><time>2014-5-10T2:17:50Z</time></trkpt>
<trkpt lat="44.17511400" lon="5.59080300"><ele></ele><time>2014-5-10T2:17:53Z</time></trkpt>
<trkpt lat="44.17525600" lon="5.59054300"><ele></ele><time>2014-5-10T2:17:56Z</time></trkpt>
<trkpt lat="44.17546400" lon="5.59017000"><ele></ele><time>2014-5-10T2:17:59Z</time></trkpt>
<trkpt lat="44.17564200" lon="5.58987700"><ele></ele><time>2014-5-10T2:18:2Z</time></trkpt>
<trkpt lat="44.17584400" lon="5.58955900"><ele></ele><time>2014-5-10T2:18:5Z</time></trkpt>
<trkpt lat="44.17593400" lon="5.58938500"><ele></ele><time>2014-5-10T2:18:8Z</time></trkpt>
<trkpt lat="44.17604600" lon="5.58906700"><ele></ele><time>2014-5-10T2:18:11Z</time></trkpt>
<trkpt lat="44.17611900" lon="5.58868200"><ele></ele><time>2014-5-10T2:18:14Z</time></trkpt>
<trkpt lat="44.17621300" lon="5.58824700"><ele></ele><time>2014-5-10T2:18:17Z</time></trkpt>
<trkpt lat="44.17624500" lon="5.58804500"><ele></ele><time>2014-5-10T2:18:20Z</time></trkpt>
<trkpt lat="44.17632300" lon="5.58773100"><ele></ele><time>2014-5-10T2:18:23Z</time></trkpt>
<trkpt lat="44.17643600" lon="5.58738300"><ele></ele><time>2014-5-10T2:18:26Z</time></trkpt>
<trkpt lat="44.17655100" lon="5.58708200"><ele></ele><time>2014-5-10T2:18:29Z</time></trkpt>
<trkpt lat="44.17662500" lon="5.58679100"><ele></ele><time>2014-5-10T2:18:32Z</time></trkpt>
<trkpt lat="44.17670100" lon="5.58651400"><ele></ele><time>2014-5-10T2:18:35Z</time></trkpt>
<trkpt lat="44.17678600" lon="5.58620700"><ele></ele><time>2014-5-10T2:18:38Z</time></trkpt>
<trkpt lat="44.17690000" lon="5.58585400"><ele></ele><time>2014-5-10T2:18:41Z</time></trkpt>
<trkpt lat="44.17705100" lon="5.58558300"><ele></ele><time>2014-5-10T2:18:44Z</time></trkpt>
<trkpt lat="44.17719100" lon="5.58534000"><ele></ele><time>2014-5-10T2:18:47Z</time></trkpt>
<trkpt lat="44.17722300" lon="5.58509200"><ele></ele><time>2014-5-10T2:18:50Z</time></trkpt>
<trkpt lat="44.17727000" lon="5.58473100"><ele></ele><time>2014-5-10T2:18:53Z</time></trkpt>
<trkpt lat="44.17735400" lon="5.58441800"><ele></ele><time>2014-5-10T2:18:56Z</time></trkpt>
<trkpt lat="44.17745500" lon="5.58401100"><ele></ele><time>2014-5-10T2:18:59Z</time></trkpt>
<trkpt lat="44.17754500" lon="5.58362500"><ele></ele><time>2014-5-10T2:19:2Z</time></trkpt>
<trkpt lat="44.17760900" lon="5.58337900"><ele></ele><time>2014-5-10T2:19:5Z</time></trkpt>
<trkpt lat="44.17770700" lon="5.58303300"><ele></ele><time>2014-5-10T2:19:8Z</time></trkpt>
<trkpt lat="44.17781600" lon="5.58281800"><ele></ele><time>2014-5-10T2:19:11Z</time></trkpt>
<trkpt lat="44.17795400" lon="5.58269300"><ele></ele><time>2014-5-10T2:19:14Z</time></trkpt>
<trkpt lat="44.17811300" lon="5.58252700"><ele></ele><time>2014-5-10T2:19:17Z</time></trkpt>
<trkpt lat="44.17819400" lon="5.58230900"><ele></ele><time>2014-5-10T2:19:20Z</time></trkpt>
<trkpt lat="44.17826000" lon="5.58206900"><ele></ele><time>2014-5-10T2:19:23Z</time></trkpt>
<trkpt lat="44.17832800" lon="5.58179800"><ele></ele><time>2014-5-10T2:19:26Z</time></trkpt>
<trkpt lat="44.17840400" lon="5.58161100"><ele></ele><time>2014-5-10T2:19:29Z</time></trkpt>
<trkpt lat="44.17852100" lon="5.58142900"><ele></ele><time>2014-5-10T2:19:32Z</time></trkpt>
<trkpt lat="44.17867700" lon="5.58125400"><ele></ele><time>2014-5-10T2:19:35Z</time></trkpt>
<trkpt lat="44.17885500" lon="5.58112400"><ele></ele><time>2014-5-10T2:19:38Z</time></trkpt>
<trkpt lat="44.17902000" lon="5.58107800"><ele></ele><time>2014-5-10T2:19:41Z</time></trkpt>
<trkpt lat="44.17916000" lon="5.58109100"><ele></ele><time>2014-5-10T2:19:44Z</time></trkpt>
<trkpt lat="44.17929700" lon="5.58104200"><ele></ele><time>2014-5-10T2:19:47Z</time></trkpt>
<trkpt lat="44.17939500" lon="5.58088300"><ele></ele><time>2014-5-10T2:19:50Z</time></trkpt>
<trkpt lat="44.17939400" lon="5.58065900"><ele></ele><time>2014-5-10T2:19:53Z</time></trkpt>
<trkpt lat="44.17929700" lon="5.58052600"><ele></ele><time>2014-5-10T2:19:56Z</time></trkpt>
<trkpt lat="44.17911400" lon="5.58043800"><ele></ele><time>2014-5-10T2:19:59Z</time></trkpt>
<trkpt lat="44.17884100" lon="5.58033800"><ele></ele><time>2014-5-10T2:20:2Z</time></trkpt>
<trkpt lat="44.17867700" lon="5.58019600"><ele></ele><time>2014-5-10T2:20:5Z</time></trkpt>
<trkpt lat="44.17859900" lon="5.57994900"><ele></ele><time>2014-5-10T2:20:8Z</time></trkpt>
<trkpt lat="44.17858900" lon="5.57966700"><ele></ele><time>2014-5-10T2:20:11Z</time></trkpt>
<trkpt lat="44.17854400" lon="5.57935400"><ele></ele><time>2014-5-10T2:20:14Z</time></trkpt>
<trkpt lat="44.17849400" lon="5.57893000"><ele></ele><time>2014-5-10T2:20:17Z</time></trkpt>
<trkpt lat="44.17845100" lon="5.57870000"><ele></ele><time>2014-5-10T2:20:20Z</time></trkpt>
<trkpt lat="44.17838000" lon="5.57834600"><ele></ele><time>2014-5-10T2:20:23Z</time></trkpt>
<trkpt lat="44.17836700" lon="5.57803200"><ele></ele><time>2014-5-10T2:20:26Z</time></trkpt>
<trkpt lat="44.17842400" lon="5.57776800"><ele></ele><time>2014-5-10T2:20:29Z</time></trkpt>
<trkpt lat="44.17848000" lon="5.57751000"><ele></ele><time>2014-5-10T2:20:32Z</time></trkpt>
<trkpt lat="44.17851700" lon="5.57721800"><ele></ele><time>2014-5-10T2:20:35Z</time></trkpt>
<trkpt lat="44.17854600" lon="5.57693600"><ele></ele><time>2014-5-10T2:20:38Z</time></trkpt>
<trkpt lat="44.17855500" lon="5.57664900"><ele></ele><time>2014-5-10T2:20:41Z</time></trkpt>
<trkpt lat="44.17855400" lon="5.57635400"><ele></ele><time>2014-5-10T2:20:44Z</time></trkpt>
<trkpt lat="44.17856400" lon="5.57610000"><ele></ele><time>2014-5-10T2:20:47Z</time></trkpt>
<trkpt lat="44.17860100" lon="5.57588200"><ele></ele><time>2014-5-10T2:20:50Z</time></trkpt>
<trkpt lat="44.17869900" lon="5.57545200"><ele></ele><time>2014-5-10T2:20:53Z</time></trkpt>
<trkpt lat="44.17874800" lon="5.57510300"><ele></ele><time>2014-5-10T2:20:56Z</time></trkpt>
<trkpt lat="44.17878400" lon="5.57479900"><ele></ele><time>2014-5-10T2:20:59Z</time></trkpt>
<trkpt lat="44.17887900" lon="5.57447200"><ele></ele><time>2014-5-10T2:21:2Z</time></trkpt>
<trkpt lat="44.17899300" lon="5.57436000"><ele></ele><time>2014-5-10T2:21:5Z</time></trkpt>
<trkpt lat="44.17918600" lon="5.57432900"><ele></ele><time>2014-5-10T2:21:8Z</time></trkpt>
<trkpt lat="44.17933500" lon="5.57423700"><ele></ele><time>2014-5-10T2:21:11Z</time></trkpt>
<trkpt lat="44.17938100" lon="5.57406600"><ele></ele><time>2014-5-10T2:21:14Z</time></trkpt>
<trkpt lat="44.17933700" lon="5.57390800"><ele></ele><time>2014-5-10T2:21:17Z</time></trkpt>
<trkpt lat="44.17917200" lon="5.57376600"><ele></ele><time>2014-5-10T2:21:20Z</time></trkpt>
<trkpt lat="44.17904100" lon="5.57359500"><ele></ele><time>2014-5-10T2:21:23Z</time></trkpt>
<trkpt lat="44.17901900" lon="5.57336700"><ele></ele><time>2014-5-10T2:21:26Z</time></trkpt>
<trkpt lat="44.17910700" lon="5.57319000"><ele></ele><time>2014-5-10T2:21:29Z</time></trkpt>
<trkpt lat="44.17929000" lon="5.57300000"><ele></ele><time>2014-5-10T2:21:32Z</time></trkpt>
<trkpt lat="44.17931200" lon="5.57282900"><ele></ele><time>2014-5-10T2:21:35Z</time></trkpt>
<trkpt lat="44.17923900" lon="5.57268700"><ele></ele><time>2014-5-10T2:21:38Z</time></trkpt>
<trkpt lat="44.17910000" lon="5.57244100"><ele></ele><time>2014-5-10T2:21:41Z</time></trkpt>
<trkpt lat="44.17905800" lon="5.57214900"><ele></ele><time>2014-5-10T2:21:44Z</time></trkpt>
<trkpt lat="44.17907400" lon="5.57186200"><ele></ele><time>2014-5-10T2:21:47Z</time></trkpt>
<trkpt lat="44.17910400" lon="5.57152200"><ele></ele><time>2014-5-10T2:21:50Z</time></trkpt>
<trkpt lat="44.17914000" lon="5.57121200"><ele></ele><time>2014-5-10T2:21:53Z</time></trkpt>
<trkpt lat="44.17916100" lon="5.57098000"><ele></ele><time>2014-5-10T2:21:56Z</time></trkpt>
<trkpt lat="44.17919800" lon="5.57062000"><ele></ele><time>2014-5-10T2:21:59Z</time></trkpt>
<trkpt lat="44.17923000" lon="5.57025900"><ele></ele><time>2014-5-10T2:22:2Z</time></trkpt>
<trkpt lat="44.17926400" lon="5.56999900"><ele></ele><time>2014-5-10T2:22:5Z</time></trkpt>
<trkpt lat="44.17930400" lon="5.56963700"><ele></ele><time>2014-5-10T2:22:8Z</time></trkpt>
<trkpt lat="44.17933800" lon="5.56937500"><ele></ele><time>2014-5-10T2:22:11Z</time></trkpt>
<trkpt lat="44.17941700" lon="5.56905600"><ele></ele><time>2014-5-10T2:22:14Z</time></trkpt>
<trkpt lat="44.17949300" lon="5.56877500"><ele></ele><time>2014-5-10T2:22:17Z</time></trkpt>
<trkpt lat="44.17953100" lon="5.56851900"><ele></ele><time>2014-5-10T2:22:20Z</time></trkpt>
<trkpt lat="44.17947700" lon="5.56840200"><ele></ele><time>2014-5-10T2:22:23Z</time></trkpt>
<trkpt lat="44.17942800" lon="5.56831400"><ele></ele><time>2014-5-10T2:22:26Z</time></trkpt>
<trkpt lat="44.17942400" lon="5.56830200"><ele></ele><time>2014-5-10T2:22:29Z</time></trkpt>
<trkpt lat="44.17947400" lon="5.56821500"><ele></ele><time>2014-5-10T2:22:32Z</time></trkpt>
<trkpt lat="44.17949400" lon="5.56808200"><ele></ele><time>2014-5-10T2:22:35Z</time></trkpt>
<trkpt lat="44.17951700" lon="5.56798900"><ele></ele><time>2014-5-10T2:22:38Z</time></trkpt>
<trkpt lat="44.17953300" lon="5.56794500"><ele></ele><time>2014-5-10T2:22:41Z</time></trkpt>
<trkpt lat="44.17957400" lon="5.56782800"><ele></ele><time>2014-5-10T2:22:44Z</time></trkpt>
<trkpt lat="44.17962100" lon="5.56764800"><ele></ele><time>2014-5-10T2:22:47Z</time></trkpt>
<trkpt lat="44.17963700" lon="5.56748000"><ele></ele><time>2014-5-10T2:22:50Z</time></trkpt>
<trkpt lat="44.17962900" lon="5.56727400"><ele></ele><time>2014-5-10T2:22:53Z</time></trkpt>
<trkpt lat="44.17958400" lon="5.56700400"><ele></ele><time>2014-5-10T2:22:56Z</time></trkpt>
<trkpt lat="44.17954200" lon="5.56682500"><ele></ele><time>2014-5-10T2:22:59Z</time></trkpt>
<trkpt lat="44.17949000" lon="5.56658800"><ele></ele><time>2014-5-10T2:23:2Z</time></trkpt>
<trkpt lat="44.17943500" lon="5.56633500"><ele></ele><time>2014-5-10T2:23:5Z</time></trkpt>
<trkpt lat="44.17935400" lon="5.56611200"><ele></ele><time>2014-5-10T2:23:8Z</time></trkpt>
<trkpt lat="44.17928300" lon="5.56593400"><ele></ele><time>2014-5-10T2:23:11Z</time></trkpt>
<trkpt lat="44.17919000" lon="5.56577800"><ele></ele><time>2014-5-10T2:23:14Z</time></trkpt>
<trkpt lat="44.17908900" lon="5.56565500"><ele></ele><time>2014-5-10T2:23:17Z</time></trkpt>
<trkpt lat="44.17897100" lon="5.56557500"><ele></ele><time>2014-5-10T2:23:20Z</time></trkpt>
<trkpt lat="44.17883300" lon="5.56557800"><ele></ele><time>2014-5-10T2:23:23Z</time></trkpt>
<trkpt lat="44.17875200" lon="5.56569000"><ele></ele><time>2014-5-10T2:23:26Z</time></trkpt>
<trkpt lat="44.17874800" lon="5.56586400"><ele></ele><time>2014-5-10T2:23:29Z</time></trkpt>
<trkpt lat="44.17876300" lon="5.56609200"><ele></ele><time>2014-5-10T2:23:32Z</time></trkpt>
<trkpt lat="44.17871300" lon="5.56626700"><ele></ele><time>2014-5-10T2:23:35Z</time></trkpt>
<trkpt lat="44.17858300" lon="5.56642400"><ele></ele><time>2014-5-10T2:23:38Z</time></trkpt>
<trkpt lat="44.17841900" lon="5.56646900"><ele></ele><time>2014-5-10T2:23:41Z</time></trkpt>
<trkpt lat="44.17828300" lon="5.56640500"><ele></ele><time>2014-5-10T2:23:44Z</time></trkpt>
<trkpt lat="44.17814300" lon="5.56632100"><ele></ele><time>2014-5-10T2:23:47Z</time></trkpt>
<trkpt lat="44.17799100" lon="5.56615200"><ele></ele><time>2014-5-10T2:23:50Z</time></trkpt>
<trkpt lat="44.17790000" lon="5.56593400"><ele></ele><time>2014-5-10T2:23:53Z</time></trkpt>
<trkpt lat="44.17779100" lon="5.56569100"><ele></ele><time>2014-5-10T2:23:56Z</time></trkpt>
<trkpt lat="44.17766800" lon="5.56562400"><ele></ele><time>2014-5-10T2:23:59Z</time></trkpt>
<trkpt lat="44.17756800" lon="5.56571000"><ele></ele><time>2014-5-10T2:24:2Z</time></trkpt>
<trkpt lat="44.17754000" lon="5.56586100"><ele></ele><time>2014-5-10T2:24:5Z</time></trkpt>
<trkpt lat="44.17755200" lon="5.56602700"><ele></ele><time>2014-5-10T2:24:8Z</time></trkpt>
<trkpt lat="44.17748700" lon="5.56624400"><ele></ele><time>2014-5-10T2:24:11Z</time></trkpt>
<trkpt lat="44.17734200" lon="5.56641200"><ele></ele><time>2014-5-10T2:24:14Z</time></trkpt>
<trkpt lat="44.17718300" lon="5.56652600"><ele></ele><time>2014-5-10T2:24:17Z</time></trkpt>
<trkpt lat="44.17702700" lon="5.56663800"><ele></ele><time>2014-5-10T2:24:20Z</time></trkpt>
<trkpt lat="44.17691400" lon="5.56681400"><ele></ele><time>2014-5-10T2:24:23Z</time></trkpt>
<trkpt lat="44.17687700" lon="5.56699900"><ele></ele><time>2014-5-10T2:24:26Z</time></trkpt>
<trkpt lat="44.17694100" lon="5.56718300"><ele></ele><time>2014-5-10T2:24:29Z</time></trkpt>
<trkpt lat="44.17696900" lon="5.56741400"><ele></ele><time>2014-5-10T2:24:32Z</time></trkpt>
<trkpt lat="44.17691300" lon="5.56768800"><ele></ele><time>2014-5-10T2:24:35Z</time></trkpt>
<trkpt lat="44.17684200" lon="5.56798700"><ele></ele><time>2014-5-10T2:24:38Z</time></trkpt>
<trkpt lat="44.17677400" lon="5.56823300"><ele></ele><time>2014-5-10T2:24:41Z</time></trkpt>
<trkpt lat="44.17668100" lon="5.56848800"><ele></ele><time>2014-5-10T2:24:44Z</time></trkpt>
<trkpt lat="44.17660100" lon="5.56864900"><ele></ele><time>2014-5-10T2:24:47Z</time></trkpt>
<trkpt lat="44.17649600" lon="5.56882100"><ele></ele><time>2014-5-10T2:24:50Z</time></trkpt>
<trkpt lat="44.17636200" lon="5.56894600"><ele></ele><time>2014-5-10T2:24:53Z</time></trkpt>
<trkpt lat="44.17621800" lon="5.56897600"><ele></ele><time>2014-5-10T2:24:56Z</time></trkpt>
<trkpt lat="44.17606600" lon="5.56895700"><ele></ele><time>2014-5-10T2:24:59Z</time></trkpt>
<trkpt lat="44.17590600" lon="5.56892600"><ele></ele><time>2014-5-10T2:25:2Z</time></trkpt>
<trkpt lat="44.17571100" lon="5.56884300"><ele></ele><time>2014-5-10T2:25:5Z</time></trkpt>
<trkpt lat="44.17558000" lon="5.56877200"><ele></ele><time>2014-5-10T2:25:8Z</time></trkpt>
<trkpt lat="44.17541700" lon="5.56866000"><ele></ele><time>2014-5-10T2:25:11Z</time></trkpt>
<trkpt lat="44.17539800" lon="5.56865300"><ele></ele><time>2014-5-10T2:25:14Z</time></trkpt>
<trkpt lat="44.17523800" lon="5.56858100"><ele></ele><time>2014-5-10T2:25:17Z</time></trkpt>
<trkpt lat="44.17516300" lon="5.56867100"><ele></ele><time>2014-5-10T2:25:20Z</time></trkpt>
<trkpt lat="44.17509600" lon="5.56888700"><ele></ele><time>2014-5-10T2:25:23Z</time></trkpt>
<trkpt lat="44.17503200" lon="5.56910600"><ele></ele><time>2014-5-10T2:25:26Z</time></trkpt>
<trkpt lat="44.17500900" lon="5.56913800"><ele></ele><time>2014-5-10T2:25:29Z</time></trkpt>
<trkpt lat="44.17498300" lon="5.56932000"><ele></ele><time>2014-5-10T2:25:32Z</time></trkpt>
<trkpt lat="44.17505500" lon="5.56948300"><ele></ele><time>2014-5-10T2:25:35Z</time></trkpt>
<trkpt lat="44.17519200" lon="5.56966000"><ele></ele><time>2014-5-10T2:25:38Z</time></trkpt>
<trkpt lat="44.17520700" lon="5.56984800"><ele></ele><time>2014-5-10T2:25:41Z</time></trkpt>
<trkpt lat="44.17512900" lon="5.56992900"><ele></ele><time>2014-5-10T2:25:44Z</time></trkpt>
<trkpt lat="44.17501000" lon="5.57004200"><ele></ele><time>2014-5-10T2:25:47Z</time></trkpt>
<trkpt lat="44.17496800" lon="5.57023400"><ele></ele><time>2014-5-10T2:25:50Z</time></trkpt>
<trkpt lat="44.17494000" lon="5.57044100"><ele></ele><time>2014-5-10T2:25:53Z</time></trkpt>
<trkpt lat="44.17483900" lon="5.57063900"><ele></ele><time>2014-5-10T2:25:56Z</time></trkpt>
<trkpt lat="44.17473300" lon="5.57078100"><ele></ele><time>2014-5-10T2:25:59Z</time></trkpt>
<trkpt lat="44.17458700" lon="5.57088900"><ele></ele><time>2014-5-10T2:26:2Z</time></trkpt>
<trkpt lat="44.17442600" lon="5.57088900"><ele></ele><time>2014-5-10T2:26:5Z</time></trkpt>
<trkpt lat="44.17428900" lon="5.57082700"><ele></ele><time>2014-5-10T2:26:8Z</time></trkpt>
<trkpt lat="44.17413400" lon="5.57073700"><ele></ele><time>2014-5-10T2:26:11Z</time></trkpt>
<trkpt lat="44.17403700" lon="5.57070000"><ele></ele><time>2014-5-10T2:26:14Z</time></trkpt>
<trkpt lat="44.17388600" lon="5.57062400"><ele></ele><time>2014-5-10T2:26:17Z</time></trkpt>
<trkpt lat="44.17371500" lon="5.57064900"><ele></ele><time>2014-5-10T2:26:20Z</time></trkpt>
<trkpt lat="44.17355800" lon="5.57071600"><ele></ele><time>2014-5-10T2:26:23Z</time></trkpt>
<trkpt lat="44.17344200" lon="5.57084900"><ele></ele><time>2014-5-10T2:26:26Z</time></trkpt>
<trkpt lat="44.17339300" lon="5.57102800"><ele></ele><time>2014-5-10T2:26:29Z</time></trkpt>
<trkpt lat="44.17336500" lon="5.57124300"><ele></ele><time>2014-5-10T2:26:32Z</time></trkpt>
<trkpt lat="44.17331400" lon="5.57156600"><ele></ele><time>2014-5-10T2:26:35Z</time></trkpt>
<trkpt lat="44.17328500" lon="5.57185500"><ele></ele><time>2014-5-10T2:26:38Z</time></trkpt>
<trkpt lat="44.17322900" lon="5.57202500"><ele></ele><time>2014-5-10T2:26:41Z</time></trkpt>
<trkpt lat="44.17316800" lon="5.57209800"><ele></ele><time>2014-5-10T2:26:44Z</time></trkpt>
<trkpt lat="44.17316400" lon="5.57210000"><ele></ele><time>2014-5-10T2:26:47Z</time></trkpt>
<trkpt lat="44.17313500" lon="5.57206200"><ele></ele><time>2014-5-10T2:26:50Z</time></trkpt>
<trkpt lat="44.17313500" lon="5.57205900"><ele></ele><time>2014-5-10T2:26:53Z</time></trkpt>
<trkpt lat="44.17309300" lon="5.57202100"><ele></ele><time>2014-5-10T2:26:56Z</time></trkpt>
<trkpt lat="44.17307700" lon="5.57200500"><ele></ele><time>2014-5-10T2:26:59Z</time></trkpt>
<trkpt lat="44.17308100" lon="5.57185000"><ele></ele><time>2014-5-10T2:27:2Z</time></trkpt>
<trkpt lat="44.17311100" lon="5.57180100"><ele></ele><time>2014-5-10T2:27:5Z</time></trkpt>
<trkpt lat="44.17317500" lon="5.57167500"><ele></ele><time>2014-5-10T2:27:8Z</time></trkpt>
<trkpt lat="44.17317100" lon="5.57148900"><ele></ele><time>2014-5-10T2:27:11Z</time></trkpt>
<trkpt lat="44.17316100" lon="5.57123600"><ele></ele><time>2014-5-10T2:27:14Z</time></trkpt>
<trkpt lat="44.17314100" lon="5.57102800"><ele></ele><time>2014-5-10T2:27:17Z</time></trkpt>
<trkpt lat="44.17312900" lon="5.57078500"><ele></ele><time>2014-5-10T2:27:20Z</time></trkpt>
<trkpt lat="44.17317400" lon="5.57055000"><ele></ele><time>2014-5-10T2:27:23Z</time></trkpt>
<trkpt lat="44.17324900" lon="5.57036300"><ele></ele><time>2014-5-10T2:27:26Z</time></trkpt>
<trkpt lat="44.17345700" lon="5.57020300"><ele></ele><time>2014-5-10T2:27:29Z</time></trkpt>
<trkpt lat="44.17362400" lon="5.57013300"><ele></ele><time>2014-5-10T2:27:32Z</time></trkpt>
<trkpt lat="44.17376000" lon="5.57007900"><ele></ele><time>2014-5-10T2:27:35Z</time></trkpt>
<trkpt lat="44.17397700" lon="5.56999900"><ele></ele><time>2014-5-10T2:27:38Z</time></trkpt>
<trkpt lat="44.17408900" lon="5.56987300"><ele></ele><time>2014-5-10T2:27:41Z</time></trkpt>
<trkpt lat="44.17410400" lon="5.56969000"><ele></ele><time>2014-5-10T2:27:44Z</time></trkpt>
<trkpt lat="44.17402600" lon="5.56951000"><ele></ele><time>2014-5-10T2:27:47Z</time></trkpt>
<trkpt lat="44.17391300" lon="5.56931500"><ele></ele><time>2014-5-10T2:27:50Z</time></trkpt>
<trkpt lat="44.17381100" lon="5.56911100"><ele></ele><time>2014-5-10T2:27:53Z</time></trkpt>
<trkpt lat="44.17375300" lon="5.56892400"><ele></ele><time>2014-5-10T2:27:56Z</time></trkpt>
<trkpt lat="44.17374100" lon="5.56866700"><ele></ele><time>2014-5-10T2:27:59Z</time></trkpt>
<trkpt lat="44.17379100" lon="5.56851500"><ele></ele><time>2014-5-10T2:28:2Z</time></trkpt>
<trkpt lat="44.17386600" lon="5.56835300"><ele></ele><time>2014-5-10T2:28:5Z</time></trkpt>
<trkpt lat="44.17399400" lon="5.56821100"><ele></ele><time>2014-5-10T2:28:8Z</time></trkpt>
<trkpt lat="44.17410400" lon="5.56816900"><ele></ele><time>2014-5-10T2:28:11Z</time></trkpt>
<trkpt lat="44.17414500" lon="5.56802400"><ele></ele><time>2014-5-10T2:28:14Z</time></trkpt>
<trkpt lat="44.17414300" lon="5.56776400"><ele></ele><time>2014-5-10T2:28:17Z</time></trkpt>
<trkpt lat="44.17417500" lon="5.56751000"><ele></ele><time>2014-5-10T2:28:20Z</time></trkpt>
<trkpt lat="44.17421700" lon="5.56728000"><ele></ele><time>2014-5-10T2:28:23Z</time></trkpt>
<trkpt lat="44.17427600" lon="5.56713200"><ele></ele><time>2014-5-10T2:28:26Z</time></trkpt>
<trkpt lat="44.17438200" lon="5.56699200"><ele></ele><time>2014-5-10T2:28:29Z</time></trkpt>
<trkpt lat="44.17454000" lon="5.56695100"><ele></ele><time>2014-5-10T2:28:32Z</time></trkpt>
<trkpt lat="44.17468100" lon="5.56695200"><ele></ele><time>2014-5-10T2:28:35Z</time></trkpt>
<trkpt lat="44.17469300" lon="5.56693800"><ele></ele><time>2014-5-10T2:28:38Z</time></trkpt>
<trkpt lat="44.17468800" lon="5.56674700"><ele></ele><time>2014-5-10T2:28:41Z</time></trkpt>
<trkpt lat="44.17466200" lon="5.56652000"><ele></ele><time>2014-5-10T2:28:44Z</time></trkpt>
<trkpt lat="44.17470400" lon="5.56636500"><ele></ele><time>2014-5-10T2:28:47Z</time></trkpt>
<trkpt lat="44.17475600" lon="5.56623600"><ele></ele><time>2014-5-10T2:28:50Z</time></trkpt>
<trkpt lat="44.17477300" lon="5.56605800"><ele></ele><time>2014-5-10T2:28:53Z</time></trkpt>
<trkpt lat="44.17480800" lon="5.56585700"><ele></ele><time>2014-5-10T2:28:56Z</time></trkpt>
<trkpt lat="44.17482000" lon="5.56569700"><ele></ele><time>2014-5-10T2:28:59Z</time></trkpt>
<trkpt lat="44.17481700" lon="5.56552400"><ele></ele><time>2014-5-10T2:29:2Z</time></trkpt>
<trkpt lat="44.17477500" lon="5.56535200"><ele></ele><time>2014-5-10T2:29:5Z</time></trkpt>
<trkpt lat="44.17471700" lon="5.56518800"><ele></ele><time>2014-5-10T2:29:8Z</time></trkpt>
<trkpt lat="44.17463200" lon="5.56498100"><ele></ele><time>2014-5-10T2:29:11Z</time></trkpt>
<trkpt lat="44.17454600" lon="5.56483100"><ele></ele><time>2014-5-10T2:29:14Z</time></trkpt>
<trkpt lat="44.17449100" lon="5.56472800"><ele></ele><time>2014-5-10T2:29:17Z</time></trkpt>
<trkpt lat="44.17448500" lon="5.56470900"><ele></ele><time>2014-5-10T2:29:20Z</time></trkpt>
<trkpt lat="44.17441400" lon="5.56463000"><ele></ele><time>2014-5-10T2:29:23Z</time></trkpt>
<trkpt lat="44.17438500" lon="5.56449400"><ele></ele><time>2014-5-10T2:29:26Z</time></trkpt>
<trkpt lat="44.17438300" lon="5.56447300"><ele></ele><time>2014-5-10T2:29:29Z</time></trkpt>
<trkpt lat="44.17441300" lon="5.56432900"><ele></ele><time>2014-5-10T2:29:32Z</time></trkpt>
<trkpt lat="44.17445700" lon="5.56419800"><ele></ele><time>2014-5-10T2:29:35Z</time></trkpt>
<trkpt lat="44.17449400" lon="5.56403500"><ele></ele><time>2014-5-10T2:29:38Z</time></trkpt>
<trkpt lat="44.17450700" lon="5.56389000"><ele></ele><time>2014-5-10T2:29:41Z</time></trkpt>
<trkpt lat="44.17455900" lon="5.56372700"><ele></ele><time>2014-5-10T2:29:44Z</time></trkpt>
<trkpt lat="44.17465000" lon="5.56361200"><ele></ele><time>2014-5-10T2:29:47Z</time></trkpt>
<trkpt lat="44.17466600" lon="5.56359700"><ele></ele><time>2014-5-10T2:29:50Z</time></trkpt>
<trkpt lat="44.17480800" lon="5.56354000"><ele></ele><time>2014-5-10T2:29:53Z</time></trkpt>
<trkpt lat="44.17492700" lon="5.56351400"><ele></ele><time>2014-5-10T2:29:56Z</time></trkpt>
<trkpt lat="44.17505900" lon="5.56339700"><ele></ele><time>2014-5-10T2:29:59Z</time></trkpt>
<trkpt lat="44.17510100" lon="5.56325400"><ele></ele><time>2014-5-10T2:30:2Z</time></trkpt>
<trkpt lat="44.17508300" lon="5.56305700"><ele></ele><time>2014-5-10T2:30:5Z</time></trkpt>
<trkpt lat="44.17498100" lon="5.56284700"><ele></ele><time>2014-5-10T2:30:8Z</time></trkpt>
<trkpt lat="44.17487600" lon="5.56264200"><ele></ele><time>2014-5-10T2:30:11Z</time></trkpt>
<trkpt lat="44.17478800" lon="5.56245000"><ele></ele><time>2014-5-10T2:30:14Z</time></trkpt>
<trkpt lat="44.17466600" lon="5.56222000"><ele></ele><time>2014-5-10T2:30:17Z</time></trkpt>
<trkpt lat="44.17456800" lon="5.56208200"><ele></ele><time>2014-5-10T2:30:20Z</time></trkpt>
<trkpt lat="44.17445200" lon="5.56187200"><ele></ele><time>2014-5-10T2:30:23Z</time></trkpt>
<trkpt lat="44.17436600" lon="5.56168100"><ele></ele><time>2014-5-10T2:30:26Z</time></trkpt>
<trkpt lat="44.17426700" lon="5.56143900"><ele></ele><time>2014-5-10T2:30:29Z</time></trkpt>
<trkpt lat="44.17418500" lon="5.56124900"><ele></ele><time>2014-5-10T2:30:32Z</time></trkpt>
<trkpt lat="44.17407000" lon="5.56102200"><ele></ele><time>2014-5-10T2:30:35Z</time></trkpt>
<trkpt lat="44.17399100" lon="5.56078600"><ele></ele><time>2014-5-10T2:30:38Z</time></trkpt>
<trkpt lat="44.17392700" lon="5.56067900"><ele></ele><time>2014-5-10T2:30:41Z</time></trkpt>
<trkpt lat="44.17385400" lon="5.56048000"><ele></ele><time>2014-5-10T2:30:44Z</time></trkpt>
<trkpt lat="44.17378500" lon="5.56033800"><ele></ele><time>2014-5-10T2:30:47Z</time></trkpt>
<trkpt lat="44.17369700" lon="5.56023100"><ele></ele><time>2014-5-10T2:30:50Z</time></trkpt>
<trkpt lat="44.17356500" lon="5.56007200"><ele></ele><time>2014-5-10T2:30:53Z</time></trkpt>
<trkpt lat="44.17346200" lon="5.55998000"><ele></ele><time>2014-5-10T2:30:56Z</time></trkpt>
<trkpt lat="44.17332600" lon="5.55984000"><ele></ele><time>2014-5-10T2:30:59Z</time></trkpt>
<trkpt lat="44.17320400" lon="5.55974100"><ele></ele><time>2014-5-10T2:31:2Z</time></trkpt>
<trkpt lat="44.17305500" lon="5.55964900"><ele></ele><time>2014-5-10T2:31:5Z</time></trkpt>
<trkpt lat="44.17294800" lon="5.55960900"><ele></ele><time>2014-5-10T2:31:8Z</time></trkpt>
<trkpt lat="44.17278500" lon="5.55953900"><ele></ele><time>2014-5-10T2:31:11Z</time></trkpt>
<trkpt lat="44.17261600" lon="5.55948500"><ele></ele><time>2014-5-10T2:31:14Z</time></trkpt>
<trkpt lat="44.17250100" lon="5.55950200"><ele></ele><time>2014-5-10T2:31:17Z</time></trkpt>
<trkpt lat="44.17239500" lon="5.55956100"><ele></ele><time>2014-5-10T2:31:20Z</time></trkpt>
<trkpt lat="44.17226900" lon="5.55961500"><ele></ele><time>2014-5-10T2:31:23Z</time></trkpt>
<trkpt lat="44.17221000" lon="5.55963700"><ele></ele><time>2014-5-10T2:31:26Z</time></trkpt>
<trkpt lat="44.17207600" lon="5.55964300"><ele></ele><time>2014-5-10T2:31:29Z</time></trkpt>
<trkpt lat="44.17193200" lon="5.55957100"><ele></ele><time>2014-5-10T2:31:32Z</time></trkpt>
<trkpt lat="44.17182600" lon="5.55950400"><ele></ele><time>2014-5-10T2:31:35Z</time></trkpt>
<trkpt lat="44.17166000" lon="5.55941900"><ele></ele><time>2014-5-10T2:31:38Z</time></trkpt>
<trkpt lat="44.17149200" lon="5.55940600"><ele></ele><time>2014-5-10T2:31:41Z</time></trkpt>
<trkpt lat="44.17137200" lon="5.55940800"><ele></ele><time>2014-5-10T2:31:44Z</time></trkpt>
<trkpt lat="44.17125900" lon="5.55942100"><ele></ele><time>2014-5-10T2:31:47Z</time></trkpt>
<trkpt lat="44.17115200" lon="5.55944200"><ele></ele><time>2014-5-10T2:31:50Z</time></trkpt>
<trkpt lat="44.17105400" lon="5.55945800"><ele></ele><time>2014-5-10T2:31:53Z</time></trkpt>
<trkpt lat="44.17092400" lon="5.55948100"><ele></ele><time>2014-5-10T2:31:56Z</time></trkpt>
<trkpt lat="44.17078800" lon="5.55948000"><ele></ele><time>2014-5-10T2:31:59Z</time></trkpt>
<trkpt lat="44.17065300" lon="5.55945700"><ele></ele><time>2014-5-10T2:32:2Z</time></trkpt>
<trkpt lat="44.17053000" lon="5.55937700"><ele></ele><time>2014-5-10T2:32:5Z</time></trkpt>
<trkpt lat="44.17040500" lon="5.55929600"><ele></ele><time>2014-5-10T2:32:8Z</time></trkpt>
<trkpt lat="44.17028100" lon="5.55921500"><ele></ele><time>2014-5-10T2:32:11Z</time></trkpt>
<trkpt lat="44.17016600" lon="5.55914200"><ele></ele><time>2014-5-10T2:32:14Z</time></trkpt>
<trkpt lat="44.17005700" lon="5.55912500"><ele></ele><time>2014-5-10T2:32:17Z</time></trkpt>
<trkpt lat="44.16988100" lon="5.55906000"><ele></ele><time>2014-5-10T2:32:20Z</time></trkpt>
<trkpt lat="44.16972400" lon="5.55905500"><ele></ele><time>2014-5-10T2:32:23Z</time></trkpt>
<trkpt lat="44.16954600" lon="5.55902500"><ele></ele><time>2014-5-10T2:32:26Z</time></trkpt>
<trkpt lat="44.16940700" lon="5.55903400"><ele></ele><time>2014-5-10T2:32:29Z</time></trkpt>
<trkpt lat="44.16926800" lon="5.55902300"><ele></ele><time>2014-5-10T2:32:32Z</time></trkpt>
<trkpt lat="44.16916000" lon="5.55901700"><ele></ele><time>2014-5-10T2:32:35Z</time></trkpt>
<trkpt lat="44.16899700" lon="5.55901400"><ele></ele><time>2014-5-10T2:32:38Z</time></trkpt>
<trkpt lat="44.16882400" lon="5.55897900"><ele></ele><time>2014-5-10T2:32:41Z</time></trkpt>
<trkpt lat="44.16862700" lon="5.55890800"><ele></ele><time>2014-5-10T2:32:44Z</time></trkpt>
<trkpt lat="44.16847900" lon="5.55884000"><ele></ele><time>2014-5-10T2:32:47Z</time></trkpt>
<trkpt lat="44.16830200" lon="5.55875300"><ele></ele><time>2014-5-10T2:32:50Z</time></trkpt>
<trkpt lat="44.16816000" lon="5.55869000"><ele></ele><time>2014-5-10T2:32:53Z</time></trkpt>
<trkpt lat="44.16800900" lon="5.55858800"><ele></ele><time>2014-5-10T2:32:56Z</time></trkpt>
<trkpt lat="44.16787500" lon="5.55849100"><ele></ele><time>2014-5-10T2:32:59Z</time></trkpt>
<trkpt lat="44.16774700" lon="5.55836000"><ele></ele><time>2014-5-10T2:33:2Z</time></trkpt>
<trkpt lat="44.16763400" lon="5.55821600"><ele></ele><time>2014-5-10T2:33:5Z</time></trkpt>
<trkpt lat="44.16756900" lon="5.55804300"><ele></ele><time>2014-5-10T2:33:8Z</time></trkpt>
<trkpt lat="44.16756200" lon="5.55787600"><ele></ele><time>2014-5-10T2:33:11Z</time></trkpt>
<trkpt lat="44.16761100" lon="5.55769100"><ele></ele><time>2014-5-10T2:33:14Z</time></trkpt>
<trkpt lat="44.16765300" lon="5.55750200"><ele></ele><time>2014-5-10T2:33:17Z</time></trkpt>
<trkpt lat="44.16764600" lon="5.55741400"><ele></ele><time>2014-5-10T2:33:20Z</time></trkpt>
<trkpt lat="44.16755200" lon="5.55740900"><ele></ele><time>2014-5-10T2:33:23Z</time></trkpt>
<trkpt lat="44.16748100" lon="5.55754500"><ele></ele><time>2014-5-10T2:33:26Z</time></trkpt>
<trkpt lat="44.16736500" lon="5.55787000"><ele></ele><time>2014-5-10T2:33:29Z</time></trkpt>
<trkpt lat="44.16718400" lon="5.55812600"><ele></ele><time>2014-5-10T2:33:32Z</time></trkpt>
<trkpt lat="44.16708200" lon="5.55826900"><ele></ele><time>2014-5-10T2:33:35Z</time></trkpt>
<trkpt lat="44.16694900" lon="5.55842900"><ele></ele><time>2014-5-10T2:33:38Z</time></trkpt>
<trkpt lat="44.16688600" lon="5.55849100"><ele></ele><time>2014-5-10T2:33:41Z</time></trkpt>
<trkpt lat="44.16688500" lon="5.55849600"><ele></ele><time>2014-5-10T2:33:44Z</time></trkpt>
<trkpt lat="44.16685800" lon="5.55854300"><ele></ele><time>2014-5-10T2:33:47Z</time></trkpt>
<trkpt lat="44.16684300" lon="5.55857600"><ele></ele><time>2014-5-10T2:33:50Z</time></trkpt>
<trkpt lat="44.16684600" lon="5.55843300"><ele></ele><time>2014-5-10T2:33:53Z</time></trkpt>
<trkpt lat="44.16684100" lon="5.55841900"><ele></ele><time>2014-5-10T2:33:56Z</time></trkpt>
<trkpt lat="44.16667500" lon="5.55853900"><ele></ele><time>2014-5-10T2:33:59Z</time></trkpt>
<trkpt lat="44.16654600" lon="5.55864700"><ele></ele><time>2014-5-10T2:34:2Z</time></trkpt>
<trkpt lat="44.16615500" lon="5.55887800"><ele></ele><time>2014-5-10T2:34:5Z</time></trkpt>
<trkpt lat="44.16571700" lon="5.55904100"><ele></ele><time>2014-5-10T2:34:8Z</time></trkpt>
<trkpt lat="44.16513000" lon="5.55916300"><ele></ele><time>2014-5-10T2:34:11Z</time></trkpt>
<trkpt lat="44.16465900" lon="5.55933100"><ele></ele><time>2014-5-10T2:34:14Z</time></trkpt>
<trkpt lat="44.16447200" lon="5.55944100"><ele></ele><time>2014-5-10T2:34:17Z</time></trkpt>
<trkpt lat="44.16396800" lon="5.55955300"><ele></ele><time>2014-5-10T2:34:20Z</time></trkpt>
<trkpt lat="44.16374800" lon="5.55954600"><ele></ele><time>2014-5-10T2:34:23Z</time></trkpt>
<trkpt lat="44.16329100" lon="5.55967400"><ele></ele><time>2014-5-10T2:34:26Z</time></trkpt>
<trkpt lat="44.16277700" lon="5.56006600"><ele></ele><time>2014-5-10T2:34:29Z</time></trkpt>
<trkpt lat="44.16255100" lon="5.56041600"><ele></ele><time>2014-5-10T2:34:32Z</time></trkpt>
<trkpt lat="44.16240200" lon="5.56053800"><ele></ele><time>2014-5-10T2:34:35Z</time></trkpt>
<trkpt lat="44.16237400" lon="5.56047800"><ele></ele><time>2014-5-10T2:34:38Z</time></trkpt>
<trkpt lat="44.16237000" lon="5.56031800"><ele></ele><time>2014-5-10T2:34:41Z</time></trkpt>
<trkpt lat="44.16244300" lon="5.55977900"><ele></ele><time>2014-5-10T2:34:44Z</time></trkpt>
<trkpt lat="44.16238900" lon="5.55961800"><ele></ele><time>2014-5-10T2:34:47Z</time></trkpt>
<trkpt lat="44.16229200" lon="5.55965100"><ele></ele><time>2014-5-10T2:34:50Z</time></trkpt>
<trkpt lat="44.16225000" lon="5.55970300"><ele></ele><time>2014-5-10T2:34:53Z</time></trkpt>
<trkpt lat="44.16196700" lon="5.56012000"><ele></ele><time>2014-5-10T2:34:56Z</time></trkpt>
<trkpt lat="44.16186500" lon="5.56028000"><ele></ele><time>2014-5-10T2:34:59Z</time></trkpt>
<trkpt lat="44.16170800" lon="5.56079800"><ele></ele><time>2014-5-10T2:35:2Z</time></trkpt>
<trkpt lat="44.16165800" lon="5.56158900"><ele></ele><time>2014-5-10T2:35:5Z</time></trkpt>
<trkpt lat="44.16148600" lon="5.56213900"><ele></ele><time>2014-5-10T2:35:8Z</time></trkpt>
<trkpt lat="44.16133800" lon="5.56237400"><ele></ele><time>2014-5-10T2:35:11Z</time></trkpt>
<trkpt lat="44.16101900" lon="5.56279500"><ele></ele><time>2014-5-10T2:35:14Z</time></trkpt>
<trkpt lat="44.16039500" lon="5.56330700"><ele></ele><time>2014-5-10T2:35:17Z</time></trkpt>
<trkpt lat="44.16011100" lon="5.56350100"><ele></ele><time>2014-5-10T2:35:20Z</time></trkpt>
<trkpt lat="44.15969800" lon="5.56362500"><ele></ele><time>2014-5-10T2:35:23Z</time></trkpt>
<trkpt lat="44.15959300" lon="5.56361700"><ele></ele><time>2014-5-10T2:35:26Z</time></trkpt>
<trkpt lat="44.15907600" lon="5.56366600"><ele></ele><time>2014-5-10T2:35:29Z</time></trkpt>
<trkpt lat="44.15897700" lon="5.56370300"><ele></ele><time>2014-5-10T2:35:32Z</time></trkpt>
<trkpt lat="44.15853500" lon="5.56401900"><ele></ele><time>2014-5-10T2:35:35Z</time></trkpt>
<trkpt lat="44.15845300" lon="5.56409100"><ele></ele><time>2014-5-10T2:35:38Z</time></trkpt>
<trkpt lat="44.15830300" lon="5.56426100"><ele></ele><time>2014-5-10T2:35:41Z</time></trkpt>
<trkpt lat="44.15798000" lon="5.56445600"><ele></ele><time>2014-5-10T2:35:44Z</time></trkpt>
<trkpt lat="44.15774800" lon="5.56430800"><ele></ele><time>2014-5-10T2:35:47Z</time></trkpt>
<trkpt lat="44.15755000" lon="5.56407400"><ele></ele><time>2014-5-10T2:35:50Z</time></trkpt>
<trkpt lat="44.15722900" lon="5.56390600"><ele></ele><time>2014-5-10T2:35:53Z</time></trkpt>
<trkpt lat="44.15698500" lon="5.56402300"><ele></ele><time>2014-5-10T2:35:56Z</time></trkpt>
<trkpt lat="44.15684800" lon="5.56417600"><ele></ele><time>2014-5-10T2:35:59Z</time></trkpt>
<trkpt lat="44.15651800" lon="5.56461100"><ele></ele><time>2014-5-10T2:36:2Z</time></trkpt>
<trkpt lat="44.15611400" lon="5.56492000"><ele></ele><time>2014-5-10T2:36:5Z</time></trkpt>
<trkpt lat="44.15602300" lon="5.56495100"><ele></ele><time>2014-5-10T2:36:8Z</time></trkpt>
<trkpt lat="44.15517900" lon="5.56508000"><ele></ele><time>2014-5-10T2:36:11Z</time></trkpt>
<trkpt lat="44.15508300" lon="5.56507300"><ele></ele><time>2014-5-10T2:36:14Z</time></trkpt>
<trkpt lat="44.15471700" lon="5.56494800"><ele></ele><time>2014-5-10T2:36:17Z</time></trkpt>
<trkpt lat="44.15446700" lon="5.56478400"><ele></ele><time>2014-5-10T2:36:20Z</time></trkpt>
<trkpt lat="44.15443000" lon="5.56475400"><ele></ele><time>2014-5-10T2:36:23Z</time></trkpt>
<trkpt lat="44.15442700" lon="5.56474900"><ele></ele><time>2014-5-10T2:36:26Z</time></trkpt>
<trkpt lat="44.15433600" lon="5.56471400"><ele></ele><time>2014-5-10T2:36:29Z</time></trkpt>
<trkpt lat="44.15421900" lon="5.56467800"><ele></ele><time>2014-5-10T2:36:32Z</time></trkpt>
<trkpt lat="44.15406700" lon="5.56466600"><ele></ele><time>2014-5-10T2:36:35Z</time></trkpt>
<trkpt lat="44.15401100" lon="5.56466800"><ele></ele><time>2014-5-10T2:36:38Z</time></trkpt>
<trkpt lat="44.15362800" lon="5.56478000"><ele></ele><time>2014-5-10T2:36:41Z</time></trkpt>
<trkpt lat="44.15317100" lon="5.56496200"><ele></ele><time>2014-5-10T2:36:44Z</time></trkpt>
<trkpt lat="44.15267700" lon="5.56513800"><ele></ele><time>2014-5-10T2:36:47Z</time></trkpt>
<trkpt lat="44.15217200" lon="5.56524100"><ele></ele><time>2014-5-10T2:36:50Z</time></trkpt>
<trkpt lat="44.15180500" lon="5.56551500"><ele></ele><time>2014-5-10T2:36:53Z</time></trkpt>
<trkpt lat="44.15174400" lon="5.56560100"><ele></ele><time>2014-5-10T2:36:56Z</time></trkpt>
<trkpt lat="44.15124600" lon="5.56632100"><ele></ele><time>2014-5-10T2:36:59Z</time></trkpt>
<trkpt lat="44.15094300" lon="5.56677000"><ele></ele><time>2014-5-10T2:37:2Z</time></trkpt>
<trkpt lat="44.15088700" lon="5.56686900"><ele></ele><time>2014-5-10T2:37:5Z</time></trkpt>
<trkpt lat="44.15061700" lon="5.56753200"><ele></ele><time>2014-5-10T2:37:8Z</time></trkpt>
<trkpt lat="44.15044000" lon="5.56782500"><ele></ele><time>2014-5-10T2:37:11Z</time></trkpt>
<trkpt lat="44.14980400" lon="5.56853400"><ele></ele><time>2014-5-10T2:37:14Z</time></trkpt>
<trkpt lat="44.14918700" lon="5.56909400"><ele></ele><time>2014-5-10T2:37:17Z</time></trkpt>
<trkpt lat="44.14877400" lon="5.56934300"><ele></ele><time>2014-5-10T2:37:20Z</time></trkpt>
<trkpt lat="44.14849500" lon="5.56940400"><ele></ele><time>2014-5-10T2:37:23Z</time></trkpt>
<trkpt lat="44.14793600" lon="5.56947400"><ele></ele><time>2014-5-10T2:37:26Z</time></trkpt>
<trkpt lat="44.14765800" lon="5.56950500"><ele></ele><time>2014-5-10T2:37:29Z</time></trkpt>
<trkpt lat="44.14711100" lon="5.56957300"><ele></ele><time>2014-5-10T2:37:32Z</time></trkpt>
<trkpt lat="44.14613800" lon="5.56963400"><ele></ele><time>2014-5-10T2:37:35Z</time></trkpt>
<trkpt lat="44.14569400" lon="5.56964200"><ele></ele><time>2014-5-10T2:37:38Z</time></trkpt>
<trkpt lat="44.14480000" lon="5.56961700"><ele></ele><time>2014-5-10T2:37:41Z</time></trkpt>
<trkpt lat="44.14418700" lon="5.56954900"><ele></ele><time>2014-5-10T2:37:44Z</time></trkpt>
<trkpt lat="44.14329400" lon="5.56944100"><ele></ele><time>2014-5-10T2:37:47Z</time></trkpt>
<trkpt lat="44.14302700" lon="5.56941600"><ele></ele><time>2014-5-10T2:37:50Z</time></trkpt>
<trkpt lat="44.14232000" lon="5.56932500"><ele></ele><time>2014-5-10T2:37:53Z</time></trkpt>
<trkpt lat="44.14161200" lon="5.56913600"><ele></ele><time>2014-5-10T2:37:56Z</time></trkpt>
<trkpt lat="44.14106600" lon="5.56884800"><ele></ele><time>2014-5-10T2:37:59Z</time></trkpt>
<trkpt lat="44.14079400" lon="5.56870000"><ele></ele><time>2014-5-10T2:38:2Z</time></trkpt>
<trkpt lat="44.14032100" lon="5.56857100"><ele></ele><time>2014-5-10T2:38:5Z</time></trkpt>
<trkpt lat="44.14022300" lon="5.56856700"><ele></ele><time>2014-5-10T2:38:8Z</time></trkpt>
<trkpt lat="44.13931600" lon="5.56855300"><ele></ele><time>2014-5-10T2:38:11Z</time></trkpt>
<trkpt lat="44.13871600" lon="5.56855200"><ele></ele><time>2014-5-10T2:38:14Z</time></trkpt>
<trkpt lat="44.13785000" lon="5.56854500"><ele></ele><time>2014-5-10T2:38:17Z</time></trkpt>
<trkpt lat="44.13698700" lon="5.56853600"><ele></ele><time>2014-5-10T2:38:20Z</time></trkpt>
<trkpt lat="44.13641600" lon="5.56846100"><ele></ele><time>2014-5-10T2:38:23Z</time></trkpt>
<trkpt lat="44.13589100" lon="5.56825900"><ele></ele><time>2014-5-10T2:38:26Z</time></trkpt>
<trkpt lat="44.13535500" lon="5.56792100"><ele></ele><time>2014-5-10T2:38:29Z</time></trkpt>
<trkpt lat="44.13487400" lon="5.56775400"><ele></ele><time>2014-5-10T2:38:32Z</time></trkpt>
<trkpt lat="44.13445900" lon="5.56775700"><ele></ele><time>2014-5-10T2:38:35Z</time></trkpt>
<trkpt lat="44.13389900" lon="5.56790900"><ele></ele><time>2014-5-10T2:38:38Z</time></trkpt>
<trkpt lat="44.13331200" lon="5.56812100"><ele></ele><time>2014-5-10T2:38:41Z</time></trkpt>
<trkpt lat="44.13295900" lon="5.56825000"><ele></ele><time>2014-5-10T2:38:44Z</time></trkpt>
<trkpt lat="44.13228200" lon="5.56850100"><ele></ele><time>2014-5-10T2:38:47Z</time></trkpt>
<trkpt lat="44.13159300" lon="5.56874200"><ele></ele><time>2014-5-10T2:38:50Z</time></trkpt>
<trkpt lat="44.13093500" lon="5.56898100"><ele></ele><time>2014-5-10T2:38:53Z</time></trkpt>
<trkpt lat="44.13017500" lon="5.56925900"><ele></ele><time>2014-5-10T2:38:56Z</time></trkpt>
<trkpt lat="44.12964900" lon="5.56955300"><ele></ele><time>2014-5-10T2:38:59Z</time></trkpt>
<trkpt lat="44.12899300" lon="5.57009100"><ele></ele><time>2014-5-10T2:39:2Z</time></trkpt>
<trkpt lat="44.12847000" lon="5.57038000"><ele></ele><time>2014-5-10T2:39:5Z</time></trkpt>
<trkpt lat="44.12794600" lon="5.57052100"><ele></ele><time>2014-5-10T2:39:8Z</time></trkpt>
<trkpt lat="44.12730200" lon="5.57072800"><ele></ele><time>2014-5-10T2:39:11Z</time></trkpt>
<trkpt lat="44.12660400" lon="5.57097800"><ele></ele><time>2014-5-10T2:39:14Z</time></trkpt>
<trkpt lat="44.12589700" lon="5.57128000"><ele></ele><time>2014-5-10T2:39:17Z</time></trkpt>
<trkpt lat="44.12544600" lon="5.57162400"><ele></ele><time>2014-5-10T2:39:20Z</time></trkpt>
<trkpt lat="44.12500700" lon="5.57206200"><ele></ele><time>2014-5-10T2:39:23Z</time></trkpt>
<trkpt lat="44.12459600" lon="5.57262800"><ele></ele><time>2014-5-10T2:39:26Z</time></trkpt>
<trkpt lat="44.12421500" lon="5.57308900"><ele></ele><time>2014-5-10T2:39:29Z</time></trkpt>
<trkpt lat="44.12369500" lon="5.57360400"><ele></ele><time>2014-5-10T2:39:32Z</time></trkpt>
<trkpt lat="44.12329200" lon="5.57409500"><ele></ele><time>2014-5-10T2:39:35Z</time></trkpt>
<trkpt lat="44.12286400" lon="5.57472400"><ele></ele><time>2014-5-10T2:39:38Z</time></trkpt>
<trkpt lat="44.12259600" lon="5.57512200"><ele></ele><time>2014-5-10T2:39:41Z</time></trkpt>
<trkpt lat="44.12241400" lon="5.57549600"><ele></ele><time>2014-5-10T2:39:44Z</time></trkpt>
<trkpt lat="44.12214500" lon="5.57623100"><ele></ele><time>2014-5-10T2:39:47Z</time></trkpt>
<trkpt lat="44.12191500" lon="5.57655600"><ele></ele><time>2014-5-10T2:39:50Z</time></trkpt>
<trkpt lat="44.12168100" lon="5.57666600"><ele></ele><time>2014-5-10T2:39:53Z</time></trkpt>
<trkpt lat="44.12103900" lon="5.57671300"><ele></ele><time>2014-5-10T2:39:56Z</time></trkpt>
<trkpt lat="44.12096200" lon="5.57670900"><ele></ele><time>2014-5-10T2:39:59Z</time></trkpt>
<trkpt lat="44.12059400" lon="5.57656000"><ele></ele><time>2014-5-10T2:40:2Z</time></trkpt>
<trkpt lat="44.12011100" lon="5.57616300"><ele></ele><time>2014-5-10T2:40:5Z</time></trkpt>
<trkpt lat="44.11966000" lon="5.57577300"><ele></ele><time>2014-5-10T2:40:8Z</time></trkpt>
<trkpt lat="44.11937900" lon="5.57565100"><ele></ele><time>2014-5-10T2:40:11Z</time></trkpt>
<trkpt lat="44.11884800" lon="5.57568100"><ele></ele><time>2014-5-10T2:40:14Z</time></trkpt>
<trkpt lat="44.11847700" lon="5.57590200"><ele></ele><time>2014-5-10T2:40:17Z</time></trkpt>
<trkpt lat="44.11803400" lon="5.57630400"><ele></ele><time>2014-5-10T2:40:20Z</time></trkpt>
<trkpt lat="44.11754200" lon="5.57666400"><ele></ele><time>2014-5-10T2:40:23Z</time></trkpt>
<trkpt lat="44.11702300" lon="5.57686600"><ele></ele><time>2014-5-10T2:40:26Z</time></trkpt>
<trkpt lat="44.11676900" lon="5.57691000"><ele></ele><time>2014-5-10T2:40:29Z</time></trkpt>
<trkpt lat="44.11644600" lon="5.57683700"><ele></ele><time>2014-5-10T2:40:32Z</time></trkpt>
<trkpt lat="44.11614700" lon="5.57666200"><ele></ele><time>2014-5-10T2:40:35Z</time></trkpt>
<trkpt lat="44.11560500" lon="5.57635600"><ele></ele><time>2014-5-10T2:40:38Z</time></trkpt>
<trkpt lat="44.11493800" lon="5.57610600"><ele></ele><time>2014-5-10T2:40:41Z</time></trkpt>
<trkpt lat="44.11455200" lon="5.57584400"><ele></ele><time>2014-5-10T2:40:44Z</time></trkpt>
<trkpt lat="44.11413500" lon="5.57539500"><ele></ele><time>2014-5-10T2:40:47Z</time></trkpt>
<trkpt lat="44.11352800" lon="5.57475600"><ele></ele><time>2014-5-10T2:40:50Z</time></trkpt>
<trkpt lat="44.11317800" lon="5.57449600"><ele></ele><time>2014-5-10T2:40:53Z</time></trkpt>
<trkpt lat="44.11269600" lon="5.57434800"><ele></ele><time>2014-5-10T2:40:56Z</time></trkpt>
<trkpt lat="44.11204100" lon="5.57414600"><ele></ele><time>2014-5-10T2:40:59Z</time></trkpt>
<trkpt lat="44.11152800" lon="5.57377600"><ele></ele><time>2014-5-10T2:41:2Z</time></trkpt>
<trkpt lat="44.11089600" lon="5.57331800"><ele></ele><time>2014-5-10T2:41:5Z</time></trkpt>
<trkpt lat="44.11047900" lon="5.57317000"><ele></ele><time>2014-5-10T2:41:8Z</time></trkpt>
<trkpt lat="44.10993900" lon="5.57307100"><ele></ele><time>2014-5-10T2:41:11Z</time></trkpt>
<trkpt lat="44.10947300" lon="5.57304400"><ele></ele><time>2014-5-10T2:41:14Z</time></trkpt>
<trkpt lat="44.10901900" lon="5.57306600"><ele></ele><time>2014-5-10T2:41:17Z</time></trkpt>
<trkpt lat="44.10864700" lon="5.57316600"><ele></ele><time>2014-5-10T2:41:20Z</time></trkpt>
<trkpt lat="44.10804200" lon="5.57337000"><ele></ele><time>2014-5-10T2:41:23Z</time></trkpt>
<trkpt lat="44.10764500" lon="5.57348500"><ele></ele><time>2014-5-10T2:41:26Z</time></trkpt>
<trkpt lat="44.10741600" lon="5.57348300"><ele></ele><time>2014-5-10T2:41:29Z</time></trkpt>
<trkpt lat="44.10720100" lon="5.57341800"><ele></ele><time>2014-5-10T2:41:32Z</time></trkpt>
<trkpt lat="44.10683000" lon="5.57309200"><ele></ele><time>2014-5-10T2:41:35Z</time></trkpt>
<trkpt lat="44.10648100" lon="5.57265900"><ele></ele><time>2014-5-10T2:41:38Z</time></trkpt>
<trkpt lat="44.10621900" lon="5.57234100"><ele></ele><time>2014-5-10T2:41:41Z</time></trkpt>
<trkpt lat="44.10587100" lon="5.57193800"><ele></ele><time>2014-5-10T2:41:44Z</time></trkpt>
<trkpt lat="44.10534200" lon="5.57139600"><ele></ele><time>2014-5-10T2:41:47Z</time></trkpt>
<trkpt lat="44.10503700" lon="5.57118000"><ele></ele><time>2014-5-10T2:41:50Z</time></trkpt>
<trkpt lat="44.10472000" lon="5.57109900"><ele></ele><time>2014-5-10T2:41:53Z</time></trkpt>
<trkpt lat="44.10435100" lon="5.57121600"><ele></ele><time>2014-5-10T2:41:56Z</time></trkpt>
<trkpt lat="44.10393000" lon="5.57139900"><ele></ele><time>2014-5-10T2:41:59Z</time></trkpt>
<trkpt lat="44.10354400" lon="5.57151000"><ele></ele><time>2014-5-10T2:42:2Z</time></trkpt>
<trkpt lat="44.10297900" lon="5.57160900"><ele></ele><time>2014-5-10T2:42:5Z</time></trkpt>
<trkpt lat="44.10229600" lon="5.57172400"><ele></ele><time>2014-5-10T2:42:8Z</time></trkpt>
<trkpt lat="44.10171200" lon="5.57183900"><ele></ele><time>2014-5-10T2:42:11Z</time></trkpt>
<trkpt lat="44.10131500" lon="5.57201000"><ele></ele><time>2014-5-10T2:42:14Z</time></trkpt>
<trkpt lat="44.10074400" lon="5.57240200"><ele></ele><time>2014-5-10T2:42:17Z</time></trkpt>
<trkpt lat="44.10032400" lon="5.57258700"><ele></ele><time>2014-5-10T2:42:20Z</time></trkpt>
<trkpt lat="44.10008400" lon="5.57263200"><ele></ele><time>2014-5-10T2:42:23Z</time></trkpt>
<trkpt lat="44.09984000" lon="5.57263400"><ele></ele><time>2014-5-10T2:42:26Z</time></trkpt>
<trkpt lat="44.09954700" lon="5.57249800"><ele></ele><time>2014-5-10T2:42:29Z</time></trkpt>
<trkpt lat="44.09937700" lon="5.57222700"><ele></ele><time>2014-5-10T2:42:32Z</time></trkpt>
<trkpt lat="44.09934800" lon="5.57214300"><ele></ele><time>2014-5-10T2:42:35Z</time></trkpt>
<trkpt lat="44.09910900" lon="5.57142300"><ele></ele><time>2014-5-10T2:42:38Z</time></trkpt>
<trkpt lat="44.09904700" lon="5.57122100"><ele></ele><time>2014-5-10T2:42:41Z</time></trkpt>
<trkpt lat="44.09887500" lon="5.57079700"><ele></ele><time>2014-5-10T2:42:44Z</time></trkpt>
<trkpt lat="44.09855800" lon="5.57041900"><ele></ele><time>2014-5-10T2:42:47Z</time></trkpt>
<trkpt lat="44.09791800" lon="5.56988900"><ele></ele><time>2014-5-10T2:42:50Z</time></trkpt>
<trkpt lat="44.09756800" lon="5.56931600"><ele></ele><time>2014-5-10T2:42:53Z</time></trkpt>
<trkpt lat="44.09751800" lon="5.56913900"><ele></ele><time>2014-5-10T2:42:56Z</time></trkpt>
<trkpt lat="44.09726200" lon="5.56799600"><ele></ele><time>2014-5-10T2:42:59Z</time></trkpt>
<trkpt lat="44.09715400" lon="5.56761700"><ele></ele><time>2014-5-10T2:43:2Z</time></trkpt>
<trkpt lat="44.09665900" lon="5.56661700"><ele></ele><time>2014-5-10T2:43:5Z</time></trkpt>
<trkpt lat="44.09619200" lon="5.56588400"><ele></ele><time>2014-5-10T2:43:8Z</time></trkpt>
<trkpt lat="44.09564100" lon="5.56533700"><ele></ele><time>2014-5-10T2:43:11Z</time></trkpt>
<trkpt lat="44.09472000" lon="5.56452500"><ele></ele><time>2014-5-10T2:43:14Z</time></trkpt>
<trkpt lat="44.09407500" lon="5.56394700"><ele></ele><time>2014-5-10T2:43:17Z</time></trkpt>
<trkpt lat="44.09376100" lon="5.56345400"><ele></ele><time>2014-5-10T2:43:20Z</time></trkpt>
<trkpt lat="44.09331500" lon="5.56227000"><ele></ele><time>2014-5-10T2:43:23Z</time></trkpt>
<trkpt lat="44.09316900" lon="5.56186400"><ele></ele><time>2014-5-10T2:43:26Z</time></trkpt>
<trkpt lat="44.09293800" lon="5.56129600"><ele></ele><time>2014-5-10T2:43:29Z</time></trkpt>
<trkpt lat="44.09270000" lon="5.56086600"><ele></ele><time>2014-5-10T2:43:32Z</time></trkpt>
<trkpt lat="44.09231800" lon="5.56027700"><ele></ele><time>2014-5-10T2:43:35Z</time></trkpt>
<trkpt lat="44.09213200" lon="5.55998600"><ele></ele><time>2014-5-10T2:43:38Z</time></trkpt>
<trkpt lat="44.09172100" lon="5.55941600"><ele></ele><time>2014-5-10T2:43:41Z</time></trkpt>
<trkpt lat="44.09130000" lon="5.55904000"><ele></ele><time>2014-5-10T2:43:44Z</time></trkpt>
<trkpt lat="44.09075900" lon="5.55870600"><ele></ele><time>2014-5-10T2:43:47Z</time></trkpt>
<trkpt lat="44.09036400" lon="5.55848600"><ele></ele><time>2014-5-10T2:43:50Z</time></trkpt>
<trkpt lat="44.08987100" lon="5.55819200"><ele></ele><time>2014-5-10T2:43:53Z</time></trkpt>
<trkpt lat="44.08977300" lon="5.55812000"><ele></ele><time>2014-5-10T2:43:56Z</time></trkpt>
<trkpt lat="44.08924000" lon="5.55753500"><ele></ele><time>2014-5-10T2:43:59Z</time></trkpt>
<trkpt lat="44.08863400" lon="5.55680600"><ele></ele><time>2014-5-10T2:44:2Z</time></trkpt>
<trkpt lat="44.08795300" lon="5.55599100"><ele></ele><time>2014-5-10T2:44:5Z</time></trkpt>
<trkpt lat="44.08740000" lon="5.55533700"><ele></ele><time>2014-5-10T2:44:8Z</time></trkpt>
<trkpt lat="44.08717400" lon="5.55506900"><ele></ele><time>2014-5-10T2:44:11Z</time></trkpt>
<trkpt lat="44.08681000" lon="5.55460700"><ele></ele><time>2014-5-10T2:44:14Z</time></trkpt>
<trkpt lat="44.08650900" lon="5.55409000"><ele></ele><time>2014-5-10T2:44:17Z</time></trkpt>
<trkpt lat="44.08612100" lon="5.55326500"><ele></ele><time>2014-5-10T2:44:20Z</time></trkpt>
<trkpt lat="44.08580200" lon="5.55258500"><ele></ele><time>2014-5-10T2:44:23Z</time></trkpt>
<trkpt lat="44.08551600" lon="5.55212600"><ele></ele><time>2014-5-10T2:44:26Z</time></trkpt>
<trkpt lat="44.08503600" lon="5.55153400"><ele></ele><time>2014-5-10T2:44:29Z</time></trkpt>
<trkpt lat="44.08456600" lon="5.55096000"><ele></ele><time>2014-5-10T2:44:32Z</time></trkpt>
<trkpt lat="44.08428900" lon="5.55062100"><ele></ele><time>2014-5-10T2:44:35Z</time></trkpt>
<trkpt lat="44.08406900" lon="5.55044800"><ele></ele><time>2014-5-10T2:44:38Z</time></trkpt>
<trkpt lat="44.08393600" lon="5.55038100"><ele></ele><time>2014-5-10T2:44:41Z</time></trkpt>
<trkpt lat="44.08367900" lon="5.55031700"><ele></ele><time>2014-5-10T2:44:44Z</time></trkpt>
<trkpt lat="44.08348200" lon="5.55031300"><ele></ele><time>2014-5-10T2:44:47Z</time></trkpt>
<trkpt lat="44.08316700" lon="5.55035400"><ele></ele><time>2014-5-10T2:44:50Z</time></trkpt>
<trkpt lat="44.08276800" lon="5.55043200"><ele></ele><time>2014-5-10T2:44:53Z</time></trkpt>
<trkpt lat="44.08225300" lon="5.55050400"><ele></ele><time>2014-5-10T2:44:56Z</time></trkpt>
<trkpt lat="44.08192300" lon="5.55053000"><ele></ele><time>2014-5-10T2:44:59Z</time></trkpt>
<trkpt lat="44.08183300" lon="5.55051200"><ele></ele><time>2014-5-10T2:45:2Z</time></trkpt>
<trkpt lat="44.08183100" lon="5.55051000"><ele></ele><time>2014-5-10T2:45:5Z</time></trkpt>
<trkpt lat="44.08180300" lon="5.55054000"><ele></ele><time>2014-5-10T2:45:8Z</time></trkpt>
<trkpt lat="44.08166800" lon="5.55060500"><ele></ele><time>2014-5-10T2:45:11Z</time></trkpt>
<trkpt lat="44.08159200" lon="5.55064300"><ele></ele><time>2014-5-10T2:45:14Z</time></trkpt>
<trkpt lat="44.08142100" lon="5.55066400"><ele></ele><time>2014-5-10T2:45:17Z</time></trkpt>
<trkpt lat="44.08138300" lon="5.55064600"><ele></ele><time>2014-5-10T2:45:20Z</time></trkpt>
<trkpt lat="44.08131000" lon="5.55060300"><ele></ele><time>2014-5-10T2:45:23Z</time></trkpt>
<trkpt lat="44.08104700" lon="5.55046300"><ele></ele><time>2014-5-10T2:45:26Z</time></trkpt>
<trkpt lat="44.08092900" lon="5.55037400"><ele></ele><time>2014-5-10T2:45:29Z</time></trkpt>
<trkpt lat="44.08074400" lon="5.55019700"><ele></ele><time>2014-5-10T2:45:32Z</time></trkpt>
<trkpt lat="44.08060700" lon="5.55000800"><ele></ele><time>2014-5-10T2:45:35Z</time></trkpt>
<trkpt lat="44.08045100" lon="5.54976400"><ele></ele><time>2014-5-10T2:45:38Z</time></trkpt>
<trkpt lat="44.08034200" lon="5.54961800"><ele></ele><time>2014-5-10T2:45:41Z</time></trkpt>
<trkpt lat="44.08026500" lon="5.54947600"><ele></ele><time>2014-5-10T2:45:44Z</time></trkpt>
<trkpt lat="44.08012700" lon="5.54928300"><ele></ele><time>2014-5-10T2:45:47Z</time></trkpt>
<trkpt lat="44.07988500" lon="5.54889500"><ele></ele><time>2014-5-10T2:45:50Z</time></trkpt>
<trkpt lat="44.07967700" lon="5.54856300"><ele></ele><time>2014-5-10T2:45:53Z</time></trkpt>
<trkpt lat="44.07951200" lon="5.54831000"><ele></ele><time>2014-5-10T2:45:56Z</time></trkpt>
<trkpt lat="44.07939400" lon="5.54811900"><ele></ele><time>2014-5-10T2:45:59Z</time></trkpt>
<trkpt lat="44.07912200" lon="5.54794500"><ele></ele><time>2014-5-10T2:46:2Z</time></trkpt>
<trkpt lat="44.07889100" lon="5.54790100"><ele></ele><time>2014-5-10T2:46:5Z</time></trkpt>
<trkpt lat="44.07845400" lon="5.54785800"><ele></ele><time>2014-5-10T2:46:8Z</time></trkpt>
<trkpt lat="44.07836200" lon="5.54785000"><ele></ele><time>2014-5-10T2:46:11Z</time></trkpt>
<trkpt lat="44.07817600" lon="5.54782700"><ele></ele><time>2014-5-10T2:46:14Z</time></trkpt>
<trkpt lat="44.07799200" lon="5.54776800"><ele></ele><time>2014-5-10T2:46:17Z</time></trkpt>
<trkpt lat="44.07755100" lon="5.54747400"><ele></ele><time>2014-5-10T2:46:20Z</time></trkpt>
<trkpt lat="44.07699500" lon="5.54702000"><ele></ele><time>2014-5-10T2:46:23Z</time></trkpt>
<trkpt lat="44.07669900" lon="5.54677400"><ele></ele><time>2014-5-10T2:46:26Z</time></trkpt>
<trkpt lat="44.07630600" lon="5.54644000"><ele></ele><time>2014-5-10T2:46:29Z</time></trkpt>
<trkpt lat="44.07601700" lon="5.54619100"><ele></ele><time>2014-5-10T2:46:32Z</time></trkpt>
<trkpt lat="44.07573000" lon="5.54595800"><ele></ele><time>2014-5-10T2:46:35Z</time></trkpt>
<trkpt lat="44.07523100" lon="5.54567500"><ele></ele><time>2014-5-10T2:46:38Z</time></trkpt>
<trkpt lat="44.07470800" lon="5.54557300"><ele></ele><time>2014-5-10T2:46:41Z</time></trkpt>
<trkpt lat="44.07366900" lon="5.54536700"><ele></ele><time>2014-5-10T2:46:44Z</time></trkpt>
<trkpt lat="44.07260800" lon="5.54511000"><ele></ele><time>2014-5-10T2:46:47Z</time></trkpt>
<trkpt lat="44.07153200" lon="5.54482500"><ele></ele><time>2014-5-10T2:46:50Z</time></trkpt>
<trkpt lat="44.07084600" lon="5.54465700"><ele></ele><time>2014-5-10T2:46:53Z</time></trkpt>
<trkpt lat="44.07040600" lon="5.54459900"><ele></ele><time>2014-5-10T2:46:56Z</time></trkpt>
<trkpt lat="44.06986200" lon="5.54453700"><ele></ele><time>2014-5-10T2:46:59Z</time></trkpt>
<trkpt lat="44.06915300" lon="5.54445900"><ele></ele><time>2014-5-10T2:47:2Z</time></trkpt>
<trkpt lat="44.06860900" lon="5.54440600"><ele></ele><time>2014-5-10T2:47:5Z</time></trkpt>
<trkpt lat="44.06823000" lon="5.54437000"><ele></ele><time>2014-5-10T2:47:8Z</time></trkpt>
<trkpt lat="44.06752900" lon="5.54429100"><ele></ele><time>2014-5-10T2:47:11Z</time></trkpt>
<trkpt lat="44.06679200" lon="5.54422800"><ele></ele><time>2014-5-10T2:47:14Z</time></trkpt>
<trkpt lat="44.06635400" lon="5.54412100"><ele></ele><time>2014-5-10T2:47:17Z</time></trkpt>
<trkpt lat="44.06564800" lon="5.54384000"><ele></ele><time>2014-5-10T2:47:20Z</time></trkpt>
<trkpt lat="44.06509500" lon="5.54350900"><ele></ele><time>2014-5-10T2:47:23Z</time></trkpt>
<trkpt lat="44.06448500" lon="5.54308900"><ele></ele><time>2014-5-10T2:47:26Z</time></trkpt>
<trkpt lat="44.06380000" lon="5.54269600"><ele></ele><time>2014-5-10T2:47:29Z</time></trkpt>
<trkpt lat="44.06316000" lon="5.54249300"><ele></ele><time>2014-5-10T2:47:32Z</time></trkpt>
<trkpt lat="44.06263100" lon="5.54243400"><ele></ele><time>2014-5-10T2:47:35Z</time></trkpt>
<trkpt lat="44.06181800" lon="5.54241300"><ele></ele><time>2014-5-10T2:47:38Z</time></trkpt>
<trkpt lat="44.06112400" lon="5.54244300"><ele></ele><time>2014-5-10T2:47:41Z</time></trkpt>
<trkpt lat="44.06051500" lon="5.54261900"><ele></ele><time>2014-5-10T2:47:44Z</time></trkpt>
<trkpt lat="44.05998600" lon="5.54278500"><ele></ele><time>2014-5-10T2:47:47Z</time></trkpt>
<trkpt lat="44.05947100" lon="5.54294500"><ele></ele><time>2014-5-10T2:47:50Z</time></trkpt>
<trkpt lat="44.05939400" lon="5.54297500"><ele></ele><time>2014-5-10T2:47:53Z</time></trkpt>
<trkpt lat="44.05873100" lon="5.54317900"><ele></ele><time>2014-5-10T2:47:56Z</time></trkpt>
<trkpt lat="44.05820000" lon="5.54334200"><ele></ele><time>2014-5-10T2:47:59Z</time></trkpt>
<trkpt lat="44.05759100" lon="5.54353600"><ele></ele><time>2014-5-10T2:48:2Z</time></trkpt>
<trkpt lat="44.05695000" lon="5.54369600"><ele></ele><time>2014-5-10T2:48:5Z</time></trkpt>
<trkpt lat="44.05637300" lon="5.54369800"><ele></ele><time>2014-5-10T2:48:8Z</time></trkpt>
<trkpt lat="44.05568500" lon="5.54369400"><ele></ele><time>2014-5-10T2:48:11Z</time></trkpt>
<trkpt lat="44.05501300" lon="5.54387800"><ele></ele><time>2014-5-10T2:48:14Z</time></trkpt>
<trkpt lat="44.05418400" lon="5.54414000"><ele></ele><time>2014-5-10T2:48:17Z</time></trkpt>
<trkpt lat="44.05375500" lon="5.54437900"><ele></ele><time>2014-5-10T2:48:20Z</time></trkpt>
<trkpt lat="44.05323000" lon="5.54465400"><ele></ele><time>2014-5-10T2:48:23Z</time></trkpt>
<trkpt lat="44.05274000" lon="5.54478900"><ele></ele><time>2014-5-10T2:48:26Z</time></trkpt>
<trkpt lat="44.05218000" lon="5.54488700"><ele></ele><time>2014-5-10T2:48:29Z</time></trkpt>
<trkpt lat="44.05159600" lon="5.54498300"><ele></ele><time>2014-5-10T2:48:32Z</time></trkpt>
<trkpt lat="44.05071700" lon="5.54513300"><ele></ele><time>2014-5-10T2:48:35Z</time></trkpt>
<trkpt lat="44.04985900" lon="5.54526000"><ele></ele><time>2014-5-10T2:48:38Z</time></trkpt>
<trkpt lat="44.04937200" lon="5.54522700"><ele></ele><time>2014-5-10T2:48:41Z</time></trkpt>
<trkpt lat="44.04901100" lon="5.54513300"><ele></ele><time>2014-5-10T2:48:44Z</time></trkpt>
<trkpt lat="44.04818500" lon="5.54480800"><ele></ele><time>2014-5-10T2:48:47Z</time></trkpt>
<trkpt lat="44.04726200" lon="5.54444700"><ele></ele><time>2014-5-10T2:48:50Z</time></trkpt>
<trkpt lat="44.04707700" lon="5.54437800"><ele></ele><time>2014-5-10T2:48:53Z</time></trkpt>
<trkpt lat="44.04650300" lon="5.54421400"><ele></ele><time>2014-5-10T2:48:56Z</time></trkpt>
<trkpt lat="44.04593300" lon="5.54420400"><ele></ele><time>2014-5-10T2:48:59Z</time></trkpt>
<trkpt lat="44.04502100" lon="5.54425700"><ele></ele><time>2014-5-10T2:49:2Z</time></trkpt>
<trkpt lat="44.04431100" lon="5.54421200"><ele></ele><time>2014-5-10T2:49:5Z</time></trkpt>
<trkpt lat="44.04357700" lon="5.54415400"><ele></ele><time>2014-5-10T2:49:8Z</time></trkpt>
<trkpt lat="44.04269400" lon="5.54409100"><ele></ele><time>2014-5-10T2:49:11Z</time></trkpt>
<trkpt lat="44.04194100" lon="5.54404200"><ele></ele><time>2014-5-10T2:49:14Z</time></trkpt>
<trkpt lat="44.04127200" lon="5.54401000"><ele></ele><time>2014-5-10T2:49:17Z</time></trkpt>
<trkpt lat="44.04077600" lon="5.54398900"><ele></ele><time>2014-5-10T2:49:20Z</time></trkpt>
<trkpt lat="44.04037500" lon="5.54395700"><ele></ele><time>2014-5-10T2:49:23Z</time></trkpt>
<trkpt lat="44.03982400" lon="5.54392000"><ele></ele><time>2014-5-10T2:49:26Z</time></trkpt>
<trkpt lat="44.03933300" lon="5.54389200"><ele></ele><time>2014-5-10T2:49:29Z</time></trkpt>
<trkpt lat="44.03891900" lon="5.54385700"><ele></ele><time>2014-5-10T2:49:32Z</time></trkpt>
<trkpt lat="44.03835900" lon="5.54380200"><ele></ele><time>2014-5-10T2:49:35Z</time></trkpt>
<trkpt lat="44.03795400" lon="5.54375600"><ele></ele><time>2014-5-10T2:49:38Z</time></trkpt>
<trkpt lat="44.03746000" lon="5.54369300"><ele></ele><time>2014-5-10T2:49:41Z</time></trkpt>
<trkpt lat="44.03702400" lon="5.54359400"><ele></ele><time>2014-5-10T2:49:44Z</time></trkpt>
<trkpt lat="44.03667100" lon="5.54352400"><ele></ele><time>2014-5-10T2:49:47Z</time></trkpt>
<trkpt lat="44.03652300" lon="5.54350200"><ele></ele><time>2014-5-10T2:49:50Z</time></trkpt>
<trkpt lat="44.03614400" lon="5.54353200"><ele></ele><time>2014-5-10T2:49:53Z</time></trkpt>
<trkpt lat="44.03583600" lon="5.54360100"><ele></ele><time>2014-5-10T2:49:56Z</time></trkpt>
<trkpt lat="44.03520700" lon="5.54374300"><ele></ele><time>2014-5-10T2:49:59Z</time></trkpt>
<trkpt lat="44.03478900" lon="5.54386900"><ele></ele><time>2014-5-10T2:50:2Z</time></trkpt>
<trkpt lat="44.03462200" lon="5.54391200"><ele></ele><time>2014-5-10T2:50:5Z</time></trkpt>
<trkpt lat="44.03388300" lon="5.54411600"><ele></ele><time>2014-5-10T2:50:8Z</time></trkpt>
<trkpt lat="44.03326200" lon="5.54426500"><ele></ele><time>2014-5-10T2:50:11Z</time></trkpt>
<trkpt lat="44.03288300" lon="5.54423400"><ele></ele><time>2014-5-10T2:50:14Z</time></trkpt>
<trkpt lat="44.03239100" lon="5.54398500"><ele></ele><time>2014-5-10T2:50:17Z</time></trkpt>
<trkpt lat="44.03200800" lon="5.54374900"><ele></ele><time>2014-5-10T2:50:20Z</time></trkpt>
<trkpt lat="44.03151000" lon="5.54349200"><ele></ele><time>2014-5-10T2:50:23Z</time></trkpt>
<trkpt lat="44.03114300" lon="5.54339400"><ele></ele><time>2014-5-10T2:50:26Z</time></trkpt>
<trkpt lat="44.03080700" lon="5.54337100"><ele></ele><time>2014-5-10T2:50:29Z</time></trkpt>
<trkpt lat="44.03028600" lon="5.54337800"><ele></ele><time>2014-5-10T2:50:32Z</time></trkpt>
<trkpt lat="44.02973700" lon="5.54338700"><ele></ele><time>2014-5-10T2:50:35Z</time></trkpt>
<trkpt lat="44.02915600" lon="5.54339600"><ele></ele><time>2014-5-10T2:50:38Z</time></trkpt>
<trkpt lat="44.02846100" lon="5.54342500"><ele></ele><time>2014-5-10T2:50:41Z</time></trkpt>
<trkpt lat="44.02753800" lon="5.54347300"><ele></ele><time>2014-5-10T2:50:44Z</time></trkpt>
<trkpt lat="44.02664800" lon="5.54350700"><ele></ele><time>2014-5-10T2:50:47Z</time></trkpt>
<trkpt lat="44.02633100" lon="5.54351300"><ele></ele><time>2014-5-10T2:50:50Z</time></trkpt>
<trkpt lat="44.02600600" lon="5.54350200"><ele></ele><time>2014-5-10T2:50:53Z</time></trkpt>
<trkpt lat="44.02550100" lon="5.54329500"><ele></ele><time>2014-5-10T2:50:56Z</time></trkpt>
<trkpt lat="44.02508200" lon="5.54304500"><ele></ele><time>2014-5-10T2:50:59Z</time></trkpt>
<trkpt lat="44.02466400" lon="5.54278700"><ele></ele><time>2014-5-10T2:51:2Z</time></trkpt>
<trkpt lat="44.02399700" lon="5.54238200"><ele></ele><time>2014-5-10T2:51:5Z</time></trkpt>
<trkpt lat="44.02353200" lon="5.54211400"><ele></ele><time>2014-5-10T2:51:8Z</time></trkpt>
<trkpt lat="44.02316300" lon="5.54193000"><ele></ele><time>2014-5-10T2:51:11Z</time></trkpt>
<trkpt lat="44.02291600" lon="5.54181200"><ele></ele><time>2014-5-10T2:51:14Z</time></trkpt>
<trkpt lat="44.02250000" lon="5.54157300"><ele></ele><time>2014-5-10T2:51:17Z</time></trkpt>
<trkpt lat="44.02202200" lon="5.54119500"><ele></ele><time>2014-5-10T2:51:20Z</time></trkpt>
<trkpt lat="44.02141500" lon="5.54062500"><ele></ele><time>2014-5-10T2:51:23Z</time></trkpt>
<trkpt lat="44.02102800" lon="5.54026700"><ele></ele><time>2014-5-10T2:51:26Z</time></trkpt>
<trkpt lat="44.02073400" lon="5.54010200"><ele></ele><time>2014-5-10T2:51:29Z</time></trkpt>
<trkpt lat="44.02022600" lon="5.53991900"><ele></ele><time>2014-5-10T2:51:32Z</time></trkpt>
<trkpt lat="44.01993200" lon="5.53982400"><ele></ele><time>2014-5-10T2:51:35Z</time></trkpt>
<trkpt lat="44.01948400" lon="5.53967000"><ele></ele><time>2014-5-10T2:51:38Z</time></trkpt>
<trkpt lat="44.01911700" lon="5.53948200"><ele></ele><time>2014-5-10T2:51:41Z</time></trkpt>
<trkpt lat="44.01867000" lon="5.53906400"><ele></ele><time>2014-5-10T2:51:44Z</time></trkpt>
<trkpt lat="44.01802000" lon="5.53846900"><ele></ele><time>2014-5-10T2:51:47Z</time></trkpt>
<trkpt lat="44.01743600" lon="5.53808400"><ele></ele><time>2014-5-10T2:51:50Z</time></trkpt>
<trkpt lat="44.01691100" lon="5.53777600"><ele></ele><time>2014-5-10T2:51:53Z</time></trkpt>
<trkpt lat="44.01646700" lon="5.53750600"><ele></ele><time>2014-5-10T2:51:56Z</time></trkpt>
<trkpt lat="44.01601100" lon="5.53723500"><ele></ele><time>2014-5-10T2:51:59Z</time></trkpt>
<trkpt lat="44.01556100" lon="5.53696700"><ele></ele><time>2014-5-10T2:52:2Z</time></trkpt>
<trkpt lat="44.01516900" lon="5.53673600"><ele></ele><time>2014-5-10T2:52:5Z</time></trkpt>
<trkpt lat="44.01472100" lon="5.53646800"><ele></ele><time>2014-5-10T2:52:8Z</time></trkpt>
<trkpt lat="44.01432600" lon="5.53625100"><ele></ele><time>2014-5-10T2:52:11Z</time></trkpt>
<trkpt lat="44.01384000" lon="5.53598600"><ele></ele><time>2014-5-10T2:52:14Z</time></trkpt>
<trkpt lat="44.01335800" lon="5.53576300"><ele></ele><time>2014-5-10T2:52:17Z</time></trkpt>
<trkpt lat="44.01301700" lon="5.53570400"><ele></ele><time>2014-5-10T2:52:20Z</time></trkpt>
<trkpt lat="44.01262000" lon="5.53573400"><ele></ele><time>2014-5-10T2:52:23Z</time></trkpt>
<trkpt lat="44.01223900" lon="5.53582100"><ele></ele><time>2014-5-10T2:52:26Z</time></trkpt>
<trkpt lat="44.01169700" lon="5.53593500"><ele></ele><time>2014-5-10T2:52:29Z</time></trkpt>
<trkpt lat="44.01117600" lon="5.53603800"><ele></ele><time>2014-5-10T2:52:32Z</time></trkpt>
<trkpt lat="44.01063300" lon="5.53611900"><ele></ele><time>2014-5-10T2:52:35Z</time></trkpt>
<trkpt lat="44.01031800" lon="5.53616500"><ele></ele><time>2014-5-10T2:52:38Z</time></trkpt>
<trkpt lat="44.01006500" lon="5.53619600"><ele></ele><time>2014-5-10T2:52:41Z</time></trkpt>
<trkpt lat="44.00981700" lon="5.53623800"><ele></ele><time>2014-5-10T2:52:44Z</time></trkpt>
<trkpt lat="44.00962800" lon="5.53626700"><ele></ele><time>2014-5-10T2:52:47Z</time></trkpt>
<trkpt lat="44.00940600" lon="5.53617200"><ele></ele><time>2014-5-10T2:52:50Z</time></trkpt>
<trkpt lat="44.00935800" lon="5.53614000"><ele></ele><time>2014-5-10T2:52:53Z</time></trkpt>
<trkpt lat="44.00896400" lon="5.53597700"><ele></ele><time>2014-5-10T2:52:56Z</time></trkpt>
<trkpt lat="44.00850900" lon="5.53583500"><ele></ele><time>2014-5-10T2:52:59Z</time></trkpt>
<trkpt lat="44.00816400" lon="5.53570200"><ele></ele><time>2014-5-10T2:53:2Z</time></trkpt>
<trkpt lat="44.00757700" lon="5.53549900"><ele></ele><time>2014-5-10T2:53:5Z</time></trkpt>
<trkpt lat="44.00713400" lon="5.53535700"><ele></ele><time>2014-5-10T2:53:8Z</time></trkpt>
<trkpt lat="44.00657200" lon="5.53524800"><ele></ele><time>2014-5-10T2:53:11Z</time></trkpt>
<trkpt lat="44.00585500" lon="5.53514700"><ele></ele><time>2014-5-10T2:53:14Z</time></trkpt>
<trkpt lat="44.00549400" lon="5.53509200"><ele></ele><time>2014-5-10T2:53:17Z</time></trkpt>
<trkpt lat="44.00481200" lon="5.53498500"><ele></ele><time>2014-5-10T2:53:20Z</time></trkpt>
<trkpt lat="44.00397000" lon="5.53486900"><ele></ele><time>2014-5-10T2:53:23Z</time></trkpt>
<trkpt lat="44.00364400" lon="5.53466700"><ele></ele><time>2014-5-10T2:53:26Z</time></trkpt>
<trkpt lat="44.00352900" lon="5.53446100"><ele></ele><time>2014-5-10T2:53:29Z</time></trkpt>
<trkpt lat="44.00323400" lon="5.53372900"><ele></ele><time>2014-5-10T2:53:32Z</time></trkpt>
<trkpt lat="44.00300100" lon="5.53312000"><ele></ele><time>2014-5-10T2:53:35Z</time></trkpt>
<trkpt lat="44.00283400" lon="5.53264700"><ele></ele><time>2014-5-10T2:53:38Z</time></trkpt>
<trkpt lat="44.00282200" lon="5.53219100"><ele></ele><time>2014-5-10T2:53:41Z</time></trkpt>
<trkpt lat="44.00284500" lon="5.53210100"><ele></ele><time>2014-5-10T2:53:44Z</time></trkpt>
<trkpt lat="44.00291800" lon="5.53183100"><ele></ele><time>2014-5-10T2:53:47Z</time></trkpt>
<trkpt lat="44.00290800" lon="5.53143300"><ele></ele><time>2014-5-10T2:53:50Z</time></trkpt>
<trkpt lat="44.00279300" lon="5.53116500"><ele></ele><time>2014-5-10T2:53:53Z</time></trkpt>
<trkpt lat="44.00274200" lon="5.53108700"><ele></ele><time>2014-5-10T2:53:56Z</time></trkpt>
<trkpt lat="44.00252100" lon="5.53083300"><ele></ele><time>2014-5-10T2:53:59Z</time></trkpt>
<trkpt lat="44.00223300" lon="5.53071700"><ele></ele><time>2014-5-10T2:54:2Z</time></trkpt>
<trkpt lat="44.00205100" lon="5.53079100"><ele></ele><time>2014-5-10T2:54:5Z</time></trkpt>
<trkpt lat="44.00178300" lon="5.53105600"><ele></ele><time>2014-5-10T2:54:8Z</time></trkpt>
<trkpt lat="44.00164500" lon="5.53119300"><ele></ele><time>2014-5-10T2:54:11Z</time></trkpt>
<trkpt lat="44.00150700" lon="5.53133500"><ele></ele><time>2014-5-10T2:54:14Z</time></trkpt>
<trkpt lat="44.00130500" lon="5.53151800"><ele></ele><time>2014-5-10T2:54:17Z</time></trkpt>
<trkpt lat="44.00104300" lon="5.53166300"><ele></ele><time>2014-5-10T2:54:20Z</time></trkpt>
<trkpt lat="44.00081200" lon="5.53171300"><ele></ele><time>2014-5-10T2:54:23Z</time></trkpt>
<trkpt lat="44.00056100" lon="5.53168900"><ele></ele><time>2014-5-10T2:54:26Z</time></trkpt>
<trkpt lat="44.00031100" lon="5.53153400"><ele></ele><time>2014-5-10T2:54:29Z</time></trkpt>
<trkpt lat="44.00013400" lon="5.53130800"><ele></ele><time>2014-5-10T2:54:32Z</time></trkpt>
<trkpt lat="43.99995200" lon="5.53090900"><ele></ele><time>2014-5-10T2:54:35Z</time></trkpt>
<trkpt lat="43.99981100" lon="5.53066700"><ele></ele><time>2014-5-10T2:54:38Z</time></trkpt>
<trkpt lat="43.99955100" lon="5.53040800"><ele></ele><time>2014-5-10T2:54:41Z</time></trkpt>
<trkpt lat="43.99922400" lon="5.53034300"><ele></ele><time>2014-5-10T2:54:44Z</time></trkpt>
<trkpt lat="43.99888100" lon="5.53037400"><ele></ele><time>2014-5-10T2:54:47Z</time></trkpt>
<trkpt lat="43.99855100" lon="5.53038800"><ele></ele><time>2014-5-10T2:54:50Z</time></trkpt>
<trkpt lat="43.99829100" lon="5.53047800"><ele></ele><time>2014-5-10T2:54:53Z</time></trkpt>
<trkpt lat="43.99818100" lon="5.53039000"><ele></ele><time>2014-5-10T2:54:56Z</time></trkpt>
<trkpt lat="43.99806000" lon="5.53037200"><ele></ele><time>2014-5-10T2:54:59Z</time></trkpt>
<trkpt lat="43.99798300" lon="5.53039800"><ele></ele><time>2014-5-10T2:55:2Z</time></trkpt>
<trkpt lat="43.99762400" lon="5.53057000"><ele></ele><time>2014-5-10T2:55:5Z</time></trkpt>
<trkpt lat="43.99734300" lon="5.53070700"><ele></ele><time>2014-5-10T2:55:8Z</time></trkpt>
<trkpt lat="43.99713600" lon="5.53078300"><ele></ele><time>2014-5-10T2:55:11Z</time></trkpt>
<trkpt lat="43.99691700" lon="5.53083000"><ele></ele><time>2014-5-10T2:55:14Z</time></trkpt>
<trkpt lat="43.99673400" lon="5.53081000"><ele></ele><time>2014-5-10T2:55:17Z</time></trkpt>
<trkpt lat="43.99641600" lon="5.53062600"><ele></ele><time>2014-5-10T2:55:20Z</time></trkpt>
<trkpt lat="43.99625000" lon="5.53041200"><ele></ele><time>2014-5-10T2:55:23Z</time></trkpt>
<trkpt lat="43.99605800" lon="5.52997500"><ele></ele><time>2014-5-10T2:55:26Z</time></trkpt>
<trkpt lat="43.99591100" lon="5.52935800"><ele></ele><time>2014-5-10T2:55:29Z</time></trkpt>
<trkpt lat="43.99575400" lon="5.52862500"><ele></ele><time>2014-5-10T2:55:32Z</time></trkpt>
<trkpt lat="43.99571900" lon="5.52845500"><ele></ele><time>2014-5-10T2:55:35Z</time></trkpt>
<trkpt lat="43.99552500" lon="5.52802600"><ele></ele><time>2014-5-10T2:55:38Z</time></trkpt>
<trkpt lat="43.99534900" lon="5.52796400"><ele></ele><time>2014-5-10T2:55:41Z</time></trkpt>
<trkpt lat="43.99517800" lon="5.52805200"><ele></ele><time>2014-5-10T2:55:44Z</time></trkpt>
<trkpt lat="43.99507400" lon="5.52825500"><ele></ele><time>2014-5-10T2:55:47Z</time></trkpt>
<trkpt lat="43.99503700" lon="5.52840700"><ele></ele><time>2014-5-10T2:55:50Z</time></trkpt>
<trkpt lat="43.99494200" lon="5.52900200"><ele></ele><time>2014-5-10T2:55:53Z</time></trkpt>
<trkpt lat="43.99482500" lon="5.52949800"><ele></ele><time>2014-5-10T2:55:56Z</time></trkpt>
<trkpt lat="43.99472900" lon="5.52985700"><ele></ele><time>2014-5-10T2:55:59Z</time></trkpt>
<trkpt lat="43.99471300" lon="5.52991400"><ele></ele><time>2014-5-10T2:56:2Z</time></trkpt>
<trkpt lat="43.99462500" lon="5.53026900"><ele></ele><time>2014-5-10T2:56:5Z</time></trkpt>
<trkpt lat="43.99451100" lon="5.53068100"><ele></ele><time>2014-5-10T2:56:8Z</time></trkpt>
<trkpt lat="43.99436600" lon="5.53101700"><ele></ele><time>2014-5-10T2:56:11Z</time></trkpt>
<trkpt lat="43.99418700" lon="5.53113000"><ele></ele><time>2014-5-10T2:56:14Z</time></trkpt>
<trkpt lat="43.99389500" lon="5.53116000"><ele></ele><time>2014-5-10T2:56:17Z</time></trkpt>
<trkpt lat="43.99364800" lon="5.53115500"><ele></ele><time>2014-5-10T2:56:20Z</time></trkpt>
<trkpt lat="43.99336000" lon="5.53115100"><ele></ele><time>2014-5-10T2:56:23Z</time></trkpt>
<trkpt lat="43.99302500" lon="5.53114900"><ele></ele><time>2014-5-10T2:56:26Z</time></trkpt>
<trkpt lat="43.99265400" lon="5.53114500"><ele></ele><time>2014-5-10T2:56:29Z</time></trkpt>
<trkpt lat="43.99226700" lon="5.53114200"><ele></ele><time>2014-5-10T2:56:32Z</time></trkpt>
<trkpt lat="43.99198000" lon="5.53114100"><ele></ele><time>2014-5-10T2:56:35Z</time></trkpt>
<trkpt lat="43.99150100" lon="5.53112500"><ele></ele><time>2014-5-10T2:56:38Z</time></trkpt>
<trkpt lat="43.99107400" lon="5.53112300"><ele></ele><time>2014-5-10T2:56:41Z</time></trkpt>
<trkpt lat="43.99088500" lon="5.53112100"><ele></ele><time>2014-5-10T2:56:44Z</time></trkpt>
<trkpt lat="43.99051400" lon="5.53111500"><ele></ele><time>2014-5-10T2:56:47Z</time></trkpt>
<trkpt lat="43.99017000" lon="5.53110900"><ele></ele><time>2014-5-10T2:56:50Z</time></trkpt>
<trkpt lat="43.98983000" lon="5.53108600"><ele></ele><time>2014-5-10T2:56:53Z</time></trkpt>
<trkpt lat="43.98950200" lon="5.53108400"><ele></ele><time>2014-5-10T2:56:56Z</time></trkpt>
<trkpt lat="43.98927000" lon="5.53107200"><ele></ele><time>2014-5-10T2:56:59Z</time></trkpt>
<trkpt lat="43.98909700" lon="5.53106500"><ele></ele><time>2014-5-10T2:57:2Z</time></trkpt>
<trkpt lat="43.98874800" lon="5.53094000"><ele></ele><time>2014-5-10T2:57:5Z</time></trkpt>
<trkpt lat="43.98845900" lon="5.53070000"><ele></ele><time>2014-5-10T2:57:8Z</time></trkpt>
<trkpt lat="43.98812600" lon="5.53036600"><ele></ele><time>2014-5-10T2:57:11Z</time></trkpt>
<trkpt lat="43.98769300" lon="5.52993800"><ele></ele><time>2014-5-10T2:57:14Z</time></trkpt>
<trkpt lat="43.98733200" lon="5.52960600"><ele></ele><time>2014-5-10T2:57:17Z</time></trkpt>
<trkpt lat="43.98700200" lon="5.52947400"><ele></ele><time>2014-5-10T2:57:20Z</time></trkpt>
<trkpt lat="43.98686500" lon="5.52946800"><ele></ele><time>2014-5-10T2:57:23Z</time></trkpt>
<trkpt lat="43.98665500" lon="5.52950000"><ele></ele><time>2014-5-10T2:57:26Z</time></trkpt>
<trkpt lat="43.98631500" lon="5.52960200"><ele></ele><time>2014-5-10T2:57:29Z</time></trkpt>
<trkpt lat="43.98614500" lon="5.52966500"><ele></ele><time>2014-5-10T2:57:32Z</time></trkpt>
<trkpt lat="43.98580900" lon="5.52975900"><ele></ele><time>2014-5-10T2:57:35Z</time></trkpt>
<trkpt lat="43.98552700" lon="5.52985100"><ele></ele><time>2014-5-10T2:57:38Z</time></trkpt>
<trkpt lat="43.98511900" lon="5.52996200"><ele></ele><time>2014-5-10T2:57:41Z</time></trkpt>
<trkpt lat="43.98482200" lon="5.53005400"><ele></ele><time>2014-5-10T2:57:44Z</time></trkpt>
<trkpt lat="43.98439200" lon="5.53020300"><ele></ele><time>2014-5-10T2:57:47Z</time></trkpt>
<trkpt lat="43.98409700" lon="5.53038400"><ele></ele><time>2014-5-10T2:57:50Z</time></trkpt>
<trkpt lat="43.98380900" lon="5.53059900"><ele></ele><time>2014-5-10T2:57:53Z</time></trkpt>
<trkpt lat="43.98377300" lon="5.53062800"><ele></ele><time>2014-5-10T2:57:56Z</time></trkpt>
<trkpt lat="43.98349700" lon="5.53086100"><ele></ele><time>2014-5-10T2:57:59Z</time></trkpt>
<trkpt lat="43.98330800" lon="5.53093600"><ele></ele><time>2014-5-10T2:58:2Z</time></trkpt>
<trkpt lat="43.98294200" lon="5.53101300"><ele></ele><time>2014-5-10T2:58:5Z</time></trkpt>
<trkpt lat="43.98260200" lon="5.53101000"><ele></ele><time>2014-5-10T2:58:8Z</time></trkpt>
<trkpt lat="43.98247500" lon="5.53098100"><ele></ele><time>2014-5-10T2:58:11Z</time></trkpt>
<trkpt lat="43.98231300" lon="5.53090400"><ele></ele><time>2014-5-10T2:58:14Z</time></trkpt>
<trkpt lat="43.98217600" lon="5.53080000"><ele></ele><time>2014-5-10T2:58:17Z</time></trkpt>
<trkpt lat="43.98198800" lon="5.53061000"><ele></ele><time>2014-5-10T2:58:20Z</time></trkpt>
<trkpt lat="43.98173800" lon="5.53032100"><ele></ele><time>2014-5-10T2:58:23Z</time></trkpt>
<trkpt lat="43.98140200" lon="5.52991800"><ele></ele><time>2014-5-10T2:58:26Z</time></trkpt>
<trkpt lat="43.98132200" lon="5.52983900"><ele></ele><time>2014-5-10T2:58:29Z</time></trkpt>
<trkpt lat="43.98105800" lon="5.52973200"><ele></ele><time>2014-5-10T2:58:32Z</time></trkpt>
<trkpt lat="43.98083500" lon="5.52982700"><ele></ele><time>2014-5-10T2:58:35Z</time></trkpt>
<trkpt lat="43.98068500" lon="5.53002300"><ele></ele><time>2014-5-10T2:58:38Z</time></trkpt>
<trkpt lat="43.98046400" lon="5.53055000"><ele></ele><time>2014-5-10T2:58:41Z</time></trkpt>
<trkpt lat="43.98033100" lon="5.53092400"><ele></ele><time>2014-5-10T2:58:44Z</time></trkpt>
<trkpt lat="43.98012500" lon="5.53144000"><ele></ele><time>2014-5-10T2:58:47Z</time></trkpt>
<trkpt lat="43.97991800" lon="5.53179000"><ele></ele><time>2014-5-10T2:58:50Z</time></trkpt>
<trkpt lat="43.97962500" lon="5.53209500"><ele></ele><time>2014-5-10T2:58:53Z</time></trkpt>
<trkpt lat="43.97934200" lon="5.53233800"><ele></ele><time>2014-5-10T2:58:56Z</time></trkpt>
<trkpt lat="43.97900500" lon="5.53262700"><ele></ele><time>2014-5-10T2:58:59Z</time></trkpt>
<trkpt lat="43.97857400" lon="5.53299400"><ele></ele><time>2014-5-10T2:59:2Z</time></trkpt>
<trkpt lat="43.97827400" lon="5.53332000"><ele></ele><time>2014-5-10T2:59:5Z</time></trkpt>
<trkpt lat="43.97808400" lon="5.53369700"><ele></ele><time>2014-5-10T2:59:8Z</time></trkpt>
<trkpt lat="43.97793200" lon="5.53405100"><ele></ele><time>2014-5-10T2:59:11Z</time></trkpt>
<trkpt lat="43.97770600" lon="5.53442900"><ele></ele><time>2014-5-10T2:59:14Z</time></trkpt>
<trkpt lat="43.97736000" lon="5.53483100"><ele></ele><time>2014-5-10T2:59:17Z</time></trkpt>
<trkpt lat="43.97723800" lon="5.53495600"><ele></ele><time>2014-5-10T2:59:20Z</time></trkpt>
<trkpt lat="43.97688400" lon="5.53516700"><ele></ele><time>2014-5-10T2:59:23Z</time></trkpt>
<trkpt lat="43.97653800" lon="5.53528000"><ele></ele><time>2014-5-10T2:59:26Z</time></trkpt>
<trkpt lat="43.97608400" lon="5.53524900"><ele></ele><time>2014-5-10T2:59:29Z</time></trkpt>
<trkpt lat="43.97587900" lon="5.53519100"><ele></ele><time>2014-5-10T2:59:32Z</time></trkpt>
<trkpt lat="43.97579500" lon="5.53516800"><ele></ele><time>2014-5-10T2:59:35Z</time></trkpt>
<trkpt lat="43.97542100" lon="5.53504500"><ele></ele><time>2014-5-10T2:59:38Z</time></trkpt>
<trkpt lat="43.97505500" lon="5.53496700"><ele></ele><time>2014-5-10T2:59:41Z</time></trkpt>
<trkpt lat="43.97476900" lon="5.53498700"><ele></ele><time>2014-5-10T2:59:44Z</time></trkpt>
<trkpt lat="43.97438700" lon="5.53507600"><ele></ele><time>2014-5-10T2:59:47Z</time></trkpt>
<trkpt lat="43.97394700" lon="5.53516000"><ele></ele><time>2014-5-10T2:59:50Z</time></trkpt>
<trkpt lat="43.97355000" lon="5.53517400"><ele></ele><time>2014-5-10T2:59:53Z</time></trkpt>
<trkpt lat="43.97315800" lon="5.53511400"><ele></ele><time>2014-5-10T2:59:56Z</time></trkpt>
<trkpt lat="43.97275600" lon="5.53496200"><ele></ele><time>2014-5-10T2:59:59Z</time></trkpt>
<trkpt lat="43.97246500" lon="5.53483700"><ele></ele><time>2014-5-10T3:0:2Z</time></trkpt>
<trkpt lat="43.97194400" lon="5.53463500"><ele></ele><time>2014-5-10T3:0:5Z</time></trkpt>
<trkpt lat="43.97161100" lon="5.53451500"><ele></ele><time>2014-5-10T3:0:8Z</time></trkpt>
<trkpt lat="43.97129000" lon="5.53441200"><ele></ele><time>2014-5-10T3:0:11Z</time></trkpt>
<trkpt lat="43.97099700" lon="5.53431400"><ele></ele><time>2014-5-10T3:0:14Z</time></trkpt>
<trkpt lat="43.97072100" lon="5.53424500"><ele></ele><time>2014-5-10T3:0:17Z</time></trkpt>
<trkpt lat="43.97049100" lon="5.53417700"><ele></ele><time>2014-5-10T3:0:20Z</time></trkpt>
<trkpt lat="43.97028700" lon="5.53412800"><ele></ele><time>2014-5-10T3:0:23Z</time></trkpt>
<trkpt lat="43.97008500" lon="5.53407600"><ele></ele><time>2014-5-10T3:0:26Z</time></trkpt>
<trkpt lat="43.96976400" lon="5.53398100"><ele></ele><time>2014-5-10T3:0:29Z</time></trkpt>
<trkpt lat="43.96952300" lon="5.53391100"><ele></ele><time>2014-5-10T3:0:32Z</time></trkpt>
<trkpt lat="43.96916900" lon="5.53382700"><ele></ele><time>2014-5-10T3:0:35Z</time></trkpt>
<trkpt lat="43.96886400" lon="5.53375000"><ele></ele><time>2014-5-10T3:0:38Z</time></trkpt>
<trkpt lat="43.96857500" lon="5.53366100"><ele></ele><time>2014-5-10T3:0:41Z</time></trkpt>
<trkpt lat="43.96843200" lon="5.53361500"><ele></ele><time>2014-5-10T3:0:44Z</time></trkpt>
<trkpt lat="43.96836600" lon="5.53357500"><ele></ele><time>2014-5-10T3:0:47Z</time></trkpt>
<trkpt lat="43.96836700" lon="5.53357600"><ele></ele><time>2014-5-10T3:0:50Z</time></trkpt>
<trkpt lat="43.96823100" lon="5.53356300"><ele></ele><time>2014-5-10T3:0:53Z</time></trkpt>
<trkpt lat="43.96812100" lon="5.53352600"><ele></ele><time>2014-5-10T3:0:56Z</time></trkpt>
<trkpt lat="43.96789200" lon="5.53344400"><ele></ele><time>2014-5-10T3:0:59Z</time></trkpt>
<trkpt lat="43.96772900" lon="5.53338400"><ele></ele><time>2014-5-10T3:1:2Z</time></trkpt>
<trkpt lat="43.96734100" lon="5.53323700"><ele></ele><time>2014-5-10T3:1:5Z</time></trkpt>
<trkpt lat="43.96679300" lon="5.53304100"><ele></ele><time>2014-5-10T3:1:8Z</time></trkpt>
<trkpt lat="43.96594100" lon="5.53273300"><ele></ele><time>2014-5-10T3:1:11Z</time></trkpt>
<trkpt lat="43.96531100" lon="5.53243600"><ele></ele><time>2014-5-10T3:1:14Z</time></trkpt>
<trkpt lat="43.96465900" lon="5.53205800"><ele></ele><time>2014-5-10T3:1:17Z</time></trkpt>
<trkpt lat="43.96410800" lon="5.53162600"><ele></ele><time>2014-5-10T3:1:20Z</time></trkpt>
<trkpt lat="43.96365300" lon="5.53120700"><ele></ele><time>2014-5-10T3:1:23Z</time></trkpt>
<trkpt lat="43.96316800" lon="5.53078100"><ele></ele><time>2014-5-10T3:1:26Z</time></trkpt>
<trkpt lat="43.96272100" lon="5.53062200"><ele></ele><time>2014-5-10T3:1:29Z</time></trkpt>
<trkpt lat="43.96177100" lon="5.53048700"><ele></ele><time>2014-5-10T3:1:32Z</time></trkpt>
<trkpt lat="43.96166800" lon="5.53046200"><ele></ele><time>2014-5-10T3:1:35Z</time></trkpt>
<trkpt lat="43.96105300" lon="5.53020200"><ele></ele><time>2014-5-10T3:1:38Z</time></trkpt>
<trkpt lat="43.96042700" lon="5.52988200"><ele></ele><time>2014-5-10T3:1:41Z</time></trkpt>
<trkpt lat="43.95978600" lon="5.52958100"><ele></ele><time>2014-5-10T3:1:44Z</time></trkpt>
<trkpt lat="43.95923800" lon="5.52959400"><ele></ele><time>2014-5-10T3:1:47Z</time></trkpt>
<trkpt lat="43.95853900" lon="5.52972500"><ele></ele><time>2014-5-10T3:1:50Z</time></trkpt>
<trkpt lat="43.95781900" lon="5.52984500"><ele></ele><time>2014-5-10T3:1:53Z</time></trkpt>
<trkpt lat="43.95754200" lon="5.52989400"><ele></ele><time>2014-5-10T3:1:56Z</time></trkpt>
<trkpt lat="43.95666000" lon="5.53004700"><ele></ele><time>2014-5-10T3:1:59Z</time></trkpt>
<trkpt lat="43.95614400" lon="5.53013500"><ele></ele><time>2014-5-10T3:2:2Z</time></trkpt>
<trkpt lat="43.95520500" lon="5.53029700"><ele></ele><time>2014-5-10T3:2:5Z</time></trkpt>
<trkpt lat="43.95432500" lon="5.53040400"><ele></ele><time>2014-5-10T3:2:8Z</time></trkpt>
<trkpt lat="43.95375500" lon="5.53033700"><ele></ele><time>2014-5-10T3:2:11Z</time></trkpt>
<trkpt lat="43.95364100" lon="5.53031000"><ele></ele><time>2014-5-10T3:2:14Z</time></trkpt>
<trkpt lat="43.95318700" lon="5.53018400"><ele></ele><time>2014-5-10T3:2:17Z</time></trkpt>
<trkpt lat="43.95238200" lon="5.52996500"><ele></ele><time>2014-5-10T3:2:20Z</time></trkpt>
<trkpt lat="43.95132600" lon="5.52971800"><ele></ele><time>2014-5-10T3:2:23Z</time></trkpt>
<trkpt lat="43.95109500" lon="5.52962400"><ele></ele><time>2014-5-10T3:2:26Z</time></trkpt>
<trkpt lat="43.95056100" lon="5.52926600"><ele></ele><time>2014-5-10T3:2:29Z</time></trkpt>
<trkpt lat="43.95003800" lon="5.52889700"><ele></ele><time>2014-5-10T3:2:32Z</time></trkpt>
<trkpt lat="43.94971500" lon="5.52871700"><ele></ele><time>2014-5-10T3:2:35Z</time></trkpt>
<trkpt lat="43.94926000" lon="5.52865000"><ele></ele><time>2014-5-10T3:2:38Z</time></trkpt>
<trkpt lat="43.94914700" lon="5.52866700"><ele></ele><time>2014-5-10T3:2:41Z</time></trkpt>
<trkpt lat="43.94847600" lon="5.52873500"><ele></ele><time>2014-5-10T3:2:44Z</time></trkpt>
<trkpt lat="43.94827200" lon="5.52868200"><ele></ele><time>2014-5-10T3:2:47Z</time></trkpt>
<trkpt lat="43.94798000" lon="5.52846900"><ele></ele><time>2014-5-10T3:2:50Z</time></trkpt>
<trkpt lat="43.94785800" lon="5.52834200"><ele></ele><time>2014-5-10T3:2:53Z</time></trkpt>
<trkpt lat="43.94783000" lon="5.52830300"><ele></ele><time>2014-5-10T3:2:56Z</time></trkpt>
<trkpt lat="43.94783200" lon="5.52830400"><ele></ele><time>2014-5-10T3:2:59Z</time></trkpt>
<trkpt lat="43.94780800" lon="5.52830600"><ele></ele><time>2014-5-10T3:3:2Z</time></trkpt>
<trkpt lat="43.94778800" lon="5.52829000"><ele></ele><time>2014-5-10T3:3:5Z</time></trkpt>
<trkpt lat="43.94768500" lon="5.52818600"><ele></ele><time>2014-5-10T3:3:8Z</time></trkpt>
<trkpt lat="43.94756000" lon="5.52809500"><ele></ele><time>2014-5-10T3:3:11Z</time></trkpt>
<trkpt lat="43.94750500" lon="5.52806900"><ele></ele><time>2014-5-10T3:3:14Z</time></trkpt>
<trkpt lat="43.94730000" lon="5.52804700"><ele></ele><time>2014-5-10T3:3:17Z</time></trkpt>
<trkpt lat="43.94714400" lon="5.52810100"><ele></ele><time>2014-5-10T3:3:20Z</time></trkpt>
<trkpt lat="43.94672100" lon="5.52836300"><ele></ele><time>2014-5-10T3:3:23Z</time></trkpt>
<trkpt lat="43.94652400" lon="5.52844200"><ele></ele><time>2014-5-10T3:3:26Z</time></trkpt>
<trkpt lat="43.94619500" lon="5.52842100"><ele></ele><time>2014-5-10T3:3:29Z</time></trkpt>
<trkpt lat="43.94597300" lon="5.52834100"><ele></ele><time>2014-5-10T3:3:32Z</time></trkpt>
<trkpt lat="43.94557900" lon="5.52801600"><ele></ele><time>2014-5-10T3:3:35Z</time></trkpt>
<trkpt lat="43.94507500" lon="5.52736400"><ele></ele><time>2014-5-10T3:3:38Z</time></trkpt>
<trkpt lat="43.94498600" lon="5.52726300"><ele></ele><time>2014-5-10T3:3:41Z</time></trkpt>
<trkpt lat="43.94446700" lon="5.52690900"><ele></ele><time>2014-5-10T3:3:44Z</time></trkpt>
<trkpt lat="43.94424100" lon="5.52679800"><ele></ele><time>2014-5-10T3:3:47Z</time></trkpt>
<trkpt lat="43.94387200" lon="5.52640100"><ele></ele><time>2014-5-10T3:3:50Z</time></trkpt>
<trkpt lat="43.94380500" lon="5.52608800"><ele></ele><time>2014-5-10T3:3:53Z</time></trkpt>
<trkpt lat="43.94381600" lon="5.52575600"><ele></ele><time>2014-5-10T3:3:56Z</time></trkpt>
<trkpt lat="43.94394500" lon="5.52493600"><ele></ele><time>2014-5-10T3:3:59Z</time></trkpt>
<trkpt lat="43.94393700" lon="5.52447200"><ele></ele><time>2014-5-10T3:4:2Z</time></trkpt>
<trkpt lat="43.94381600" lon="5.52421800"><ele></ele><time>2014-5-10T3:4:5Z</time></trkpt>
<trkpt lat="43.94362000" lon="5.52407500"><ele></ele><time>2014-5-10T3:4:8Z</time></trkpt>
<trkpt lat="43.94338100" lon="5.52411500"><ele></ele><time>2014-5-10T3:4:11Z</time></trkpt>
<trkpt lat="43.94318500" lon="5.52426500"><ele></ele><time>2014-5-10T3:4:14Z</time></trkpt>
<trkpt lat="43.94307900" lon="5.52453500"><ele></ele><time>2014-5-10T3:4:17Z</time></trkpt>
<trkpt lat="43.94305900" lon="5.52485800"><ele></ele><time>2014-5-10T3:4:20Z</time></trkpt>
<trkpt lat="43.94297700" lon="5.52551500"><ele></ele><time>2014-5-10T3:4:23Z</time></trkpt>
<trkpt lat="43.94264600" lon="5.52629200"><ele></ele><time>2014-5-10T3:4:26Z</time></trkpt>
<trkpt lat="43.94237800" lon="5.52667200"><ele></ele><time>2014-5-10T3:4:29Z</time></trkpt>
<trkpt lat="43.94214500" lon="5.52681800"><ele></ele><time>2014-5-10T3:4:32Z</time></trkpt>
<trkpt lat="43.94129300" lon="5.52713300"><ele></ele><time>2014-5-10T3:4:35Z</time></trkpt>
<trkpt lat="43.94036300" lon="5.52741500"><ele></ele><time>2014-5-10T3:4:38Z</time></trkpt>
<trkpt lat="43.93965300" lon="5.52764800"><ele></ele><time>2014-5-10T3:4:41Z</time></trkpt>
<trkpt lat="43.93953900" lon="5.52769900"><ele></ele><time>2014-5-10T3:4:44Z</time></trkpt>
<trkpt lat="43.93933200" lon="5.52785000"><ele></ele><time>2014-5-10T3:4:47Z</time></trkpt>
<trkpt lat="43.93908100" lon="5.52818500"><ele></ele><time>2014-5-10T3:4:50Z</time></trkpt>
<trkpt lat="43.93865000" lon="5.52872000"><ele></ele><time>2014-5-10T3:4:53Z</time></trkpt>
<trkpt lat="43.93836000" lon="5.52895900"><ele></ele><time>2014-5-10T3:4:56Z</time></trkpt>
<trkpt lat="43.93826100" lon="5.52902700"><ele></ele><time>2014-5-10T3:4:59Z</time></trkpt>
<trkpt lat="43.93772200" lon="5.52919300"><ele></ele><time>2014-5-10T3:5:2Z</time></trkpt>
<trkpt lat="43.93738300" lon="5.52923400"><ele></ele><time>2014-5-10T3:5:5Z</time></trkpt>
<trkpt lat="43.93632300" lon="5.52938400"><ele></ele><time>2014-5-10T3:5:8Z</time></trkpt>
<trkpt lat="43.93583800" lon="5.52944800"><ele></ele><time>2014-5-10T3:5:11Z</time></trkpt>
<trkpt lat="43.93536700" lon="5.52951900"><ele></ele><time>2014-5-10T3:5:14Z</time></trkpt>
<trkpt lat="43.93494100" lon="5.52934300"><ele></ele><time>2014-5-10T3:5:17Z</time></trkpt>
<trkpt lat="43.93481200" lon="5.52907800"><ele></ele><time>2014-5-10T3:5:20Z</time></trkpt>
<trkpt lat="43.93478700" lon="5.52875900"><ele></ele><time>2014-5-10T3:5:23Z</time></trkpt>
<trkpt lat="43.93480600" lon="5.52811400"><ele></ele><time>2014-5-10T3:5:26Z</time></trkpt>
<trkpt lat="43.93481600" lon="5.52762700"><ele></ele><time>2014-5-10T3:5:29Z</time></trkpt>
<trkpt lat="43.93471200" lon="5.52700400"><ele></ele><time>2014-5-10T3:5:32Z</time></trkpt>
<trkpt lat="43.93467300" lon="5.52684800"><ele></ele><time>2014-5-10T3:5:35Z</time></trkpt>
<trkpt lat="43.93452700" lon="5.52640400"><ele></ele><time>2014-5-10T3:5:38Z</time></trkpt>
<trkpt lat="43.93435800" lon="5.52582200"><ele></ele><time>2014-5-10T3:5:41Z</time></trkpt>
<trkpt lat="43.93402300" lon="5.52487200"><ele></ele><time>2014-5-10T3:5:44Z</time></trkpt>
<trkpt lat="43.93372100" lon="5.52407300"><ele></ele><time>2014-5-10T3:5:47Z</time></trkpt>
<trkpt lat="43.93361800" lon="5.52363500"><ele></ele><time>2014-5-10T3:5:50Z</time></trkpt>
<trkpt lat="43.93336600" lon="5.52296600"><ele></ele><time>2014-5-10T3:5:53Z</time></trkpt>
<trkpt lat="43.93319300" lon="5.52258500"><ele></ele><time>2014-5-10T3:5:56Z</time></trkpt>
<trkpt lat="43.93312600" lon="5.52246000"><ele></ele><time>2014-5-10T3:5:59Z</time></trkpt>
<trkpt lat="43.93269800" lon="5.52195600"><ele></ele><time>2014-5-10T3:6:2Z</time></trkpt>
<trkpt lat="43.93240500" lon="5.52170800"><ele></ele><time>2014-5-10T3:6:5Z</time></trkpt>
<trkpt lat="43.93196300" lon="5.52150700"><ele></ele><time>2014-5-10T3:6:8Z</time></trkpt>
<trkpt lat="43.93136500" lon="5.52140100"><ele></ele><time>2014-5-10T3:6:11Z</time></trkpt>
<trkpt lat="43.93076000" lon="5.52129900"><ele></ele><time>2014-5-10T3:6:14Z</time></trkpt>
<trkpt lat="43.93007900" lon="5.52094100"><ele></ele><time>2014-5-10T3:6:17Z</time></trkpt>
<trkpt lat="43.92929400" lon="5.52040100"><ele></ele><time>2014-5-10T3:6:20Z</time></trkpt>
<trkpt lat="43.92839000" lon="5.51968900"><ele></ele><time>2014-5-10T3:6:23Z</time></trkpt>
<trkpt lat="43.92787200" lon="5.51952700"><ele></ele><time>2014-5-10T3:6:26Z</time></trkpt>
<trkpt lat="43.92760500" lon="5.51955200"><ele></ele><time>2014-5-10T3:6:29Z</time></trkpt>
<trkpt lat="43.92700800" lon="5.51952200"><ele></ele><time>2014-5-10T3:6:32Z</time></trkpt>
<trkpt lat="43.92677400" lon="5.51918700"><ele></ele><time>2014-5-10T3:6:35Z</time></trkpt>
<trkpt lat="43.92663800" lon="5.51873700"><ele></ele><time>2014-5-10T3:6:38Z</time></trkpt>
<trkpt lat="43.92624600" lon="5.51699200"><ele></ele><time>2014-5-10T3:6:41Z</time></trkpt>
<trkpt lat="43.92589600" lon="5.51539500"><ele></ele><time>2014-5-10T3:6:44Z</time></trkpt>
<trkpt lat="43.92562200" lon="5.51409800"><ele></ele><time>2014-5-10T3:6:47Z</time></trkpt>
<trkpt lat="43.92556000" lon="5.51344400"><ele></ele><time>2014-5-10T3:6:50Z</time></trkpt>
<trkpt lat="43.92553000" lon="5.51229600"><ele></ele><time>2014-5-10T3:6:53Z</time></trkpt>
<trkpt lat="43.92552300" lon="5.51163100"><ele></ele><time>2014-5-10T3:6:56Z</time></trkpt>
<trkpt lat="43.92558900" lon="5.51113600"><ele></ele><time>2014-5-10T3:6:59Z</time></trkpt>
<trkpt lat="43.92557300" lon="5.51064500"><ele></ele><time>2014-5-10T3:7:2Z</time></trkpt>
<trkpt lat="43.92552600" lon="5.51049100"><ele></ele><time>2014-5-10T3:7:5Z</time></trkpt>
<trkpt lat="43.92510700" lon="5.50946800"><ele></ele><time>2014-5-10T3:7:8Z</time></trkpt>
<trkpt lat="43.92475100" lon="5.50904200"><ele></ele><time>2014-5-10T3:7:11Z</time></trkpt>
<trkpt lat="43.92465000" lon="5.50895900"><ele></ele><time>2014-5-10T3:7:14Z</time></trkpt>
<trkpt lat="43.92435300" lon="5.50846700"><ele></ele><time>2014-5-10T3:7:17Z</time></trkpt>
<trkpt lat="43.92431100" lon="5.50814000"><ele></ele><time>2014-5-10T3:7:20Z</time></trkpt>
<trkpt lat="43.92426200" lon="5.50659100"><ele></ele><time>2014-5-10T3:7:23Z</time></trkpt>
<trkpt lat="43.92426000" lon="5.50622300"><ele></ele><time>2014-5-10T3:7:26Z</time></trkpt>
<trkpt lat="43.92429300" lon="5.50548800"><ele></ele><time>2014-5-10T3:7:29Z</time></trkpt>
<trkpt lat="43.92435200" lon="5.50420600"><ele></ele><time>2014-5-10T3:7:32Z</time></trkpt>
<trkpt lat="43.92437100" lon="5.50314100"><ele></ele><time>2014-5-10T3:7:35Z</time></trkpt>
<trkpt lat="43.92438000" lon="5.50281700"><ele></ele><time>2014-5-10T3:7:38Z</time></trkpt>
<trkpt lat="43.92456500" lon="5.50234200"><ele></ele><time>2014-5-10T3:7:41Z</time></trkpt>
<trkpt lat="43.92479600" lon="5.50233800"><ele></ele><time>2014-5-10T3:7:44Z</time></trkpt>
<trkpt lat="43.92499100" lon="5.50247700"><ele></ele><time>2014-5-10T3:7:47Z</time></trkpt>
<trkpt lat="43.92507600" lon="5.50256900"><ele></ele><time>2014-5-10T3:7:50Z</time></trkpt>
<trkpt lat="43.92524500" lon="5.50277100"><ele></ele><time>2014-5-10T3:7:53Z</time></trkpt>
<trkpt lat="43.92566000" lon="5.50308800"><ele></ele><time>2014-5-10T3:7:56Z</time></trkpt>
<trkpt lat="43.92588600" lon="5.50319800"><ele></ele><time>2014-5-10T3:7:59Z</time></trkpt>
<trkpt lat="43.92629900" lon="5.50315400"><ele></ele><time>2014-5-10T3:8:2Z</time></trkpt>
<trkpt lat="43.92637700" lon="5.50306200"><ele></ele><time>2014-5-10T3:8:5Z</time></trkpt>
<trkpt lat="43.92647700" lon="5.50281100"><ele></ele><time>2014-5-10T3:8:8Z</time></trkpt>
<trkpt lat="43.92650500" lon="5.50266900"><ele></ele><time>2014-5-10T3:8:11Z</time></trkpt>
<trkpt lat="43.92657100" lon="5.50206800"><ele></ele><time>2014-5-10T3:8:14Z</time></trkpt>
<trkpt lat="43.92673300" lon="5.50167100"><ele></ele><time>2014-5-10T3:8:17Z</time></trkpt>
<trkpt lat="43.92695900" lon="5.50132300"><ele></ele><time>2014-5-10T3:8:20Z</time></trkpt>
<trkpt lat="43.92702500" lon="5.50101400"><ele></ele><time>2014-5-10T3:8:23Z</time></trkpt>
<trkpt lat="43.92704400" lon="5.50001200"><ele></ele><time>2014-5-10T3:8:26Z</time></trkpt>
<trkpt lat="43.92703000" lon="5.49984300"><ele></ele><time>2014-5-10T3:8:29Z</time></trkpt>
<trkpt lat="43.92692600" lon="5.49864500"><ele></ele><time>2014-5-10T3:8:32Z</time></trkpt>
<trkpt lat="43.92677800" lon="5.49779800"><ele></ele><time>2014-5-10T3:8:35Z</time></trkpt>
<trkpt lat="43.92671300" lon="5.49710100"><ele></ele><time>2014-5-10T3:8:38Z</time></trkpt>
<trkpt lat="43.92674500" lon="5.49603700"><ele></ele><time>2014-5-10T3:8:41Z</time></trkpt>
<trkpt lat="43.92675600" lon="5.49463700"><ele></ele><time>2014-5-10T3:8:44Z</time></trkpt>
<trkpt lat="43.92661300" lon="5.49361900"><ele></ele><time>2014-5-10T3:8:47Z</time></trkpt>
<trkpt lat="43.92658400" lon="5.49345300"><ele></ele><time>2014-5-10T3:8:50Z</time></trkpt>
<trkpt lat="43.92636600" lon="5.49285500"><ele></ele><time>2014-5-10T3:8:53Z</time></trkpt>
<trkpt lat="43.92621700" lon="5.49258200"><ele></ele><time>2014-5-10T3:8:56Z</time></trkpt>
<trkpt lat="43.92603900" lon="5.49195400"><ele></ele><time>2014-5-10T3:8:59Z</time></trkpt>
<trkpt lat="43.92603200" lon="5.49178700"><ele></ele><time>2014-5-10T3:9:2Z</time></trkpt>
<trkpt lat="43.92605600" lon="5.49031100"><ele></ele><time>2014-5-10T3:9:5Z</time></trkpt>
<trkpt lat="43.92608000" lon="5.48964300"><ele></ele><time>2014-5-10T3:9:8Z</time></trkpt>
<trkpt lat="43.92604000" lon="5.48896700"><ele></ele><time>2014-5-10T3:9:11Z</time></trkpt>
<trkpt lat="43.92591200" lon="5.48847600"><ele></ele><time>2014-5-10T3:9:14Z</time></trkpt>
<trkpt lat="43.92550000" lon="5.48739800"><ele></ele><time>2014-5-10T3:9:17Z</time></trkpt>
<trkpt lat="43.92521100" lon="5.48667900"><ele></ele><time>2014-5-10T3:9:20Z</time></trkpt>
<trkpt lat="43.92511700" lon="5.48647300"><ele></ele><time>2014-5-10T3:9:23Z</time></trkpt>
<trkpt lat="43.92487500" lon="5.48626200"><ele></ele><time>2014-5-10T3:9:26Z</time></trkpt>
<trkpt lat="43.92450800" lon="5.48618100"><ele></ele><time>2014-5-10T3:9:29Z</time></trkpt>
<trkpt lat="43.92427900" lon="5.48600300"><ele></ele><time>2014-5-10T3:9:32Z</time></trkpt>
<trkpt lat="43.92418400" lon="5.48578700"><ele></ele><time>2014-5-10T3:9:35Z</time></trkpt>
<trkpt lat="43.92410900" lon="5.48551100"><ele></ele><time>2014-5-10T3:9:38Z</time></trkpt>
<trkpt lat="43.92414300" lon="5.48513300"><ele></ele><time>2014-5-10T3:9:41Z</time></trkpt>
<trkpt lat="43.92420000" lon="5.48498600"><ele></ele><time>2014-5-10T3:9:44Z</time></trkpt>
<trkpt lat="43.92433200" lon="5.48467200"><ele></ele><time>2014-5-10T3:9:47Z</time></trkpt>
<trkpt lat="43.92434000" lon="5.48458200"><ele></ele><time>2014-5-10T3:9:50Z</time></trkpt>
<trkpt lat="43.92424300" lon="5.48443200"><ele></ele><time>2014-5-10T3:9:53Z</time></trkpt>
<trkpt lat="43.92424000" lon="5.48440300"><ele></ele><time>2014-5-10T3:9:56Z</time></trkpt>
<trkpt lat="43.92424600" lon="5.48438800"><ele></ele><time>2014-5-10T3:9:59Z</time></trkpt>
<trkpt lat="43.92426300" lon="5.48440200"><ele></ele><time>2014-5-10T3:10:2Z</time></trkpt>
<trkpt lat="43.92421900" lon="5.48437900"><ele></ele><time>2014-5-10T3:10:5Z</time></trkpt>
<trkpt lat="43.92419100" lon="5.48435900"><ele></ele><time>2014-5-10T3:10:8Z</time></trkpt>
<trkpt lat="43.92414600" lon="5.48445500"><ele></ele><time>2014-5-10T3:10:11Z</time></trkpt>
<trkpt lat="43.92414300" lon="5.48445200"><ele></ele><time>2014-5-10T3:10:14Z</time></trkpt>
<trkpt lat="43.92413400" lon="5.48439800"><ele></ele><time>2014-5-10T3:10:17Z</time></trkpt>
<trkpt lat="43.92372700" lon="5.48399900"><ele></ele><time>2014-5-10T3:10:20Z</time></trkpt>
<trkpt lat="43.92365100" lon="5.48392300"><ele></ele><time>2014-5-10T3:10:23Z</time></trkpt>
<trkpt lat="43.92346500" lon="5.48375700"><ele></ele><time>2014-5-10T3:10:26Z</time></trkpt>
<trkpt lat="43.92319200" lon="5.48350300"><ele></ele><time>2014-5-10T3:10:29Z</time></trkpt>
<trkpt lat="43.92295100" lon="5.48328800"><ele></ele><time>2014-5-10T3:10:32Z</time></trkpt>
<trkpt lat="43.92265700" lon="5.48300700"><ele></ele><time>2014-5-10T3:10:35Z</time></trkpt>
<trkpt lat="43.92256500" lon="5.48292400"><ele></ele><time>2014-5-10T3:10:38Z</time></trkpt>
<trkpt lat="43.92224100" lon="5.48263300"><ele></ele><time>2014-5-10T3:10:41Z</time></trkpt>
<trkpt lat="43.92188400" lon="5.48230300"><ele></ele><time>2014-5-10T3:10:44Z</time></trkpt>
<trkpt lat="43.92145400" lon="5.48190200"><ele></ele><time>2014-5-10T3:10:47Z</time></trkpt>
<trkpt lat="43.92077600" lon="5.48127900"><ele></ele><time>2014-5-10T3:10:50Z</time></trkpt>
<trkpt lat="43.92059200" lon="5.48109300"><ele></ele><time>2014-5-10T3:10:53Z</time></trkpt>
<trkpt lat="43.92032400" lon="5.48061600"><ele></ele><time>2014-5-10T3:10:56Z</time></trkpt>
<trkpt lat="43.92017400" lon="5.48023600"><ele></ele><time>2014-5-10T3:10:59Z</time></trkpt>
<trkpt lat="43.92008700" lon="5.47979000"><ele></ele><time>2014-5-10T3:11:2Z</time></trkpt>
<trkpt lat="43.92014700" lon="5.47944800"><ele></ele><time>2014-5-10T3:11:5Z</time></trkpt>
<trkpt lat="43.92018300" lon="5.47933600"><ele></ele><time>2014-5-10T3:11:8Z</time></trkpt>
<trkpt lat="43.92040400" lon="5.47873700"><ele></ele><time>2014-5-10T3:11:11Z</time></trkpt>
<trkpt lat="43.92076400" lon="5.47778600"><ele></ele><time>2014-5-10T3:11:14Z</time></trkpt>
<trkpt lat="43.92081600" lon="5.47764500"><ele></ele><time>2014-5-10T3:11:17Z</time></trkpt>
<trkpt lat="43.92126600" lon="5.47640100"><ele></ele><time>2014-5-10T3:11:20Z</time></trkpt>
<trkpt lat="43.92136100" lon="5.47579300"><ele></ele><time>2014-5-10T3:11:23Z</time></trkpt>
<trkpt lat="43.92127200" lon="5.47499500"><ele></ele><time>2014-5-10T3:11:26Z</time></trkpt>
<trkpt lat="43.92110400" lon="5.47422900"><ele></ele><time>2014-5-10T3:11:29Z</time></trkpt>
<trkpt lat="43.92113600" lon="5.47358200"><ele></ele><time>2014-5-10T3:11:32Z</time></trkpt>
<trkpt lat="43.92126800" lon="5.47294300"><ele></ele><time>2014-5-10T3:11:35Z</time></trkpt>
<trkpt lat="43.92136400" lon="5.47247900"><ele></ele><time>2014-5-10T3:11:38Z</time></trkpt>
<trkpt lat="43.92139600" lon="5.47233100"><ele></ele><time>2014-5-10T3:11:41Z</time></trkpt>
<trkpt lat="43.92161800" lon="5.47137200"><ele></ele><time>2014-5-10T3:11:44Z</time></trkpt>
<trkpt lat="43.92176600" lon="5.47073100"><ele></ele><time>2014-5-10T3:11:47Z</time></trkpt>
<trkpt lat="43.92183700" lon="5.47049100"><ele></ele><time>2014-5-10T3:11:50Z</time></trkpt>
<trkpt lat="43.92217800" lon="5.46959700"><ele></ele><time>2014-5-10T3:11:53Z</time></trkpt>
<trkpt lat="43.92246500" lon="5.46888100"><ele></ele><time>2014-5-10T3:11:56Z</time></trkpt>
<trkpt lat="43.92275600" lon="5.46816000"><ele></ele><time>2014-5-10T3:11:59Z</time></trkpt>
<trkpt lat="43.92305200" lon="5.46738800"><ele></ele><time>2014-5-10T3:12:2Z</time></trkpt>
<trkpt lat="43.92319000" lon="5.46678600"><ele></ele><time>2014-5-10T3:12:5Z</time></trkpt>
<trkpt lat="43.92324500" lon="5.46611200"><ele></ele><time>2014-5-10T3:12:8Z</time></trkpt>
<trkpt lat="43.92326400" lon="5.46539100"><ele></ele><time>2014-5-10T3:12:11Z</time></trkpt>
<trkpt lat="43.92327800" lon="5.46471700"><ele></ele><time>2014-5-10T3:12:14Z</time></trkpt>
<trkpt lat="43.92329000" lon="5.46386600"><ele></ele><time>2014-5-10T3:12:17Z</time></trkpt>
<trkpt lat="43.92331400" lon="5.46296000"><ele></ele><time>2014-5-10T3:12:20Z</time></trkpt>
<trkpt lat="43.92332600" lon="5.46226400"><ele></ele><time>2014-5-10T3:12:23Z</time></trkpt>
<trkpt lat="43.92335000" lon="5.46137000"><ele></ele><time>2014-5-10T3:12:26Z</time></trkpt>
<trkpt lat="43.92338300" lon="5.46051300"><ele></ele><time>2014-5-10T3:12:29Z</time></trkpt>
<trkpt lat="43.92342300" lon="5.46022000"><ele></ele><time>2014-5-10T3:12:32Z</time></trkpt>
<trkpt lat="43.92351400" lon="5.45982400"><ele></ele><time>2014-5-10T3:12:35Z</time></trkpt>
<trkpt lat="43.92363500" lon="5.45942500"><ele></ele><time>2014-5-10T3:12:38Z</time></trkpt>
<trkpt lat="43.92397100" lon="5.45843500"><ele></ele><time>2014-5-10T3:12:41Z</time></trkpt>
<trkpt lat="43.92409200" lon="5.45805900"><ele></ele><time>2014-5-10T3:12:44Z</time></trkpt>
<trkpt lat="43.92423900" lon="5.45746400"><ele></ele><time>2014-5-10T3:12:47Z</time></trkpt>
<trkpt lat="43.92430300" lon="5.45683400"><ele></ele><time>2014-5-10T3:12:50Z</time></trkpt>
<trkpt lat="43.92430900" lon="5.45623800"><ele></ele><time>2014-5-10T3:12:53Z</time></trkpt>
<trkpt lat="43.92431300" lon="5.45564200"><ele></ele><time>2014-5-10T3:12:56Z</time></trkpt>
<trkpt lat="43.92430600" lon="5.45520100"><ele></ele><time>2014-5-10T3:12:59Z</time></trkpt>
<trkpt lat="43.92431900" lon="5.45458100"><ele></ele><time>2014-5-10T3:13:2Z</time></trkpt>
<trkpt lat="43.92437300" lon="5.45409100"><ele></ele><time>2014-5-10T3:13:5Z</time></trkpt>
<trkpt lat="43.92443400" lon="5.45361100"><ele></ele><time>2014-5-10T3:13:8Z</time></trkpt>
<trkpt lat="43.92448400" lon="5.45318500"><ele></ele><time>2014-5-10T3:13:11Z</time></trkpt>
<trkpt lat="43.92452700" lon="5.45285000"><ele></ele><time>2014-5-10T3:13:14Z</time></trkpt>
<trkpt lat="43.92456000" lon="5.45256100"><ele></ele><time>2014-5-10T3:13:17Z</time></trkpt>
<trkpt lat="43.92459900" lon="5.45218000"><ele></ele><time>2014-5-10T3:13:20Z</time></trkpt>
<trkpt lat="43.92457900" lon="5.45184500"><ele></ele><time>2014-5-10T3:13:23Z</time></trkpt>
<trkpt lat="43.92448900" lon="5.45156300"><ele></ele><time>2014-5-10T3:13:26Z</time></trkpt>
<trkpt lat="43.92433900" lon="5.45135200"><ele></ele><time>2014-5-10T3:13:29Z</time></trkpt>
<trkpt lat="43.92418700" lon="5.45119000"><ele></ele><time>2014-5-10T3:13:32Z</time></trkpt>
<trkpt lat="43.92404600" lon="5.45104300"><ele></ele><time>2014-5-10T3:13:35Z</time></trkpt>
<trkpt lat="43.92392500" lon="5.45083100"><ele></ele><time>2014-5-10T3:13:38Z</time></trkpt>
<trkpt lat="43.92387300" lon="5.45056900"><ele></ele><time>2014-5-10T3:13:41Z</time></trkpt>
<trkpt lat="43.92393100" lon="5.45029600"><ele></ele><time>2014-5-10T3:13:44Z</time></trkpt>
<trkpt lat="43.92412100" lon="5.45004700"><ele></ele><time>2014-5-10T3:13:47Z</time></trkpt>
<trkpt lat="43.92435800" lon="5.44984300"><ele></ele><time>2014-5-10T3:13:50Z</time></trkpt>
<trkpt lat="43.92462400" lon="5.44961100"><ele></ele><time>2014-5-10T3:13:53Z</time></trkpt>
<trkpt lat="43.92491000" lon="5.44935800"><ele></ele><time>2014-5-10T3:13:56Z</time></trkpt>
<trkpt lat="43.92511200" lon="5.44918300"><ele></ele><time>2014-5-10T3:13:59Z</time></trkpt>
<trkpt lat="43.92538700" lon="5.44895400"><ele></ele><time>2014-5-10T3:14:2Z</time></trkpt>
<trkpt lat="43.92575800" lon="5.44863500"><ele></ele><time>2014-5-10T3:14:5Z</time></trkpt>
<trkpt lat="43.92610900" lon="5.44832700"><ele></ele><time>2014-5-10T3:14:8Z</time></trkpt>
<trkpt lat="43.92643800" lon="5.44794000"><ele></ele><time>2014-5-10T3:14:11Z</time></trkpt>
<trkpt lat="43.92668300" lon="5.44755000"><ele></ele><time>2014-5-10T3:14:14Z</time></trkpt>
<trkpt lat="43.92677000" lon="5.44739900"><ele></ele><time>2014-5-10T3:14:17Z</time></trkpt>
<trkpt lat="43.92700300" lon="5.44701100"><ele></ele><time>2014-5-10T3:14:20Z</time></trkpt>
<trkpt lat="43.92728500" lon="5.44654300"><ele></ele><time>2014-5-10T3:14:23Z</time></trkpt>
<trkpt lat="43.92758500" lon="5.44604300"><ele></ele><time>2014-5-10T3:14:26Z</time></trkpt>
<trkpt lat="43.92788700" lon="5.44547300"><ele></ele><time>2014-5-10T3:14:29Z</time></trkpt>
<trkpt lat="43.92808400" lon="5.44495500"><ele></ele><time>2014-5-10T3:14:32Z</time></trkpt>
<trkpt lat="43.92826400" lon="5.44444600"><ele></ele><time>2014-5-10T3:14:35Z</time></trkpt>
<trkpt lat="43.92841600" lon="5.44401900"><ele></ele><time>2014-5-10T3:14:38Z</time></trkpt>
<trkpt lat="43.92861300" lon="5.44347100"><ele></ele><time>2014-5-10T3:14:41Z</time></trkpt>
<trkpt lat="43.92880200" lon="5.44293900"><ele></ele><time>2014-5-10T3:14:44Z</time></trkpt>
<trkpt lat="43.92907100" lon="5.44217200"><ele></ele><time>2014-5-10T3:14:47Z</time></trkpt>
<trkpt lat="43.92926600" lon="5.44175400"><ele></ele><time>2014-5-10T3:14:50Z</time></trkpt>
<trkpt lat="43.92956400" lon="5.44135800"><ele></ele><time>2014-5-10T3:14:53Z</time></trkpt>
<trkpt lat="43.92966400" lon="5.44124800"><ele></ele><time>2014-5-10T3:14:56Z</time></trkpt>
<trkpt lat="43.93004700" lon="5.44096900"><ele></ele><time>2014-5-10T3:14:59Z</time></trkpt>
<trkpt lat="43.93034900" lon="5.44081600"><ele></ele><time>2014-5-10T3:15:2Z</time></trkpt>
<trkpt lat="43.93054000" lon="5.44069200"><ele></ele><time>2014-5-10T3:15:5Z</time></trkpt>
<trkpt lat="43.93074700" lon="5.44050800"><ele></ele><time>2014-5-10T3:15:8Z</time></trkpt>
<trkpt lat="43.93088200" lon="5.44032900"><ele></ele><time>2014-5-10T3:15:11Z</time></trkpt>
<trkpt lat="43.93105100" lon="5.43998600"><ele></ele><time>2014-5-10T3:15:14Z</time></trkpt>
<trkpt lat="43.93117700" lon="5.43958200"><ele></ele><time>2014-5-10T3:15:17Z</time></trkpt>
<trkpt lat="43.93134400" lon="5.43896400"><ele></ele><time>2014-5-10T3:15:20Z</time></trkpt>
<trkpt lat="43.93146300" lon="5.43854700"><ele></ele><time>2014-5-10T3:15:23Z</time></trkpt>
<trkpt lat="43.93156900" lon="5.43814900"><ele></ele><time>2014-5-10T3:15:26Z</time></trkpt>
<trkpt lat="43.93160300" lon="5.43804100"><ele></ele><time>2014-5-10T3:15:29Z</time></trkpt>
<trkpt lat="43.93169800" lon="5.43769400"><ele></ele><time>2014-5-10T3:15:32Z</time></trkpt>
<trkpt lat="43.93182300" lon="5.43724400"><ele></ele><time>2014-5-10T3:15:35Z</time></trkpt>
<trkpt lat="43.93194100" lon="5.43678400"><ele></ele><time>2014-5-10T3:15:38Z</time></trkpt>
<trkpt lat="43.93204700" lon="5.43640000"><ele></ele><time>2014-5-10T3:15:41Z</time></trkpt>
<trkpt lat="43.93214900" lon="5.43602700"><ele></ele><time>2014-5-10T3:15:44Z</time></trkpt>
<trkpt lat="43.93224700" lon="5.43565600"><ele></ele><time>2014-5-10T3:15:47Z</time></trkpt>
<trkpt lat="43.93238400" lon="5.43516200"><ele></ele><time>2014-5-10T3:15:50Z</time></trkpt>
<trkpt lat="43.93250100" lon="5.43473400"><ele></ele><time>2014-5-10T3:15:53Z</time></trkpt>
<trkpt lat="43.93252800" lon="5.43461700"><ele></ele><time>2014-5-10T3:15:56Z</time></trkpt>
<trkpt lat="43.93259700" lon="5.43425400"><ele></ele><time>2014-5-10T3:15:59Z</time></trkpt>
<trkpt lat="43.93265000" lon="5.43372400"><ele></ele><time>2014-5-10T3:16:2Z</time></trkpt>
<trkpt lat="43.93269900" lon="5.43315700"><ele></ele><time>2014-5-10T3:16:5Z</time></trkpt>
<trkpt lat="43.93273900" lon="5.43270800"><ele></ele><time>2014-5-10T3:16:8Z</time></trkpt>
<trkpt lat="43.93282800" lon="5.43205900"><ele></ele><time>2014-5-10T3:16:11Z</time></trkpt>
<trkpt lat="43.93304300" lon="5.43098500"><ele></ele><time>2014-5-10T3:16:14Z</time></trkpt>
<trkpt lat="43.93321100" lon="5.43027300"><ele></ele><time>2014-5-10T3:16:17Z</time></trkpt>
<trkpt lat="43.93343800" lon="5.42962400"><ele></ele><time>2014-5-10T3:16:20Z</time></trkpt>
<trkpt lat="43.93376600" lon="5.42876300"><ele></ele><time>2014-5-10T3:16:23Z</time></trkpt>
<trkpt lat="43.93403800" lon="5.42806100"><ele></ele><time>2014-5-10T3:16:26Z</time></trkpt>
<trkpt lat="43.93408200" lon="5.42794000"><ele></ele><time>2014-5-10T3:16:29Z</time></trkpt>
<trkpt lat="43.93412400" lon="5.42781700"><ele></ele><time>2014-5-10T3:16:32Z</time></trkpt>
<trkpt lat="43.93422200" lon="5.42727700"><ele></ele><time>2014-5-10T3:16:35Z</time></trkpt>
<trkpt lat="43.93423100" lon="5.42713500"><ele></ele><time>2014-5-10T3:16:38Z</time></trkpt>
<trkpt lat="43.93425000" lon="5.42599200"><ele></ele><time>2014-5-10T3:16:41Z</time></trkpt>
<trkpt lat="43.93425800" lon="5.42557900"><ele></ele><time>2014-5-10T3:16:44Z</time></trkpt>
<trkpt lat="43.93426600" lon="5.42485900"><ele></ele><time>2014-5-10T3:16:47Z</time></trkpt>
<trkpt lat="43.93422200" lon="5.42425400"><ele></ele><time>2014-5-10T3:16:50Z</time></trkpt>
<trkpt lat="43.93409600" lon="5.42383300"><ele></ele><time>2014-5-10T3:16:53Z</time></trkpt>
<trkpt lat="43.93403000" lon="5.42369000"><ele></ele><time>2014-5-10T3:16:56Z</time></trkpt>
<trkpt lat="43.93399900" lon="5.42362200"><ele></ele><time>2014-5-10T3:16:59Z</time></trkpt>
<trkpt lat="43.93376200" lon="5.42308500"><ele></ele><time>2014-5-10T3:17:2Z</time></trkpt>
<trkpt lat="43.93371000" lon="5.42295800"><ele></ele><time>2014-5-10T3:17:5Z</time></trkpt>
<trkpt lat="43.93362600" lon="5.42277900"><ele></ele><time>2014-5-10T3:17:8Z</time></trkpt>
<trkpt lat="43.93342400" lon="5.42222600"><ele></ele><time>2014-5-10T3:17:11Z</time></trkpt>
<trkpt lat="43.93329800" lon="5.42180400"><ele></ele><time>2014-5-10T3:17:14Z</time></trkpt>
<trkpt lat="43.93324500" lon="5.42134400"><ele></ele><time>2014-5-10T3:17:17Z</time></trkpt>
<trkpt lat="43.93323900" lon="5.42072500"><ele></ele><time>2014-5-10T3:17:20Z</time></trkpt>
<trkpt lat="43.93330000" lon="5.42024500"><ele></ele><time>2014-5-10T3:17:23Z</time></trkpt>
<trkpt lat="43.93344900" lon="5.41961800"><ele></ele><time>2014-5-10T3:17:26Z</time></trkpt>
<trkpt lat="43.93370200" lon="5.41859400"><ele></ele><time>2014-5-10T3:17:29Z</time></trkpt>
<trkpt lat="43.93398700" lon="5.41768900"><ele></ele><time>2014-5-10T3:17:32Z</time></trkpt>
<trkpt lat="43.93424800" lon="5.41693600"><ele></ele><time>2014-5-10T3:17:35Z</time></trkpt>
<trkpt lat="43.93454700" lon="5.41606300"><ele></ele><time>2014-5-10T3:17:38Z</time></trkpt>
<trkpt lat="43.93483500" lon="5.41517200"><ele></ele><time>2014-5-10T3:17:41Z</time></trkpt>
<trkpt lat="43.93495400" lon="5.41449700"><ele></ele><time>2014-5-10T3:17:44Z</time></trkpt>
<trkpt lat="43.93504900" lon="5.41376300"><ele></ele><time>2014-5-10T3:17:47Z</time></trkpt>
<trkpt lat="43.93512800" lon="5.41311300"><ele></ele><time>2014-5-10T3:17:50Z</time></trkpt>
<trkpt lat="43.93521500" lon="5.41249900"><ele></ele><time>2014-5-10T3:17:53Z</time></trkpt>
<trkpt lat="43.93525100" lon="5.41214800"><ele></ele><time>2014-5-10T3:17:56Z</time></trkpt>
<trkpt lat="43.93531800" lon="5.41169500"><ele></ele><time>2014-5-10T3:17:59Z</time></trkpt>
<trkpt lat="43.93539000" lon="5.41113200"><ele></ele><time>2014-5-10T3:18:2Z</time></trkpt>
<trkpt lat="43.93541300" lon="5.41054700"><ele></ele><time>2014-5-10T3:18:5Z</time></trkpt>
<trkpt lat="43.93539000" lon="5.40994100"><ele></ele><time>2014-5-10T3:18:8Z</time></trkpt>
<trkpt lat="43.93539100" lon="5.40988000"><ele></ele><time>2014-5-10T3:18:11Z</time></trkpt>
<trkpt lat="43.93535700" lon="5.40943300"><ele></ele><time>2014-5-10T3:18:14Z</time></trkpt>
<trkpt lat="43.93533600" lon="5.40905700"><ele></ele><time>2014-5-10T3:18:17Z</time></trkpt>
<trkpt lat="43.93531000" lon="5.40864700"><ele></ele><time>2014-5-10T3:18:20Z</time></trkpt>
<trkpt lat="43.93529200" lon="5.40827300"><ele></ele><time>2014-5-10T3:18:23Z</time></trkpt>
<trkpt lat="43.93527800" lon="5.40795800"><ele></ele><time>2014-5-10T3:18:26Z</time></trkpt>
<trkpt lat="43.93525900" lon="5.40759900"><ele></ele><time>2014-5-10T3:18:29Z</time></trkpt>
<trkpt lat="43.93523600" lon="5.40716900"><ele></ele><time>2014-5-10T3:18:32Z</time></trkpt>
<trkpt lat="43.93525000" lon="5.40669400"><ele></ele><time>2014-5-10T3:18:35Z</time></trkpt>
<trkpt lat="43.93533300" lon="5.40632200"><ele></ele><time>2014-5-10T3:18:38Z</time></trkpt>
<trkpt lat="43.93549700" lon="5.40592500"><ele></ele><time>2014-5-10T3:18:41Z</time></trkpt>
<trkpt lat="43.93565500" lon="5.40561900"><ele></ele><time>2014-5-10T3:18:44Z</time></trkpt>
<trkpt lat="43.93580000" lon="5.40532500"><ele></ele><time>2014-5-10T3:18:47Z</time></trkpt>
<trkpt lat="43.93593600" lon="5.40503500"><ele></ele><time>2014-5-10T3:18:50Z</time></trkpt>
<trkpt lat="43.93608800" lon="5.40471600"><ele></ele><time>2014-5-10T3:18:53Z</time></trkpt>
<trkpt lat="43.93622000" lon="5.40443400"><ele></ele><time>2014-5-10T3:18:56Z</time></trkpt>
<trkpt lat="43.93637200" lon="5.40411200"><ele></ele><time>2014-5-10T3:18:59Z</time></trkpt>
<trkpt lat="43.93647000" lon="5.40388900"><ele></ele><time>2014-5-10T3:19:2Z</time></trkpt>
<trkpt lat="43.93658800" lon="5.40364900"><ele></ele><time>2014-5-10T3:19:5Z</time></trkpt>
<trkpt lat="43.93670200" lon="5.40344300"><ele></ele><time>2014-5-10T3:19:8Z</time></trkpt>
<trkpt lat="43.93679200" lon="5.40320700"><ele></ele><time>2014-5-10T3:19:11Z</time></trkpt>
<trkpt lat="43.93689400" lon="5.40290000"><ele></ele><time>2014-5-10T3:19:14Z</time></trkpt>
<trkpt lat="43.93695800" lon="5.40263700"><ele></ele><time>2014-5-10T3:19:17Z</time></trkpt>
<trkpt lat="43.93703800" lon="5.40227200"><ele></ele><time>2014-5-10T3:19:20Z</time></trkpt>
<trkpt lat="43.93712300" lon="5.40189500"><ele></ele><time>2014-5-10T3:19:23Z</time></trkpt>
<trkpt lat="43.93722500" lon="5.40143800"><ele></ele><time>2014-5-10T3:19:26Z</time></trkpt>
<trkpt lat="43.93734200" lon="5.40087800"><ele></ele><time>2014-5-10T3:19:29Z</time></trkpt>
<trkpt lat="43.93737800" lon="5.40060600"><ele></ele><time>2014-5-10T3:19:32Z</time></trkpt>
<trkpt lat="43.93738800" lon="5.40019600"><ele></ele><time>2014-5-10T3:19:35Z</time></trkpt>
<trkpt lat="43.93739100" lon="5.39962400"><ele></ele><time>2014-5-10T3:19:38Z</time></trkpt>
<trkpt lat="43.93740700" lon="5.39905300"><ele></ele><time>2014-5-10T3:19:41Z</time></trkpt>
<trkpt lat="43.93746000" lon="5.39861800"><ele></ele><time>2014-5-10T3:19:44Z</time></trkpt>
<trkpt lat="43.93756000" lon="5.39802200"><ele></ele><time>2014-5-10T3:19:47Z</time></trkpt>
<trkpt lat="43.93766200" lon="5.39732500"><ele></ele><time>2014-5-10T3:19:50Z</time></trkpt>
<trkpt lat="43.93760900" lon="5.39665900"><ele></ele><time>2014-5-10T3:19:53Z</time></trkpt>
<trkpt lat="43.93758300" lon="5.39637200"><ele></ele><time>2014-5-10T3:19:56Z</time></trkpt>
<trkpt lat="43.93768200" lon="5.39580500"><ele></ele><time>2014-5-10T3:19:59Z</time></trkpt>
<trkpt lat="43.93805000" lon="5.39487600"><ele></ele><time>2014-5-10T3:20:2Z</time></trkpt>
<trkpt lat="43.93840600" lon="5.39373300"><ele></ele><time>2014-5-10T3:20:5Z</time></trkpt>
<trkpt lat="43.93865700" lon="5.39268400"><ele></ele><time>2014-5-10T3:20:8Z</time></trkpt>
<trkpt lat="43.93883100" lon="5.39167800"><ele></ele><time>2014-5-10T3:20:11Z</time></trkpt>
<trkpt lat="43.93894800" lon="5.39102100"><ele></ele><time>2014-5-10T3:20:14Z</time></trkpt>
<trkpt lat="43.93898800" lon="5.39078800"><ele></ele><time>2014-5-10T3:20:17Z</time></trkpt>
<trkpt lat="43.93898500" lon="5.39047700"><ele></ele><time>2014-5-10T3:20:20Z</time></trkpt>
<trkpt lat="43.93895700" lon="5.39039000"><ele></ele><time>2014-5-10T3:20:23Z</time></trkpt>
<trkpt lat="43.93882900" lon="5.39020500"><ele></ele><time>2014-5-10T3:20:26Z</time></trkpt>
<trkpt lat="43.93870100" lon="5.39006700"><ele></ele><time>2014-5-10T3:20:29Z</time></trkpt>
<trkpt lat="43.93858300" lon="5.38980300"><ele></ele><time>2014-5-10T3:20:32Z</time></trkpt>
<trkpt lat="43.93860100" lon="5.38957300"><ele></ele><time>2014-5-10T3:20:35Z</time></trkpt>
<trkpt lat="43.93868100" lon="5.38930200"><ele></ele><time>2014-5-10T3:20:38Z</time></trkpt>
<trkpt lat="43.93876300" lon="5.38901400"><ele></ele><time>2014-5-10T3:20:41Z</time></trkpt>
<trkpt lat="43.93881300" lon="5.38872900"><ele></ele><time>2014-5-10T3:20:44Z</time></trkpt>
<trkpt lat="43.93882800" lon="5.38834300"><ele></ele><time>2014-5-10T3:20:47Z</time></trkpt>
<trkpt lat="43.93883200" lon="5.38798200"><ele></ele><time>2014-5-10T3:20:50Z</time></trkpt>
<trkpt lat="43.93884700" lon="5.38763100"><ele></ele><time>2014-5-10T3:20:53Z</time></trkpt>
<trkpt lat="43.93885100" lon="5.38735900"><ele></ele><time>2014-5-10T3:20:56Z</time></trkpt>
<trkpt lat="43.93889900" lon="5.38710000"><ele></ele><time>2014-5-10T3:20:59Z</time></trkpt>
<trkpt lat="43.93900400" lon="5.38706000"><ele></ele><time>2014-5-10T3:21:2Z</time></trkpt>
<trkpt lat="43.93921700" lon="5.38712100"><ele></ele><time>2014-5-10T3:21:5Z</time></trkpt>
<trkpt lat="43.93949800" lon="5.38715500"><ele></ele><time>2014-5-10T3:21:8Z</time></trkpt>
<trkpt lat="43.93970800" lon="5.38719500"><ele></ele><time>2014-5-10T3:21:11Z</time></trkpt>
<trkpt lat="43.93998600" lon="5.38723500"><ele></ele><time>2014-5-10T3:21:14Z</time></trkpt>
<trkpt lat="43.94021200" lon="5.38726300"><ele></ele><time>2014-5-10T3:21:17Z</time></trkpt>
<trkpt lat="43.94043200" lon="5.38730600"><ele></ele><time>2014-5-10T3:21:20Z</time></trkpt>
<trkpt lat="43.94067800" lon="5.38735000"><ele></ele><time>2014-5-10T3:21:23Z</time></trkpt>
<trkpt lat="43.94089100" lon="5.38738200"><ele></ele><time>2014-5-10T3:21:26Z</time></trkpt>
<trkpt lat="43.94115500" lon="5.38741500"><ele></ele><time>2014-5-10T3:21:29Z</time></trkpt>
<trkpt lat="43.94129900" lon="5.38742800"><ele></ele><time>2014-5-10T3:21:32Z</time></trkpt>
<trkpt lat="43.94150400" lon="5.38744100"><ele></ele><time>2014-5-10T3:21:35Z</time></trkpt>
<trkpt lat="43.94170100" lon="5.38734800"><ele></ele><time>2014-5-10T3:21:38Z</time></trkpt>
<trkpt lat="43.94191800" lon="5.38715300"><ele></ele><time>2014-5-10T3:21:41Z</time></trkpt>
<trkpt lat="43.94212700" lon="5.38694600"><ele></ele><time>2014-5-10T3:21:44Z</time></trkpt>
<trkpt lat="43.94228400" lon="5.38679900"><ele></ele><time>2014-5-10T3:21:47Z</time></trkpt>
<trkpt lat="43.94249100" lon="5.38661000"><ele></ele><time>2014-5-10T3:21:50Z</time></trkpt>
<trkpt lat="43.94273100" lon="5.38637300"><ele></ele><time>2014-5-10T3:21:53Z</time></trkpt>
<trkpt lat="43.94292000" lon="5.38619300"><ele></ele><time>2014-5-10T3:21:56Z</time></trkpt>
<trkpt lat="43.94312400" lon="5.38611600"><ele></ele><time>2014-5-10T3:21:59Z</time></trkpt>
<trkpt lat="43.94332600" lon="5.38615700"><ele></ele><time>2014-5-10T3:22:2Z</time></trkpt>
<trkpt lat="43.94354100" lon="5.38630800"><ele></ele><time>2014-5-10T3:22:5Z</time></trkpt>
<trkpt lat="43.94376400" lon="5.38643600"><ele></ele><time>2014-5-10T3:22:8Z</time></trkpt>
<trkpt lat="43.94394400" lon="5.38638900"><ele></ele><time>2014-5-10T3:22:11Z</time></trkpt>
<trkpt lat="43.94404200" lon="5.38623600"><ele></ele><time>2014-5-10T3:22:14Z</time></trkpt>
<trkpt lat="43.94406700" lon="5.38599800"><ele></ele><time>2014-5-10T3:22:17Z</time></trkpt>
<trkpt lat="43.94399600" lon="5.38578200"><ele></ele><time>2014-5-10T3:22:20Z</time></trkpt>
<trkpt lat="43.94378100" lon="5.38559700"><ele></ele><time>2014-5-10T3:22:23Z</time></trkpt>
<trkpt lat="43.94357400" lon="5.38540400"><ele></ele><time>2014-5-10T3:22:26Z</time></trkpt>
<trkpt lat="43.94350000" lon="5.38521400"><ele></ele><time>2014-5-10T3:22:29Z</time></trkpt>
<trkpt lat="43.94343800" lon="5.38491600"><ele></ele><time>2014-5-10T3:22:32Z</time></trkpt>
<trkpt lat="43.94334800" lon="5.38449000"><ele></ele><time>2014-5-10T3:22:35Z</time></trkpt>
<trkpt lat="43.94320100" lon="5.38412900"><ele></ele><time>2014-5-10T3:22:38Z</time></trkpt>
<trkpt lat="43.94305500" lon="5.38386000"><ele></ele><time>2014-5-10T3:22:41Z</time></trkpt>
<trkpt lat="43.94289400" lon="5.38366100"><ele></ele><time>2014-5-10T3:22:44Z</time></trkpt>
<trkpt lat="43.94273100" lon="5.38345200"><ele></ele><time>2014-5-10T3:22:47Z</time></trkpt>
<trkpt lat="43.94265700" lon="5.38321900"><ele></ele><time>2014-5-10T3:22:50Z</time></trkpt>
<trkpt lat="43.94257200" lon="5.38293400"><ele></ele><time>2014-5-10T3:22:53Z</time></trkpt>
<trkpt lat="43.94247800" lon="5.38262300"><ele></ele><time>2014-5-10T3:22:56Z</time></trkpt>
<trkpt lat="43.94238700" lon="5.38232400"><ele></ele><time>2014-5-10T3:22:59Z</time></trkpt>
<trkpt lat="43.94235300" lon="5.38201400"><ele></ele><time>2014-5-10T3:23:2Z</time></trkpt>
<trkpt lat="43.94232800" lon="5.38183800"><ele></ele><time>2014-5-10T3:23:5Z</time></trkpt>
<trkpt lat="43.94221200" lon="5.38153200"><ele></ele><time>2014-5-10T3:23:8Z</time></trkpt>
<trkpt lat="43.94218300" lon="5.38145500"><ele></ele><time>2014-5-10T3:23:11Z</time></trkpt>
<trkpt lat="43.94204600" lon="5.38106800"><ele></ele><time>2014-5-10T3:23:14Z</time></trkpt>
<trkpt lat="43.94178600" lon="5.38047600"><ele></ele><time>2014-5-10T3:23:17Z</time></trkpt>
<trkpt lat="43.94170300" lon="5.38016100"><ele></ele><time>2014-5-10T3:23:20Z</time></trkpt>
<trkpt lat="43.94169400" lon="5.37981000"><ele></ele><time>2014-5-10T3:23:23Z</time></trkpt>
<trkpt lat="43.94183500" lon="5.37931600"><ele></ele><time>2014-5-10T3:23:26Z</time></trkpt>
<trkpt lat="43.94197200" lon="5.37897000"><ele></ele><time>2014-5-10T3:23:29Z</time></trkpt>
<trkpt lat="43.94214800" lon="5.37858200"><ele></ele><time>2014-5-10T3:23:32Z</time></trkpt>
<trkpt lat="43.94236500" lon="5.37823800"><ele></ele><time>2014-5-10T3:23:35Z</time></trkpt>
<trkpt lat="43.94247400" lon="5.37800300"><ele></ele><time>2014-5-10T3:23:38Z</time></trkpt>
<trkpt lat="43.94252700" lon="5.37782300"><ele></ele><time>2014-5-10T3:23:41Z</time></trkpt>
<trkpt lat="43.94252100" lon="5.37745800"><ele></ele><time>2014-5-10T3:23:44Z</time></trkpt>
<trkpt lat="43.94253700" lon="5.37720200"><ele></ele><time>2014-5-10T3:23:47Z</time></trkpt>
<trkpt lat="43.94260200" lon="5.37680700"><ele></ele><time>2014-5-10T3:23:50Z</time></trkpt>
<trkpt lat="43.94259000" lon="5.37664200"><ele></ele><time>2014-5-10T3:23:53Z</time></trkpt>
<trkpt lat="43.94258600" lon="5.37662600"><ele></ele><time>2014-5-10T3:23:56Z</time></trkpt>
<trkpt lat="43.94246000" lon="5.37665700"><ele></ele><time>2014-5-10T3:23:59Z</time></trkpt>
<trkpt lat="43.94245700" lon="5.37665200"><ele></ele><time>2014-5-10T3:24:2Z</time></trkpt>
</trkseg></trk></gpx>